[[{"header":{"parameterUnit":"m.s-1","parameterCategory":1,"la1":30.6,"la2":29.2853,"lo1":-89.7004,"lo2":-87.6739,"dy":0.0162,"dx":0.0183,"nx":112,"ny":82,"refTime":"2024-06-06T06:00:00:Z","depth":0,"parameterNumber":2,"parameterNumberName":"U-component_of_WINDS"},"data":[0.0,0.0,0.0,0.0,0.0,0.0,0.0,0.0,0.0,0.0,0.0,0.0,0.0,0.0,0.0,0.0,0.0,0.0,0.0,0.0,0.0,0.0,0.0,0.0,0.0,0.0,0.0,0.0,0.0,0.0,0.0,0.0,0.0,0.0,0.0,0.0,0.0,0.0,0.0,0.0,0.0,0.0,0.0,0.0,0.0,0.0,0.0,0.0,0.0,0.0,0.0,0.0,0.0,0.0,0.0,0.0,0.0,0.0,0.0,0.0,0.0,0.0,0.0,0.0,0.0,0.0,0.0,0.0,0.0,0.0,0.0,0.0,0.0,0.0,0.0,0.0,0.0,0.0,0.0,0.0,0.0,0.0,0.0,0.0,0.0,0.0,0.0,0.0,0.0,0.0,1.7521,1.9148,2.1351,2.2625,2.2453,2.3153,2.2414,1.9586,0.0,0.0,0.0,0.0,0.0,0.0,0.0,0.0,0.0,0.0,0.0,0.0,0.0,0.0,0.0,0.0,0.0,0.0,0.0,0.0,0.0,0.0,0.0,0.0,0.0,0.0,0.0,0.0,0.0,0.0,0.0,0.0,0.0,0.0,0.0,0.0,0.0,0.0,0.0,0.0,0.0,0.0,0.0,0.0,0.0,0.0,0.0,0.0,0.0,0.0,0.0,0.0,0.0,0.0,0.0,0.0,0.0,0.0,0.0,0.0,0.0,0.0,0.0,0.0,0.0,0.0,0.0,0.0,0.0,0.0,0.0,0.0,0.0,0.0,0.0,0.0,0.0,0.0,0.0,0.0,0.0,0.0,0.0,0.0,0.0,0.0,0.0,0.0,0.0,0.0,0.0,0.0,0.0,0.0,0.0,0.0,0.0,0.0,0.0,0.0,0.0,0.0,0.0,0.0,1.7389,2.0828,2.2081,2.2797,2.3038,2.3189,2.2327,2.0131,0.0,0.0,0.0,0.0,0.0,0.0,0.0,0.0,0.0,0.0,0.0,0.0,0.0,0.0,0.0,0.0,0.0,0.0,0.0,0.0,0.0,0.0,0.0,0.0,0.0,0.0,0.0,0.0,0.0,0.0,0.0,0.0,0.0,0.0,0.0,0.0,0.0,0.0,0.0,0.0,0.0,0.0,0.0,0.0,0.0,0.0,0.0,0.0,0.0,0.0,0.0,0.0,0.0,0.0,0.0,0.0,0.0,0.0,0.0,0.0,0.0,0.0,0.0,0.0,0.0,0.0,0.0,0.0,0.0,0.0,0.0,0.0,0.0,0.0,0.0,0.0,0.0,0.0,0.0,0.0,0.0,0.0,0.0,0.0,0.0,0.0,0.0,0.0,0.0,0.0,0.0,0.0,0.0,0.0,0.0,0.0,0.0,0.0,0.0,0.0,0.0,0.0,0.0,1.7453,1.9111,2.213,2.2929,2.3212,2.3189,2.3544,2.2702,2.0245,1.9137,0.0,0.0,0.0,0.0,0.0,0.0,0.0,0.0,0.0,0.0,0.0,0.0,0.0,0.0,0.0,0.0,0.0,0.0,0.0,0.0,0.0,0.0,0.0,0.0,0.0,0.0,0.0,0.0,0.0,0.0,0.0,0.0,0.0,0.0,0.0,0.0,0.0,0.0,0.0,0.0,0.0,0.0,0.0,0.0,0.0,0.0,0.0,0.0,0.0,0.0,0.0,0.0,0.0,0.0,0.0,0.0,0.0,0.0,0.0,0.0,0.0,0.0,0.0,0.0,0.0,0.0,0.0,0.0,0.0,0.0,0.0,0.0,0.0,0.0,0.0,0.0,0.0,0.0,0.0,0.0,0.0,0.0,0.0,0.0,0.0,0.0,0.0,0.0,0.0,0.0,0.0,0.0,0.0,0.0,0.0,0.0,0.0,0.0,0.0,0.0,0.0,0.0,1.9966,2.0918,2.3092,2.3544,2.3606,2.3346,2.3492,2.2538,1.9975,1.8203,0.0,0.0,0.0,0.0,0.0,0.0,0.0,0.0,0.0,0.0,0.0,0.0,0.0,0.0,0.0,0.0,0.0,0.0,0.0,0.0,0.0,0.0,0.0,0.0,0.0,0.0,0.0,0.0,0.0,0.0,0.0,0.0,0.0,0.0,0.0,0.0,0.0,0.0,0.0,0.0,0.0,0.0,0.0,0.0,0.0,0.0,0.0,0.0,0.0,0.0,0.0,0.0,0.0,0.0,0.0,0.0,0.0,0.0,0.0,0.0,0.0,0.0,0.0,0.0,0.0,0.0,0.0,0.0,0.0,0.0,0.0,0.0,0.0,0.0,0.0,0.0,0.0,0.0,0.0,0.0,0.0,0.0,0.0,0.0,0.0,0.0,0.0,0.0,0.0,0.0,0.0,0.0,0.0,0.0,0.0,0.0,0.0,0.0,0.0,0.0,0.0,0.0,2.0262,2.183,2.3491,2.3692,2.3692,2.3671,2.2628,2.1114,1.9111,1.6333,0.0,0.0,0.0,0.0,0.0,0.0,0.0,0.0,0.0,0.0,0.0,0.0,0.0,0.0,0.0,0.0,0.0,0.0,0.0,0.0,0.0,0.0,0.0,0.0,0.0,0.0,0.0,0.0,0.0,0.0,0.0,0.0,0.0,0.0,0.0,0.0,0.0,0.0,0.0,0.0,0.0,0.0,0.0,0.0,0.0,0.0,0.0,0.0,0.0,0.0,0.0,0.0,0.0,0.0,0.0,0.0,0.0,0.0,0.0,0.0,0.0,0.0,0.0,0.0,0.0,0.0,0.0,0.0,0.0,0.0,0.0,0.0,0.0,0.0,0.0,0.0,0.0,0.0,0.0,0.0,0.0,0.0,0.0,0.0,0.0,0.0,0.0,0.0,0.0,0.0,0.0,0.0,0.0,0.0,0.0,0.0,0.0,0.0,0.0,0.0,0.0,0.0,2.0666,2.2316,2.3853,2.4016,2.4016,2.4016,2.3564,2.2117,1.933,0.0,0.0,0.0,0.0,0.0,0.0,0.0,0.0,0.0,0.0,0.0,0.0,0.0,0.0,0.0,0.0,0.0,0.0,0.0,0.0,0.0,0.0,0.0,0.0,0.0,0.0,0.0,0.0,0.0,0.0,0.0,0.0,0.0,0.0,0.0,0.0,0.0,0.0,0.0,0.0,0.0,0.0,0.0,0.0,0.0,0.0,0.0,0.0,0.0,0.0,0.0,0.0,0.0,0.0,0.0,0.0,0.0,0.0,0.0,0.0,0.0,0.0,0.0,0.0,0.0,0.0,0.0,0.0,0.0,0.0,0.0,0.0,0.0,0.0,0.0,0.0,0.0,0.0,0.0,0.0,0.0,0.0,0.0,0.0,0.0,0.0,0.0,0.0,0.0,0.0,0.0,0.0,0.0,0.0,0.0,0.0,0.0,0.0,0.0,0.0,0.0,0.0,1.91,2.1202,2.2898,2.4173,2.4247,2.419,2.419,2.3474,2.1951,1.9455,0.0,0.0,0.0,0.0,0.0,0.0,0.0,0.0,0.0,0.0,0.0,0.0,0.0,0.0,0.0,0.0,0.0,0.0,0.0,0.0,0.0,0.0,0.0,0.0,0.0,0.0,0.0,0.0,0.0,0.0,0.0,0.0,0.0,0.0,0.0,0.0,0.0,0.0,0.0,0.0,0.0,0.0,0.0,0.0,0.0,0.0,0.0,0.0,0.0,0.0,0.0,0.0,0.0,0.0,0.0,0.0,0.0,0.0,0.0,0.0,0.0,0.0,0.0,0.0,0.0,0.0,0.0,0.0,0.0,0.0,0.0,0.0,0.0,0.0,0.0,0.0,0.0,0.0,0.0,0.0,0.0,0.0,0.0,0.0,0.0,0.0,0.0,0.0,0.0,0.0,0.0,0.0,0.0,0.0,0.0,0.0,0.0,0.0,0.0,0.0,0.0,0.0,1.9469,2.1854,2.3617,2.4418,2.4321,2.419,2.419,2.1951,2.0189,0.0,0.0,0.0,0.0,0.0,0.0,0.0,0.0,0.0,0.0,0.0,0.0,0.0,0.0,0.0,0.0,0.0,0.0,0.0,0.0,0.0,0.0,0.0,0.0,0.0,0.0,0.0,0.0,0.0,0.0,0.0,0.0,0.0,0.0,0.0,0.0,0.0,0.0,0.0,0.0,0.0,0.0,0.0,0.0,0.0,0.0,0.0,0.0,0.0,0.0,0.0,0.0,0.0,0.0,0.0,0.0,0.0,0.0,0.0,0.0,0.0,0.0,0.0,0.0,0.0,0.0,0.0,0.0,0.0,0.0,0.0,0.0,0.0,0.0,0.0,0.0,0.0,0.0,0.0,0.0,0.0,0.0,0.0,0.0,0.0,0.0,0.0,0.0,0.0,0.0,0.0,0.0,0.0,0.0,0.0,0.0,0.0,0.0,0.0,0.0,0.0,0.0,0.0,1.9568,2.2467,2.4452,2.4697,2.441,2.4266,2.441,2.3087,2.1452,1.9567,0.0,0.0,0.0,0.0,0.0,0.0,0.0,0.0,0.0,0.0,0.0,0.0,0.0,0.0,0.0,0.0,0.0,0.0,0.0,0.0,0.0,0.0,0.0,0.0,0.0,0.0,0.0,0.0,0.0,0.0,0.0,0.0,0.0,0.0,0.0,0.0,0.0,0.0,0.0,0.0,0.0,0.0,0.0,0.0,0.0,0.0,0.0,0.0,0.0,0.0,0.0,0.0,0.0,0.0,0.0,0.0,0.0,0.0,0.0,0.0,0.0,0.0,0.0,0.0,0.0,0.0,0.0,0.0,0.0,0.0,0.0,0.0,0.0,0.0,0.0,0.0,0.0,0.0,0.0,0.0,0.0,0.0,0.0,0.0,0.0,0.0,0.0,0.0,0.0,0.0,0.0,0.0,0.0,0.0,0.0,0.0,0.0,0.0,0.0,0.0,0.0,0.0,1.9802,2.2854,2.4869,2.4804,2.4512,2.4339,2.4375,2.3529,2.1985,1.9571,0.0,0.0,0.0,0.0,0.0,0.0,0.0,0.0,0.0,0.0,0.0,0.0,0.0,0.0,0.0,0.0,0.0,0.0,0.0,0.0,0.0,0.0,0.0,0.0,0.0,0.0,0.0,0.0,0.0,0.0,0.0,0.0,0.0,0.0,0.0,0.0,0.0,0.0,0.0,0.0,0.0,0.0,0.0,0.0,0.0,0.0,0.0,0.0,0.0,0.0,0.0,0.0,0.0,0.0,0.0,0.0,0.0,0.0,0.0,0.0,0.0,0.0,0.0,0.0,0.0,0.0,0.0,0.0,0.0,0.0,0.0,0.0,0.0,0.0,0.0,0.0,0.0,0.0,0.0,0.0,0.0,0.0,0.0,0.0,0.0,0.0,0.0,0.0,0.0,0.0,0.0,0.0,0.0,0.0,0.0,0.0,0.0,0.0,0.0,0.0,0.0,0.0,2.0081,2.3063,2.4962,2.4874,2.4639,2.4426,2.4266,2.3474,2.1969,1.9577,0.0,0.0,0.0,0.0,0.0,0.0,0.0,0.0,0.0,0.0,0.0,0.0,0.0,0.0,0.0,0.0,0.0,0.0,0.0,0.0,0.0,0.0,0.0,0.0,0.0,0.0,0.0,0.0,0.0,0.0,0.0,0.0,0.0,0.0,0.0,0.0,0.0,0.0,0.0,0.0,0.0,0.0,0.0,0.0,0.0,0.0,0.0,0.0,0.0,0.0,0.0,0.0,0.0,0.0,0.0,0.0,0.0,0.0,0.0,0.0,1.5515,1.4588,0.0,0.0,0.0,0.0,0.0,0.0,0.0,0.0,0.0,0.0,0.0,0.0,0.0,0.0,0.0,0.0,0.0,0.0,0.0,0.0,0.0,0.0,0.0,0.0,0.0,0.0,0.0,0.0,0.0,0.0,0.0,0.0,0.0,0.0,0.0,0.0,0.0,0.0,0.0,0.0,2.0081,2.3063,2.5053,2.5171,2.4785,2.4561,2.4654,2.3634,2.226,2.0507,1.8066,0.0,0.0,0.0,0.0,0.0,0.0,0.0,0.0,0.0,0.0,0.0,0.0,0.0,0.0,0.0,0.0,0.0,0.0,0.0,0.0,0.0,0.0,0.0,0.0,0.0,0.0,0.0,0.0,0.0,0.0,0.0,0.0,0.0,0.0,0.0,0.0,0.0,0.0,0.0,0.0,0.0,0.0,0.0,0.0,0.0,0.0,0.0,0.0,0.0,0.0,0.0,0.0,0.0,0.0,0.0,0.0,0.0,0.0,0.0,1.8045,1.7457,0.0,0.0,0.0,0.0,0.0,0.0,0.0,0.0,0.0,0.0,0.0,0.0,0.0,0.0,0.0,0.0,0.0,0.0,0.0,0.0,0.0,0.0,0.0,0.0,0.0,0.0,0.0,0.0,0.0,0.0,0.0,0.0,0.0,0.0,0.0,0.0,0.0,0.0,0.0,0.0,2.0658,2.3362,2.5152,2.5152,2.4917,2.4708,2.4654,2.407,2.2824,2.0741,1.9066,0.0,0.0,0.0,0.0,0.0,0.0,0.0,0.0,0.0,0.0,0.0,0.0,0.0,0.0,0.0,0.0,0.0,0.0,0.0,0.0,0.0,0.0,0.0,0.0,0.0,0.0,0.0,0.0,0.0,0.0,0.0,0.0,0.0,0.0,0.0,0.0,0.0,0.0,0.0,0.0,0.0,0.0,0.0,0.0,0.0,0.0,0.0,0.0,0.0,0.0,0.0,0.0,0.0,2.011,2.0285,2.0577,2.0652,2.1195,2.1991,2.0629,2.0674,2.162,2.0069,0.0,0.0,0.0,0.0,0.0,0.0,0.0,0.0,0.0,0.0,0.0,0.0,0.0,0.0,0.0,0.0,0.0,0.0,0.0,0.0,0.0,0.0,2.1621,2.2207,2.2401,2.2036,2.0444,0.0,0.0,0.0,0.0,0.0,0.0,0.0,0.0,0.0,0.0,0.0,2.1504,2.3832,2.5243,2.5077,2.5022,2.4898,2.4604,2.4559,2.3545,2.1163,2.0341,1.8901,0.0,0.0,0.0,0.0,0.0,0.0,0.0,0.0,0.0,0.0,0.0,0.0,0.0,0.0,0.0,0.0,0.0,0.0,0.0,0.0,0.0,0.0,0.0,0.0,0.0,0.0,0.0,0.0,0.0,0.0,0.0,0.0,1.3884,1.4537,0.0,0.0,0.0,0.0,0.0,0.0,0.0,0.0,0.0,0.0,0.0,0.0,0.0,2.0447,2.0447,2.1922,2.2683,2.2701,2.3289,2.3584,2.3621,2.3982,2.4214,2.4363,2.4432,0.0,2.2543,2.1562,0.0,0.0,0.0,0.0,0.0,0.0,0.0,0.0,0.0,0.0,0.0,0.0,0.0,0.0,0.0,0.0,0.0,0.0,0.0,0.0,0.0,0.0,2.4863,2.4219,2.4637,2.4899,2.3841,2.19,1.9784,1.7929,1.7616,1.7109,0.0,0.0,0.0,0.0,0.0,0.0,2.2408,2.4197,2.5284,2.5264,2.5099,2.4967,2.4949,2.4842,2.4289,2.3182,2.2196,2.0966,1.9329,1.752,0.0,0.0,0.0,0.0,0.0,0.0,0.0,0.0,0.0,0.0,0.0,0.0,0.0,0.0,0.0,0.0,0.0,0.0,0.0,0.0,0.0,0.0,0.0,0.0,0.0,0.0,0.0,0.0,0.0,1.3479,1.4915,1.5732,1.5934,1.5905,0.0,0.0,0.0,0.0,0.0,0.0,0.0,0.0,0.0,2.0117,2.1004,2.1891,2.2757,2.3482,2.406,2.449,2.4976,2.5269,2.5399,2.58,2.6024,2.6151,2.6416,2.6113,2.5321,2.364,2.2658,2.2139,0.0,0.0,0.0,0.0,2.1546,2.1347,2.2838,2.2769,2.1937,2.1528,0.0,0.0,0.0,0.0,0.0,0.0,0.0,2.2129,2.3066,2.4121,2.5,2.5098,2.5391,2.5526,2.5109,2.415,2.2721,2.0525,2.0508,2.0156,1.793,1.7917,0.0,0.0,0.0,2.2186,2.3379,2.4562,2.5303,2.5303,2.5214,2.5111,2.501,2.4937,2.4517,2.3553,2.3088,2.2359,2.1249,1.9512,1.7825,0.0,0.0,0.0,0.0,0.0,0.0,0.0,0.0,0.0,0.0,0.0,0.0,0.0,0.0,0.0,0.0,0.0,0.0,0.0,0.0,0.0,0.0,0.0,0.0,0.0,0.0,0.0,0.0,1.4458,1.5892,1.6729,1.7523,1.779,0.0,0.0,0.0,0.0,0.0,0.0,1.9683,2.0274,2.0945,2.167,2.227,2.3247,2.4582,2.46,2.49,2.55,2.5839,2.609,2.6239,2.6688,2.6971,2.7127,2.735,2.7419,2.73,2.571,2.4687,2.4043,2.3389,2.2775,2.2392,2.3725,2.381,2.3553,2.5495,2.573,2.5033,2.4232,2.3663,2.3056,2.1778,0.0,0.0,0.0,0.0,2.3164,2.4414,2.4727,2.4902,2.5547,2.5664,2.5618,2.5602,2.5597,2.496,2.2854,2.2982,2.2734,2.0566,2.0742,0.0,2.1307,2.2419,2.355,2.4341,2.4966,2.5322,2.5303,2.5303,2.5253,2.5088,2.5088,2.4755,2.4005,2.391,2.3524,2.2716,2.1242,1.9669,1.8,0.0,0.0,0.0,0.0,0.0,0.0,0.0,0.0,0.0,0.0,0.0,0.0,0.0,0.0,0.0,0.0,0.0,0.0,0.0,0.0,0.0,0.0,0.0,0.0,0.0,0.0,0.0,0.0,0.0,1.7686,1.8381,0.0,0.0,0.0,0.0,1.9439,1.9547,2.0238,2.1763,2.1869,2.2594,2.407,2.4159,2.4582,2.5429,2.5447,2.5464,2.55,2.5839,2.6009,2.6038,2.6626,2.6916,2.6935,2.7129,2.7229,2.7242,2.7572,2.7678,2.764,2.7601,2.7544,2.7544,2.7699,2.768,2.7622,2.7881,2.7892,2.7681,2.6863,2.5486,2.412,2.4034,2.4063,0.0,0.0,2.4824,2.5527,2.5605,2.5625,2.5644,2.5684,2.5703,2.5683,2.5605,2.5604,2.5313,2.437,2.4257,2.4023,2.3066,0.0,2.3223,2.3984,2.416,2.4503,2.5236,2.537,2.537,2.5303,2.5303,2.5303,2.5293,2.5274,2.5254,2.5216,2.5031,2.4572,2.3763,2.2722,2.1425,1.9809,1.7349,0.0,0.0,0.0,0.0,0.0,0.0,0.0,0.0,0.0,0.0,0.0,0.0,0.0,0.0,0.0,0.0,0.0,0.0,0.0,0.0,0.0,0.0,0.0,0.0,0.0,0.0,0.0,0.0,1.939,2.0127,0.0,1.9891,2.032,2.0767,2.1119,2.2053,2.281,2.3214,2.3676,2.4074,2.4431,2.4419,2.4797,2.5571,2.5571,2.5811,2.6293,2.665,2.6975,2.7255,2.7652,2.7995,2.8267,2.8518,2.8615,2.8634,2.9083,2.8606,2.7663,2.7838,2.789,2.789,2.7939,2.792,2.7909,2.7948,2.7958,2.7881,2.7593,2.7082,2.6591,2.6591,2.6629,2.6698,2.6738,2.7022,2.7324,2.7363,2.7363,2.7363,2.7363,2.7363,2.7207,2.6621,2.649,2.6238,2.5369,2.5186,2.4915,2.408,2.4394,2.4668,2.4355,2.4772,2.5227,2.5441,2.547,2.5466,2.5428,2.5428,2.5428,2.5428,2.539,2.537,2.537,2.5262,2.5069,2.4791,2.3294,2.198,2.0889,1.8336,1.5975,0.0,0.0,0.0,0.0,0.0,0.0,0.0,0.0,0.0,0.0,0.0,0.0,0.0,0.0,0.0,0.0,0.0,0.0,0.0,0.0,0.0,0.0,0.0,0.0,0.0,1.7995,1.9597,2.0189,2.1173,2.1661,2.134,2.2014,2.2571,2.2832,2.3604,2.4035,2.3828,2.4288,2.4557,2.4592,2.4785,2.522,2.5964,2.5981,2.6218,2.6691,2.7241,2.7619,2.7926,2.8386,2.8749,2.9035,2.9477,2.9527,2.9326,3.0245,2.9799,2.8547,2.8689,2.8683,2.8617,2.8617,2.8581,2.8511,2.8511,2.8377,2.8195,2.8195,2.8057,2.789,2.789,2.7948,2.8009,2.8043,2.8106,2.8188,2.8227,2.8258,2.8262,2.8262,2.8281,2.8144,2.7559,2.7441,2.7279,2.6693,2.6062,2.5459,2.4939,2.5312,2.5488,2.4863,2.5254,2.5603,2.5531,2.5537,2.5524,2.5495,2.5495,2.5495,2.5495,2.5448,2.5434,2.5428,2.539,2.5245,2.4947,2.3523,2.2345,2.1512,1.8941,1.6651,1.4705,0.0,0.0,0.0,0.0,0.0,0.0,0.0,0.0,0.0,0.0,0.0,0.0,0.0,0.0,0.0,0.0,0.0,0.0,0.0,0.0,0.0,0.0,0.0,1.6821,1.8842,2.0267,2.0052,2.1404,2.2316,2.2288,2.2975,2.3684,2.4394,2.3999,2.372,2.372,2.3736,2.4081,2.482,2.5347,2.5982,2.6725,2.6742,2.6742,2.6792,2.7539,2.794,2.7968,2.8699,2.9044,2.9104,2.9898,2.9806,2.92,3.1051,3.1328,3.0611,3.0462,3.0266,3.0037,2.9999,2.9861,2.9696,2.9696,2.9317,2.8836,2.8836,2.8441,2.7967,2.7967,2.8033,2.808,2.808,2.8113,2.8184,2.8184,2.8223,2.8261,2.8261,2.832,2.8359,2.834,2.832,2.832,2.8301,2.6934,2.5781,2.5781,2.5781,2.5762,2.5742,2.5742,0.0,2.5605,2.5605,2.558,2.5511,2.5517,2.5517,2.5517,2.5498,2.5492,2.5495,2.5495,2.512,2.4284,2.3477,2.2623,2.1718,1.9153,1.7404,1.6534,0.0,0.0,0.0,0.0,0.0,0.0,0.0,0.0,0.0,0.0,0.0,0.0,0.0,0.0,0.0,0.0,0.0,0.0,0.0,0.0,0.0,1.7904,1.9121,1.9113,2.0162,2.0998,2.1142,2.198,2.2419,2.2102,2.2718,2.3187,2.3381,2.3761,2.3999,2.3999,2.4503,2.5115,2.5779,2.5872,2.6471,2.7694,2.7561,2.7791,2.8349,2.8578,2.8817,2.9094,2.9621,3.0032,3.0314,3.0863,3.0944,3.0803,3.1514,3.1663,3.1427,3.0939,3.0722,3.0576,3.0007,2.9765,2.9696,2.9696,2.9597,2.9458,2.9458,2.9448,2.9415,2.9415,2.957,2.9744,2.9802,2.9839,2.9853,2.9892,2.9931,2.9939,2.9932,2.9955,2.9799,2.9152,2.9105,2.8984,2.8359,2.7871,2.7598,2.7598,2.7598,2.7363,2.6738,2.6641,2.6406,2.5762,2.5664,2.5663,2.5658,2.5657,2.5657,2.5657,2.5598,2.5576,2.5576,2.5525,2.5389,2.5156,2.4367,2.3242,2.172,1.9747,1.8317,0.0,0.0,0.0,0.0,0.0,0.0,0.0,0.0,0.0,0.0,0.0,0.0,0.0,0.0,0.0,0.0,0.0,0.0,0.0,0.0,0.0,0.0,1.9082,2.0157,2.0768,2.1138,2.1475,2.1743,2.2118,2.2473,2.2844,2.3239,2.357,2.3893,2.4103,2.4248,2.4248,2.465,2.5267,2.6198,2.6374,2.711,2.846,2.8373,2.8535,2.9011,2.9157,2.9317,2.9522,2.9948,3.0277,3.0552,3.132,3.1445,3.1235,3.2226,3.2445,3.208,0.0,0.0,0.0,0.0,3.0404,3.0404,3.0404,3.0485,3.0564,3.0564,3.0785,3.0956,3.05,3.0643,3.0847,3.042,3.0369,3.0467,3.0506,3.0544,3.0571,3.0567,3.0582,3.0466,2.9954,2.9907,2.9814,2.9308,2.9253,0.0,2.9259,2.8726,2.8125,2.7617,2.7226,2.6812,2.6272,2.589,2.5665,2.5664,2.5638,2.5636,2.5703,2.5637,0.0,0.0,0.0,2.5417,2.5047,2.4264,0.0,0.0,0.0,0.0,0.0,1.8893,0.0,0.0,1.792,1.7627,0.0,0.0,0.0,0.0,0.0,0.0,0.0,0.0,0.0,0.0,0.0,0.0,0.0,0.0,0.0,0.0,1.9844,2.0479,2.1763,2.1648,2.1617,2.1977,2.2102,2.2643,2.3824,2.3998,2.4331,2.5091,2.4701,2.4462,2.4539,2.4555,0.0,0.0,0.0,2.7781,2.9138,2.9144,2.9144,2.9265,2.9539,2.9679,2.973,3.0114,3.0339,3.0437,3.1548,3.1683,3.1217,3.3013,3.3331,3.2702,3.2313,3.196,3.1658,3.1483,3.1359,3.1334,3.1384,0.0,0.0,3.1749,3.2069,3.2248,3.1298,3.1366,3.1578,3.0572,3.0483,3.0648,3.0571,3.0602,3.0621,3.0506,3.0525,3.0583,3.0583,3.0583,3.0584,3.0586,3.0634,3.0665,3.0603,2.9471,2.853,2.8436,2.7752,2.7217,2.7052,2.6275,2.5739,2.575,2.56,0.0,2.5676,2.5628,2.5591,2.5591,2.5655,2.5352,2.457,2.3867,2.3418,2.3242,2.3188,2.3073,2.2898,2.2831,2.2851,2.287,1.9735,1.9323,0.0,0.0,0.0,0.0,0.0,0.0,0.0,0.0,0.0,0.0,0.0,0.0,0.0,0.0,0.0,2.0385,2.0708,2.0978,2.1454,2.1015,2.1024,2.2121,2.2707,2.3041,2.2991,2.3394,2.397,2.4667,2.464,2.4777,2.5318,2.5348,2.594,2.7219,2.7248,2.8168,3.0046,2.9928,3.0192,3.0768,3.0828,0.0,3.0887,3.1301,3.1689,3.2042,3.2299,3.2536,3.2751,3.3146,3.3431,3.3495,3.2778,3.1865,3.1029,3.1309,3.1188,3.0948,3.1283,3.1434,3.1483,3.1483,3.1681,3.1888,3.1675,3.1958,0.0,3.2092,3.2206,3.2275,3.1621,3.1468,3.1295,3.0602,3.0417,3.0448,3.0448,3.0487,3.0518,3.0516,3.0578,3.0615,3.0607,3.0393,2.9984,2.9216,2.8963,2.8612,2.7945,2.7108,2.6573,2.6563,2.5925,2.5515,2.5538,2.5525,2.5529,2.5529,2.5586,2.5566,2.5449,2.5293,2.4883,2.416,2.4139,2.3747,2.2988,2.2911,2.3207,2.3821,2.2455,2.1972,0.0,0.0,0.0,0.0,0.0,0.0,0.0,0.0,0.0,0.0,0.0,1.7656,1.9159,0.0,1.9463,2.0474,2.0524,2.0567,2.1012,2.0811,2.0941,2.188,2.2301,2.2685,2.3101,2.3729,2.4253,2.4552,2.4881,2.527,2.56,2.5615,2.6336,2.7908,2.7897,2.8786,3.0723,3.0701,3.0835,3.119,3.119,3.119,3.119,3.1411,3.162,3.186,3.2074,3.2264,3.2533,3.2745,3.2965,3.3112,3.2703,3.2441,3.2311,3.2543,3.2472,3.2338,3.2543,3.2596,3.2596,3.2596,3.2785,3.2887,3.2353,3.2545,3.2861,3.2462,3.2515,3.2637,3.2366,3.2006,3.1583,3.116,3.0717,3.0398,3.0398,3.0417,3.0448,3.0448,3.0506,3.0532,3.051,3.0567,3.0455,3.0017,2.959,2.9137,2.872,2.7914,2.7227,2.6805,2.6337,2.5901,2.5572,2.5556,2.5561,2.5599,2.5607,2.5636,2.5703,2.5703,2.5508,2.5059,2.5019,2.4742,2.4242,2.4176,2.4341,2.4697,2.4255,2.3956,0.0,0.0,0.0,0.0,0.0,0.0,0.0,0.0,1.7994,1.9169,1.8786,1.8656,2.0041,1.9788,1.962,2.0368,2.0098,2.0035,2.0721,2.0789,2.102,2.1607,2.1799,2.2411,2.3686,2.4298,2.4686,2.494,2.5495,2.5854,2.5989,2.6083,2.6919,2.8554,2.8699,2.9543,3.119,3.119,3.119,3.119,3.119,3.119,3.119,3.119,3.1252,3.1312,3.166,3.1789,3.1825,3.2196,3.2417,3.2484,3.2484,3.2934,3.355,3.355,3.355,3.3578,3.3634,3.3734,3.3807,3.3807,3.3935,3.3963,3.3096,3.3175,3.3424,3.2767,3.275,3.2939,3.2991,3.2563,3.2033,3.1706,3.1136,3.0609,3.0436,3.0398,3.0398,3.0398,3.0448,3.0467,3.0398,3.0448,3.0506,3.0544,2.9963,2.9483,2.9429,2.8725,2.7937,2.7237,2.6977,2.6593,2.5888,2.5676,2.5619,2.5688,2.562,2.5628,2.5703,2.5703,2.5703,2.5703,2.5638,2.5573,2.5489,2.5429,2.537,2.5303,2.5303,2.5214,1.6442,1.7134,1.7936,1.8437,1.8112,1.8297,0.0,0.0,1.8691,2.0423,2.0061,1.9622,2.0294,2.0041,1.9975,2.0666,2.0245,2.0028,2.069,2.0801,2.1019,2.1614,2.2246,2.308,2.4358,2.4537,2.506,2.6288,2.6437,2.6737,2.732,2.7862,2.8545,2.9278,2.9821,3.0435,3.119,3.119,3.119,3.119,3.119,3.119,3.119,3.119,3.1372,3.1716,3.1789,3.1789,3.1808,3.1861,3.2127,3.2484,3.2484,3.255,3.2648,3.2648,3.2648,3.2713,3.3105,3.3494,3.3807,3.3807,3.3815,3.3823,3.3697,3.3864,3.4097,3.4004,3.4226,3.4281,3.3545,3.3444,3.3191,3.1707,3.1454,3.1352,3.0571,3.0398,3.0398,3.0398,3.0398,3.0398,3.0398,3.0398,3.0398,3.0417,3.034,3.0263,3.0275,2.9506,2.8929,2.8844,2.8228,2.7517,2.6732,2.596,2.5544,2.5621,2.5601,2.5628,2.5703,2.5703,2.5703,2.5703,2.5626,2.5573,2.5489,2.5429,2.537,2.5303,2.5303,2.5303,1.8743,1.9211,1.9479,1.946,1.9305,1.9324,1.9959,1.9564,1.9258,2.0036,1.9921,1.9759,2.0003,1.9885,1.9888,2.0168,1.9977,2.0055,2.0696,2.0795,2.1175,2.2161,2.2543,2.3182,2.4477,2.4971,2.5585,2.6512,2.6946,2.7275,2.761,2.8189,2.8779,2.9361,2.9995,3.0601,3.119,3.119,3.119,3.119,3.119,3.119,3.119,3.119,3.1528,3.2081,3.2081,3.2081,3.2047,3.1619,3.1582,3.175,3.175,3.175,3.1787,3.2316,3.2484,3.255,3.3045,3.3302,3.3494,3.3734,3.3807,3.3807,3.3807,3.3876,3.4012,3.4171,3.4311,3.437,3.4199,3.3866,3.3429,3.2882,3.2443,3.199,3.1309,3.116,3.1006,3.0494,3.0398,3.0398,3.0398,3.0398,3.0398,3.0398,3.0398,3.0398,3.0398,3.0083,2.9679,2.9209,2.8509,2.7942,2.7648,2.6844,2.6378,2.64,2.5948,2.5671,2.5703,2.5703,2.5703,2.5703,2.5628,2.5581,2.5499,2.5437,2.537,2.5303,2.5303,2.5303,1.9718,2.0113,2.021,1.9468,1.9549,1.9626,1.8996,1.9043,1.9259,1.9377,1.9523,1.962,1.9786,1.9798,1.9798,1.9798,2.013,2.0476,2.0772,2.1274,2.1883,2.2618,2.2844,2.345,2.4761,2.533,2.5959,2.6797,2.7355,2.766,2.786,2.8415,2.8996,2.9629,3.0208,3.084,3.1495,3.1292,3.1393,3.1799,3.1596,3.1596,3.1799,3.1799,3.2087,3.2594,3.2594,3.2594,3.2544,3.2019,3.1799,3.1799,3.1799,3.1799,3.1862,3.252,3.2582,3.235,3.2713,3.2965,3.3243,3.355,3.3707,3.3807,3.3807,3.3807,3.3842,3.4043,3.4074,3.4165,3.4375,3.4118,3.3752,3.3692,3.3315,3.2804,3.2173,3.2025,3.1833,3.1218,3.1102,3.1025,3.0814,3.0756,3.0679,3.0436,3.0398,3.0398,3.0417,3.0417,3.0217,2.9671,2.8892,2.8474,2.8572,2.7822,2.7363,2.7363,2.6777,2.6309,2.6074,2.6055,2.5957,2.5703,2.5634,2.558,2.5505,2.5428,2.537,2.5303,2.5303,2.5303,1.8507,1.9138,1.9803,1.8107,1.8259,1.8722,1.8234,1.8195,1.8393,1.8921,1.9052,1.9189,1.9709,1.9798,1.9798,1.9798,2.0914,2.1544,2.0888,2.2442,2.3385,2.2766,2.3201,2.4118,2.545,2.56,2.6153,2.744,2.761,2.786,2.8415,2.9042,2.9629,3.0251,3.0878,3.1529,3.2239,3.1546,3.1918,3.3322,3.2594,3.2628,3.3339,3.3339,3.3355,3.3372,3.3372,3.3372,3.3372,3.3355,3.3339,3.3339,3.3339,3.3339,3.3339,3.338,3.2718,3.1808,3.1861,3.2433,3.3214,3.3214,3.3494,3.3807,3.3807,3.3807,3.3788,3.3815,3.3815,3.3815,3.3815,3.4237,3.4449,3.3618,3.3789,3.391,3.3045,3.2852,3.2852,3.2833,3.2814,3.2583,3.1795,3.166,3.1371,3.0533,3.0398,3.0417,3.0487,3.0506,3.0544,3.0641,2.9818,2.9347,2.955,2.8769,2.8262,2.8262,2.8242,2.7832,2.6992,2.6953,2.6562,2.5723,2.5625,2.5577,2.5505,2.5428,2.537,2.5303,2.5303,2.5303,1.915,1.9406,1.9691,1.9193,1.9014,1.8893,1.8719,1.8701,1.8666,1.8509,1.9061,1.9474,1.9307,1.9908,2.0444,2.0435,2.1541,2.247,2.2698,2.3669,2.4272,2.3983,2.4521,2.5106,2.557,2.5615,2.6153,2.752,2.7625,2.786,2.8463,2.9088,2.9673,3.0293,3.0477,3.0925,3.1639,3.0986,3.1363,3.2752,3.2925,3.3169,3.3423,3.3914,3.4134,3.4134,3.4134,3.4134,3.4083,3.3609,3.3406,3.3406,3.3406,3.3406,3.3406,3.3406,3.3192,3.2889,3.2963,3.3193,3.3487,3.3553,3.368,3.3807,3.3807,3.3807,3.3807,3.3807,3.3807,3.3807,3.3807,3.4068,3.4349,3.4275,3.4526,3.4619,3.3903,3.3757,3.3583,3.3006,3.2891,3.2814,3.2545,3.2506,3.2218,3.1391,3.0775,3.0417,3.0487,3.0506,3.0544,3.0679,3.0411,3.0295,3.0448,2.9668,2.916,2.916,2.8613,2.8164,2.7871,2.7851,2.7715,2.7422,2.7363,2.7027,2.6422,2.6328,2.5938,2.539,2.5909,2.6159,1.9142,1.9238,1.9344,1.9245,1.8976,1.8721,1.8721,1.8721,1.8662,1.8539,1.9017,1.9487,1.9316,1.9907,2.0521,2.075,2.2066,2.3197,2.363,2.4684,2.5246,2.5015,2.536,2.5704,2.5929,2.5959,2.6408,2.7535,2.7799,2.8223,2.8835,2.9469,3.0204,3.1024,3.0805,3.1132,3.2093,3.1177,3.1418,3.28,3.3489,3.395,3.4218,3.4675,3.4895,3.4895,3.4895,3.4895,3.4861,3.4387,3.4201,3.4201,3.4201,3.4201,3.4201,3.4201,3.4201,3.4117,3.3671,3.3581,3.3596,3.3695,3.3769,3.3807,3.3807,3.3807,3.3807,3.3807,3.3807,3.3807,3.3807,3.4012,3.4269,3.4632,3.4908,3.5021,3.4735,3.4661,3.4507,3.3949,3.3833,3.3737,3.341,3.3103,3.2622,3.1814,3.1218,3.0775,3.0525,3.0506,3.054,3.0646,3.0645,3.068,3.0819,3.0312,3.0019,3.0059,2.9531,2.9082,2.8789,2.8769,2.8613,2.8301,2.8262,2.7949,2.7363,2.7273,2.6951,2.6371,2.6862,2.7101,1.8502,1.8618,1.8861,1.8422,1.8271,1.8271,1.8259,1.8277,1.8417,1.886,1.8988,1.9176,0.0,0.0,2.0083,2.0724,2.2486,2.3782,2.3782,2.5446,2.6393,0.0,0.0,0.0,0.0,2.6677,2.6961,2.7619,2.8248,2.8904,2.9531,3.0134,3.1079,3.2331,3.1693,3.2031,3.3365,3.2112,3.2128,3.3447,3.4215,3.4894,3.556,3.556,3.5577,3.5622,3.5622,3.5622,3.5622,3.5622,3.5622,3.5622,3.5622,3.5622,3.5622,3.5622,3.5622,3.5419,3.4041,3.3632,3.3722,3.3687,3.379,3.3862,3.3862,3.3825,3.3807,3.3807,3.3807,3.3807,3.3807,3.4012,3.4288,3.4593,3.4889,3.5174,3.5432,3.5493,3.5493,3.5493,3.5493,3.5238,3.441,3.3545,3.2718,3.1948,3.1756,3.141,3.0602,3.0506,3.0528,3.0594,3.054,3.0561,3.068,3.0683,3.0742,3.0879,3.0898,3.0527,2.9687,2.9667,2.9277,2.8457,2.8437,2.8379,2.8262,2.8262,2.8203,2.8097,2.8068,2.8065,1.8763,1.8882,1.9037,1.9354,1.9379,1.929,1.8873,1.9106,1.9187,1.8528,1.8994,1.9435,0.0,2.0274,2.1278,2.1447,2.3526,2.5112,2.5112,2.6385,0.0,2.6422,0.0,2.7141,2.7355,2.7784,2.8368,2.9026,2.8786,2.91,3.0211,3.0412,3.0829,3.1646,3.1079,3.1142,3.1954,3.2175,3.2457,3.284,3.3502,3.4186,3.483,3.483,3.5144,3.5622,3.5622,3.5622,3.5622,3.5622,3.5622,3.5622,3.5622,3.5622,3.5622,3.5622,3.5622,3.5599,3.5625,3.5488,3.5279,3.5075,3.4854,3.4679,3.4679,3.4284,3.3807,3.3807,3.3807,3.3807,3.3807,3.4012,3.4223,3.4311,3.4716,3.5122,3.519,3.5369,3.5493,3.5493,3.5493,3.543,3.5218,3.4449,3.3795,3.3583,3.2506,3.141,3.0602,3.0506,3.0529,3.0586,3.0576,3.0597,3.0625,3.0633,3.0637,3.0676,3.0714,3.0644,3.043,3.0417,3.0366,3.0234,3.0137,2.9805,2.9238,2.9199,2.8826,2.8198,2.8773,2.8985,1.8944,1.9189,1.9443,1.9722,1.962,1.9443,1.9366,1.9225,1.8983,1.8545,1.8936,1.9159,1.85,1.9722,2.0917,2.1216,0.0,0.0,2.5525,2.6737,2.749,0.0,2.7619,0.0,2.8023,2.8637,2.9295,2.9939,2.9639,2.9741,3.0449,3.0769,3.1228,3.1892,3.1281,3.1104,3.1454,3.1921,3.2272,3.2586,3.2986,3.3479,3.4186,3.4186,3.4544,3.5144,3.5144,3.5316,3.5622,3.5622,3.5622,3.5622,3.5622,3.5622,3.5622,3.5622,3.5622,3.5667,3.6224,3.6427,3.6413,3.6139,3.5817,3.5587,3.5587,3.5257,3.4816,3.4431,3.4339,3.4266,3.3899,3.3928,3.4068,3.4152,3.4449,3.4755,3.4889,3.5157,3.5369,3.5479,3.5493,3.5493,3.5493,3.5084,3.4641,3.4257,3.3391,3.2506,3.166,3.091,3.0467,3.0506,3.0506,3.0525,3.0544,3.055,3.0574,3.0593,3.0639,3.0657,3.066,3.0658,3.0704,3.0803,3.0732,3.0527,3.0176,3.0137,2.9863,2.9394,2.9793,2.9924,1.9101,1.9455,1.9811,1.99,1.9531,1.9216,1.9699,1.9039,1.8361,1.8639,1.8721,1.8534,1.7933,1.8852,1.9966,2.073,0.0,2.4073,2.5403,2.6658,2.7545,2.7694,2.8233,2.8667,2.8846,2.937,2.9968,3.0597,3.0642,3.0642,3.0642,3.121,3.1796,3.2437,3.1853,3.1482,3.1482,3.1482,3.1796,3.2437,3.2532,3.2933,3.3582,3.3684,3.4087,3.4736,3.4736,3.5052,3.5622,3.5622,3.5622,3.5622,3.5622,3.5622,3.5622,3.5622,3.5622,3.5694,3.6308,3.6803,3.7179,3.693,3.6703,3.645,3.645,3.6376,3.6119,3.5247,3.499,3.4807,3.4009,3.3807,3.3868,3.4074,3.4152,3.4288,3.4572,3.4851,3.5122,3.5354,3.5383,3.5383,3.5383,3.5383,3.5134,3.4381,3.4169,3.3824,3.3062,3.1661,3.0686,3.0571,3.0571,3.0564,3.0487,3.0487,3.0506,3.0564,3.0583,3.0597,3.0581,3.0587,3.0621,3.0691,3.0691,3.0741,3.0879,3.0898,3.0898,3.0898,3.0781,3.0723,1.9544,1.9722,1.9913,2.0502,2.0156,1.9686,1.9876,1.9281,0.0,0.0,1.8002,1.8022,1.8463,1.9166,2.0107,2.1341,2.2701,2.4074,2.5411,2.6263,2.7172,0.0,2.8532,2.9011,3.0073,3.0283,3.0627,3.13,3.136,3.136,3.136,3.1407,3.1582,3.1697,3.1582,3.1482,3.1482,3.1482,3.1582,3.1697,3.2327,3.2933,3.3633,3.4186,3.4783,3.5424,3.5424,3.547,3.5622,3.5622,3.5622,3.5622,3.5622,3.5622,3.5622,3.5622,3.5622,3.5739,3.6706,3.7114,3.7268,3.7593,3.7503,3.7276,3.7276,3.6817,3.6119,3.5247,3.499,3.4807,3.4009,3.3807,3.3815,3.3868,3.4043,3.42,3.4269,3.4551,3.4774,3.4832,3.4851,3.4851,3.4851,3.4851,3.4794,3.4643,3.3999,3.3469,3.3337,3.2817,3.2218,3.1545,3.1468,3.1198,3.0475,3.0417,3.0417,3.0417,3.0487,3.0529,3.0516,3.0527,3.0552,3.0621,3.0625,3.0668,3.0723,3.0859,3.0898,3.0898,3.0879,3.0801,1.9633,2.0066,2.0412,2.0708,2.0335,1.9838,1.9815,0.0,0.0,0.0,1.7496,1.7642,1.7471,1.8401,0.0,2.0277,2.1627,2.318,2.4867,2.5686,2.6718,2.8383,2.8904,2.9486,3.0417,3.0836,3.118,3.1452,3.1482,3.1482,3.1482,3.1482,3.1482,3.1482,3.1482,3.1482,3.1482,3.1482,3.1482,3.1539,3.2272,3.2803,3.3093,3.3786,3.4447,3.5098,3.5098,3.5253,3.5622,3.5622,3.5622,3.5622,3.5622,3.5622,3.5622,3.5622,3.5622,3.5694,3.6522,3.6803,3.6882,3.736,3.7812,3.812,3.812,3.7845,3.7294,3.6028,3.5679,3.5404,3.4137,3.3807,3.3807,3.3807,3.3902,3.4018,3.4171,3.4334,3.4508,3.4674,3.4694,3.4694,3.4694,3.4694,3.4694,3.4694,3.4334,3.407,3.407,3.394,3.3337,3.2045,3.2019,3.1771,3.0948,3.1002,3.0891,3.0417,3.0417,3.0448,3.0448,3.0448,3.0487,3.0544,3.054,3.06,3.0703,3.0762,3.082,3.0898,3.0898,3.0879,1.9531,2.0168,2.0849,2.098,2.0541,2.0077,2.0109,1.8951,0.0,1.7039,1.7167,1.7257,1.684,1.7746,1.8809,0.0,2.0667,2.2234,2.4317,2.5176,2.6404,0.0,2.9411,0.0,3.0672,3.121,3.1482,3.1482,3.1482,3.1482,3.1482,3.1482,3.1482,3.1482,3.1482,3.1482,3.1482,3.1482,3.1482,3.1539,3.2367,3.2788,3.2841,3.3649,3.4301,3.4783,3.4783,3.5098,3.5622,3.5622,3.5622,3.5622,3.5622,3.5622,3.5622,3.5622,3.5622,3.5667,3.6224,3.6374,3.6498,3.7038,3.7791,3.8546,3.8546,3.8627,3.8358,3.6743,3.6303,3.5899,3.4247,3.3807,3.3807,3.3807,3.3807,3.3868,3.4068,3.4123,3.4195,3.4461,3.4505,3.4505,3.4505,3.4505,3.4505,3.4505,3.4505,3.4505,3.4505,3.4505,3.3979,3.2606,3.2599,3.2374,3.1622,3.1747,3.1533,3.0725,3.0679,3.059,3.0398,3.0398,3.0417,3.0487,3.0506,3.0576,3.0682,3.072,3.0801,3.0898,3.0898,3.0898,1.9037,1.99,2.0933,2.1468,2.1125,2.0782,2.1384,0.0,1.7688,1.7624,1.6991,1.6797,1.8,1.821,1.8858,2.0791,0.0,2.1688,2.4232,2.5167,2.6557,2.9222,0.0,0.0,3.136,3.1437,3.1482,3.1482,3.1482,3.1482,3.1482,3.1482,3.1482,3.1482,3.1482,3.1482,3.1482,3.1482,3.1482,3.1539,3.2864,3.3495,3.3531,3.4847,3.547,3.5515,3.5515,3.5515,3.5622,3.5622,3.5622,3.5622,3.5622,3.5622,3.5622,3.5622,3.5622,3.5667,3.6224,3.6374,3.6498,3.7038,3.7542,3.798,3.798,3.83,3.8358,3.6743,3.6303,3.5899,3.4247,3.3807,3.3807,3.3807,3.3807,3.3807,3.3842,3.3842,3.3842,3.3868,3.3895,3.3895,3.3895,3.3895,3.3895,3.3895,3.3895,3.3895,3.3895,3.3895,3.3839,3.3647,3.3455,3.3072,3.2441,3.2416,3.2182,3.1628,3.1583,3.1237,3.0417,3.0398,3.0398,3.0398,3.0525,3.0587,3.0604,3.0798,3.0898,3.0898,3.0898,3.0898,1.9428,2.0469,2.1479,2.2162,2.1802,2.1265,2.112,0.0,1.7655,1.748,1.684,1.6743,1.814,1.8531,1.9026,2.0268,2.0462,2.1019,2.2623,2.3432,2.4979,2.803,2.8974,2.9953,3.1332,3.1482,3.1482,3.1482,3.1482,3.1482,3.1482,3.1482,3.1482,3.1482,3.1482,3.1482,3.1482,3.1482,3.1482,3.1539,3.2917,3.3582,3.3633,3.5005,3.5622,3.5622,3.5622,3.5622,3.5622,3.5622,3.5622,3.5622,3.5622,3.5622,3.5622,3.5622,3.5622,3.5622,3.5854,3.5941,3.5941,3.6165,3.6586,3.7117,3.772,3.8065,3.8063,3.7253,3.6248,3.5277,3.4658,3.4174,3.3807,3.3807,3.3807,3.3807,3.3807,3.3807,3.3807,3.3807,3.3807,3.3807,3.3807,3.3807,3.3807,3.3807,3.3807,3.3807,3.3807,3.3807,3.3807,3.3807,3.3844,3.3644,3.3091,3.3194,3.3047,3.2455,3.2429,3.2045,3.1218,3.1179,3.0948,3.0467,3.0506,3.0583,3.066,3.074,3.0823,3.0918,3.1445,3.168,1.9415,2.0525,2.1532,2.2004,2.1757,2.1284,2.0818,1.9135,1.7665,1.7574,1.6974,1.6912,1.8443,1.8913,1.9345,2.0252,2.0349,2.074,2.201,2.2638,2.4043,2.6961,2.7916,2.8989,3.0776,3.13,3.1482,3.1482,3.1482,3.1482,3.1482,3.1482,3.1482,3.1482,3.1482,3.1482,3.1482,3.1482,3.1482,3.1539,3.2917,3.3582,3.3633,3.5005,3.5622,3.5622,3.5622,3.5622,3.5622,3.5622,3.5622,3.5622,3.5622,3.5622,3.5622,3.5622,3.5622,3.5622,3.5622,3.5622,3.5622,3.5622,3.5985,3.6522,3.723,3.7578,3.7628,3.7335,3.6109,3.4878,3.4976,3.4412,3.3807,3.3807,3.3807,3.3807,3.3807,3.3807,3.3807,3.3807,3.3807,3.3807,3.3807,3.3807,3.3807,3.3807,3.3807,3.3807,3.3807,3.3807,3.3807,3.3807,3.3961,3.3995,3.3804,3.396,3.3843,3.332,3.3276,3.291,3.2083,3.2045,3.1814,3.1275,3.13,3.1339,3.1472,3.1478,3.1543,3.1641,3.2266,3.2695,1.8893,1.979,2.0721,2.0741,2.0737,2.0705,2.0704,1.9129,1.7785,1.8105,1.7441,1.735,1.916,1.9428,1.9869,2.1334,2.0878,2.1016,2.3001,2.3477,2.4357,2.6371,2.72,2.8126,2.9499,3.0776,3.1482,3.1482,3.1482,3.1482,3.1482,3.1482,3.1482,3.1482,3.1482,3.1482,3.1482,3.1482,3.1482,3.1539,3.2917,3.3582,3.3633,3.5005,3.5622,3.5622,3.5622,3.5622,3.5622,3.5622,3.5622,3.5622,3.5622,3.5622,3.5622,3.5622,3.5622,3.5622,3.5622,3.5622,3.5622,3.5622,3.5985,3.6374,3.6416,3.6803,3.7126,3.682,3.5872,3.5009,3.499,3.4412,3.3807,3.3807,3.3807,3.3807,3.3807,3.3807,3.3807,3.3807,3.3807,3.3807,3.3807,3.3807,3.3807,3.3807,3.3807,3.3807,3.3807,3.3807,3.3807,3.3807,3.3788,3.4037,3.4653,3.4694,3.4546,3.4224,3.418,3.3795,3.291,3.2891,3.2961,3.307,3.3145,3.32,3.3272,3.3349,3.3379,3.3379,3.3379,3.3848,1.8779,1.9767,2.0726,2.0695,2.0717,2.0584,2.0114,1.8826,1.7728,1.7894,1.7327,1.7419,1.9464,1.9815,2.0355,2.2085,2.1857,2.1744,2.2571,2.323,0.0,2.6351,2.8756,3.0423,3.0866,3.1228,3.1482,3.1482,3.1482,3.1482,3.1482,3.1482,3.1482,3.1482,3.1482,3.1482,3.1482,3.1482,3.1482,3.1524,3.2477,3.3145,3.3633,3.4496,3.5161,3.5622,3.5622,3.5622,3.5622,3.5622,3.5622,3.5622,3.5622,3.5622,3.5622,3.5622,3.5622,3.5622,3.5622,3.5622,3.5622,3.5622,3.5694,3.5854,3.5854,3.6207,3.6527,3.5934,3.5935,3.5842,3.4451,3.4158,3.3991,3.3122,3.3166,3.339,3.339,3.3606,3.3807,3.3807,3.3807,3.3807,3.3807,3.3807,3.3807,3.3807,3.3807,3.3807,3.3807,3.3807,3.385,3.4068,3.4074,3.4242,3.4653,3.4694,3.4812,3.5076,3.5084,3.4699,3.3814,3.3795,3.3596,3.3173,3.3184,3.3253,3.3376,3.3393,3.3711,3.4297,3.4297,3.4766,0.0,1.9365,2.0011,2.0272,2.0133,1.9829,1.944,1.8418,1.7606,1.7788,1.759,1.7935,1.9675,2.0264,2.0922,2.2327,2.2028,2.1843,2.2531,2.3007,2.4071,2.6314,2.9086,3.0791,3.0791,3.124,3.1482,3.1482,3.1482,3.1482,3.1482,3.1482,3.1482,3.1482,3.1482,3.1482,3.1482,3.1482,3.1482,3.1539,3.2272,3.2841,3.3235,3.3937,3.4592,3.5207,3.5207,3.5362,0.0,3.5622,3.5622,3.5622,3.5622,3.5622,3.5622,3.5622,3.5622,3.5622,3.5622,3.5622,3.5622,3.5622,3.5622,3.5622,3.5622,3.5968,3.6312,3.5844,3.603,3.613,3.4853,3.4316,3.3895,3.31,3.3055,3.3214,3.3214,3.3522,3.3807,3.3807,3.3807,3.3807,3.3807,3.3807,3.3807,3.3807,3.3807,3.3807,3.3807,3.3807,3.3902,3.4171,3.42,3.4379,3.4813,3.4851,3.5053,3.546,3.5493,3.5257,3.4718,3.468,3.4507,3.4103,3.4135,3.4203,3.4336,3.4375,3.4668,3.5195,3.5195,3.5488,0.0,1.8627,1.8791,1.9341,1.9093,1.8687,1.8605,1.7927,0.0,1.7708,1.8062,1.8671,1.9786,2.0594,2.1384,2.2231,2.1675,2.1604,2.2879,2.3078,2.4014,2.6489,2.8532,2.9729,2.9729,3.0821,3.1482,3.1482,3.1482,3.1482,3.1482,3.1482,3.1482,3.1482,3.1482,3.1482,3.1482,3.1482,3.1482,3.1539,3.216,3.2547,3.2641,3.3235,3.3887,3.4528,3.4576,3.4941,3.5515,3.5577,3.5622,3.5622,3.5622,3.5622,3.5622,3.5622,3.5622,3.5622,3.5622,3.5622,3.5622,3.5622,3.5622,3.5622,3.5622,3.5941,3.6333,3.6374,3.6182,3.5929,3.5876,3.4782,3.3706,3.3618,3.344,3.3316,3.3316,3.3603,3.3899,3.3899,3.3844,3.3807,3.3807,3.3807,3.3807,3.3807,3.3807,3.3807,3.3807,3.3807,3.3902,3.42,3.4242,3.447,3.5088,3.5105,3.5207,3.5493,3.5493,3.5493,3.5493,3.5493,3.5545,3.5603,3.5687,3.5786,3.5918,3.5976,3.5996,3.5996,3.5996,3.5996,1.694,0.0,1.816,1.756,1.81,1.8564,0.0,1.7654,1.763,0.0,0.0,0.0,1.971,2.0158,2.0922,2.283,2.2806,2.2833,2.3716,2.5333,2.7045,2.8697,3.0178,3.1076,3.1076,3.1287,3.1482,3.1482,3.1482,3.1482,3.1482,3.1482,3.1482,3.1482,3.1482,3.1482,3.1482,3.1482,3.1482,3.1482,3.1697,3.2064,3.2602,3.2734,3.3182,3.3887,3.4382,3.4688,3.4894,3.5362,3.5622,3.5622,3.5622,3.5622,3.5622,3.5622,3.5622,3.5622,3.5622,3.5622,3.5622,3.5622,3.5622,3.5622,3.5622,3.5694,3.5854,3.6291,3.6359,3.6145,3.5593,3.5174,3.464,3.3671,3.3942,3.4424,3.4424,3.4576,3.4715,3.4715,3.4229,3.3807,3.3807,3.3807,3.3807,3.3807,3.3807,3.3807,3.3807,3.3807,3.4005,3.4529,3.4572,3.4813,3.5369,3.5223,3.5207,3.5493,3.5493,3.5493,3.5493,3.5493,3.5545,3.5603,3.5761,3.5895,3.5976,3.5996,3.5996,3.5996,3.5996,3.5996,1.5983,1.7151,1.822,1.8012,1.8411,1.8718,1.8146,0.0,0.0,0.0,0.0,0.0,0.0,0.0,0.0,0.0,2.2926,2.296,2.4173,2.6477,2.8427,2.946,3.0731,3.1482,3.1482,3.1482,3.1482,3.1482,3.1482,3.1482,3.1482,3.1482,3.1482,3.1482,3.1482,3.1482,3.1482,3.1482,3.1482,3.1482,3.1482,3.1682,3.212,3.212,3.2477,3.3145,3.3531,3.3836,3.4186,3.4847,3.5144,3.5161,3.547,3.5622,3.5622,3.5622,3.5622,3.5622,3.5622,3.5622,3.5622,3.5622,3.5622,3.5622,3.5622,3.5622,3.565,3.5941,3.6011,3.5925,3.5557,3.5179,3.4819,3.4384,3.453,3.4871,3.5113,3.5411,3.5605,3.5605,3.5238,3.4945,3.4945,3.4614,3.4357,3.4357,3.4045,3.3807,3.3807,3.3902,3.4165,3.4653,3.4793,3.5053,3.546,3.5369,3.5354,3.5493,3.5493,3.5493,3.5493,3.5545,3.5622,3.5738,3.5842,3.5923,3.5996,3.5996,3.5996,3.5996,3.5996,3.5996,1.5381,1.6881,1.8594,1.9039,1.9114,1.9044,0.0,0.0,0.0,0.0,0.0,0.0,0.0,0.0,0.0,0.0,2.2773,2.2953,2.4685,2.7036,2.8854,2.9505,3.0731,3.1482,3.1482,3.1482,3.1482,3.1482,3.1482,3.1482,3.1482,3.1482,3.1482,3.1482,3.1482,3.1482,3.1482,3.1482,3.1482,3.1482,3.1482,3.1482,3.1482,3.1482,3.1853,3.2437,3.2547,3.2949,3.3495,3.4186,3.4528,3.4688,3.5207,3.5515,3.5622,3.5622,3.5622,3.5622,3.5622,3.5622,3.5622,3.5622,3.5622,3.5622,3.5622,3.5622,3.5622,3.5622,3.5622,3.5622,3.5622,3.5148,3.4771,3.5324,3.5335,3.5296,3.5825,3.6219,3.6468,3.6468,3.6376,3.6303,3.6303,3.5697,3.5137,3.5009,3.4431,3.3935,3.3825,3.4043,3.4334,3.4674,3.4944,3.5207,3.5479,3.5493,3.5493,3.5493,3.5493,3.5493,3.5526,3.5584,3.5699,3.5892,3.5892,3.5921,3.5996,3.5996,3.5996,3.5996,3.5996,3.5996,1.5651,1.7226,1.8713,1.8253,1.8989,1.9772,0.0,0.0,0.0,0.0,0.0,0.0,0.0,2.172,2.2378,0.0,2.3417,2.4524,2.6071,2.7625,2.8822,2.9529,3.0731,3.1482,3.1482,3.1482,3.1482,3.1482,3.1482,3.1482,3.1482,3.1482,3.1482,3.1482,3.1482,3.1482,3.1482,3.1482,3.1482,3.1482,3.1482,3.1482,3.1482,3.1482,3.1582,3.1682,3.2327,3.2641,3.2788,3.3495,3.4087,3.4624,3.4736,3.5098,3.5622,3.5622,3.5622,3.5622,3.5622,3.5622,3.5622,3.5622,3.5622,3.5622,3.5622,3.5622,3.5622,3.5622,3.5622,3.5622,3.5622,3.5537,3.5569,3.6077,3.6523,3.6967,3.743,3.7439,3.7312,3.7312,3.6762,3.6303,3.6303,3.6193,3.5862,3.51,3.488,3.4578,3.3899,3.4043,3.4334,3.4674,3.4944,3.5207,3.5479,3.5493,3.5493,3.5493,3.5493,3.5545,3.5584,3.5603,3.5699,3.5892,3.5892,3.5921,3.5996,3.5996,3.5996,3.5996,3.5996,3.5996,1.5085,1.6998,1.8896,1.878,1.9524,2.0229,2.0084,0.0,0.0,0.0,0.0,0.0,0.0,0.0,2.3143,2.3829,2.508,2.6138,2.6539,2.7765,2.8828,2.9514,3.0402,3.112,3.1437,3.1482,3.1482,3.1482,3.1482,3.1482,3.1482,3.1482,3.1482,3.1482,3.1482,3.1482,3.1482,3.1482,3.1482,3.1482,3.1482,3.1482,3.1482,3.1482,3.1482,3.1524,3.1853,3.2007,3.2064,3.2788,3.3443,3.4087,3.4479,3.5005,3.5622,3.5622,3.5622,3.5622,3.5622,3.5622,3.5622,3.5622,3.5622,3.5622,3.5622,3.5622,3.5622,3.5622,3.5622,3.5622,3.5622,3.5827,3.6182,3.6684,3.721,3.7738,3.8216,3.8253,3.8138,3.8138,3.7845,3.7606,3.7606,3.7239,3.6798,3.6413,3.5587,3.4862,3.4504,3.4468,3.4529,3.4674,3.507,3.5369,3.5493,3.5493,3.5493,3.5493,3.5493,3.5545,3.5603,3.5604,3.5646,3.5786,3.5786,3.5846,3.5957,3.5957,3.5957,3.5996,3.5996,3.5996,1.4981,1.682,1.8675,1.94,0.0,2.0967,2.1138,0.0,0.0,0.0,0.0,0.0,0.0,2.2982,2.4166,2.5229,2.6429,2.714,2.6891,2.7876,2.8767,2.9304,2.9909,3.0552,3.1225,3.13,3.1302,3.1467,3.1482,3.1482,3.1482,3.1482,3.1482,3.1482,3.1482,3.1482,3.1482,3.1482,3.1482,3.1482,3.1482,3.1482,3.1482,3.1482,3.1482,3.1482,3.1482,3.1482,3.1582,3.2272,3.3002,3.3684,3.4333,3.5005,3.5622,3.5622,3.5622,3.5622,3.5622,3.5622,3.5622,3.5622,3.5622,3.5622,3.5622,3.5622,3.5622,3.5622,3.5622,3.5622,3.5739,3.6097,3.6563,3.721,3.7649,3.8065,3.8578,3.8707,3.8707,3.8707,3.8707,3.8707,3.8707,3.8193,3.7716,3.7544,3.6413,3.5532,3.5349,3.5277,3.526,3.526,3.5763,3.6103,3.6103,3.5911,3.5795,3.5795,3.5603,3.5545,3.5603,3.5612,3.5621,3.5693,3.5693,3.5749,3.5848,3.5876,3.5937,3.5976,3.5996,3.5996,1.636,1.6969,1.7735,1.9447,0.0,0.0,2.303,2.317,0.0,0.0,0.0,0.0,0.0,2.4659,2.5269,2.615,2.6488,2.684,2.7434,2.8142,2.8601,2.8689,2.925,2.9894,3.0507,3.0567,3.0851,3.1422,3.1482,3.1482,3.1482,3.1482,3.1482,3.1482,3.1482,3.1482,3.1482,3.1482,3.1482,3.1482,3.1482,3.1482,3.1482,3.1482,3.1482,3.1482,3.1482,3.1482,3.1582,3.2272,3.3002,3.3684,3.4333,3.5005,3.5622,3.5622,3.5622,3.5622,3.5622,3.5622,3.5622,3.5622,3.5622,3.5622,3.5622,3.5622,3.5622,3.5622,3.5622,3.5694,3.6224,3.6374,3.6643,3.7614,3.7877,3.8065,3.8578,3.8707,3.8707,3.8707,3.8707,3.8707,3.8707,3.8652,3.8358,3.7606,3.7386,3.7037,3.6303,3.6646,3.692,3.692,3.7464,3.7815,3.7815,3.7084,3.6622,3.6622,3.5911,3.5545,3.5603,3.5597,3.563,3.5701,3.5701,3.5695,3.5721,3.5849,3.5898,3.5918,3.5976,3.5996,1.5941,1.699,1.7914,1.9294,0.0,0.0,0.0,0.0,0.0,0.0,2.5167,0.0,0.0,0.0,2.5488,2.6283,2.684,2.7294,2.7545,2.7795,2.8147,2.8532,2.9175,2.9819,3.0447,3.0896,3.1255,3.1452,3.1482,3.1482,3.1482,3.1482,3.1482,3.1482,3.1482,3.1482,3.1482,3.1482,3.1482,3.1482,3.1482,3.1482,3.1482,3.1482,3.1482,3.1539,3.1951,3.216,3.2216,3.2933,3.3633,3.4284,3.4958,3.5362,3.5622,3.5622,3.5622,3.5622,3.5622,3.5622,3.5622,3.5622,3.5622,3.5622,3.5622,3.5622,3.5622,3.5622,3.5622,3.5739,3.6266,3.6643,3.7058,3.7755,3.8132,3.8465,3.8676,3.8707,3.8707,3.8707,3.8707,3.8707,3.8707,3.8707,3.8597,3.8285,3.7808,3.7397,3.7074,3.7094,3.709,3.709,3.7636,3.8007,3.8007,3.7199,3.693,3.7469,3.6238,3.5526,3.5545,3.5545,3.5565,3.5584,3.5584,3.5603,3.5641,3.5688,3.5786,3.5898,3.5937,3.5957,1.6238,1.7416,1.8427,0.0,0.0,0.0,0.0,0.0,0.0,2.5883,2.6199,0.0,2.6122,0.0,2.5817,2.6382,2.7075,2.7625,2.7625,2.7625,2.779,2.8218,2.8667,2.919,2.9834,3.0522,3.1001,3.1195,3.1347,3.1482,3.1482,3.133,3.121,3.121,3.121,3.121,3.121,3.1362,3.1482,3.1482,3.1482,3.1482,3.1482,3.1482,3.1482,3.1524,3.2272,3.2586,3.2641,3.3531,3.4284,3.4941,3.5407,3.5622,3.5622,3.5622,3.5622,3.5622,3.5622,3.5622,3.5622,3.5622,3.5622,3.5622,3.5622,3.5622,3.5622,3.5622,3.5622,3.5783,3.6457,3.6803,3.7135,3.7964,3.83,3.8496,3.8658,3.8707,3.8707,3.8707,3.8707,3.8707,3.8707,3.8707,3.8707,3.8707,3.823,3.7863,3.7863,3.7795,3.7796,3.8012,3.8491,3.8796,3.8796,3.8007,3.7777,3.8373,3.7084,3.618,3.5892,3.5641,3.5493,3.5493,3.5493,3.5526,3.5584,3.5603,3.5678,3.5806,3.5873,3.5918,1.7595,1.8342,0.0,0.0,0.0,0.0,0.0,0.0,0.0,2.7368,2.7444,2.6953,2.6486,2.642,2.644,2.6599,2.717,2.7625,2.7625,2.7625,2.7625,2.7625,2.7625,2.7844,2.8532,2.9205,2.9849,3.0447,3.115,3.1467,3.1452,3.0866,3.0507,3.0492,3.0492,3.0492,3.0507,3.118,3.1467,3.1482,3.1482,3.1482,3.1482,3.1482,3.1482,3.1524,3.2272,3.2602,3.2695,3.4037,3.4988,3.5622,3.5622,3.5622,3.5622,3.5622,3.5622,3.5622,3.5622,3.5622,3.5622,3.5622,3.5622,3.5622,3.5622,3.5622,3.5622,3.5622,3.5622,3.5854,3.6904,3.6803,3.6803,3.8318,3.83,3.8047,3.8596,3.8707,3.8707,3.8707,3.8707,3.8707,3.8707,3.8707,3.8707,3.8707,3.8707,3.8707,3.8707,3.8933,3.9364,4.0022,4.0339,4.0489,4.0489,3.9758,3.9296,3.9296,3.8488,3.7603,3.6738,3.593,3.5526,3.5493,3.5493,3.5493,3.5493,3.5584,3.5603,3.5617,3.5802,3.5898,1.6837,0.0,0.0,0.0,0.0,0.0,0.0,0.0,0.0,0.0,2.8351,2.7814,2.728,2.6842,2.6538,2.6583,2.717,2.7625,2.7625,2.7625,2.7625,2.7625,2.7993,2.8368,2.8577,2.9594,3.0118,2.9879,3.0896,3.1135,3.0208,3.0372,3.0313,2.9864,2.9864,3.0058,3.0507,3.0717,3.1046,3.1482,3.1482,3.1482,3.1482,3.1482,3.1482,3.1582,3.2772,3.3287,3.3391,3.4752,3.5407,3.5622,3.5622,3.5622,3.5622,3.5622,3.5622,3.5622,3.5622,3.5622,3.5622,3.5622,3.5622,3.5622,3.5622,3.5622,3.5622,3.5622,3.5854,3.6333,3.702,3.7058,3.7266,3.8433,3.8578,3.8515,3.8676,3.8707,3.8707,3.8707,3.8707,3.8707,3.8707,3.8707,3.8707,3.8707,3.8707,3.8862,3.9294,3.9408,3.9694,4.0302,4.0457,4.0489,4.0489,3.9758,3.9527,4.0104,3.8796,3.7603,3.6738,3.6469,3.6084,3.5512,3.5493,3.5493,3.5493,3.5526,3.5584,3.5661,3.5723,3.5846,1.7281,0.0,0.0,0.0,0.0,0.0,2.4562,0.0,0.0,0.0,2.8629,2.824,2.7674,2.7025,2.6686,2.6935,2.7324,2.7625,2.7625,2.7625,2.7625,2.7625,2.7934,2.8188,2.8188,2.9131,2.9594,2.922,3.0163,3.0417,2.9624,2.9684,2.9579,2.9205,2.919,2.937,2.9744,3.0253,3.0597,3.0761,3.1285,3.139,3.1135,3.1347,3.1482,3.1582,3.2971,3.3887,3.4447,3.527,3.5622,3.5622,3.5622,3.5622,3.5622,3.5622,3.5622,3.5622,3.5622,3.5622,3.5622,3.5622,3.5622,3.5622,3.5622,3.5622,3.565,3.5854,3.6139,3.658,3.7285,3.747,3.7703,3.8515,3.8546,3.8433,3.8658,3.8707,3.8707,3.8707,3.8707,3.8707,3.8707,3.8707,3.8707,3.8707,3.8707,3.8833,3.9208,3.9432,3.9735,4.0101,4.0353,4.0489,4.0489,4.0046,3.9969,4.0469,3.9546,3.8604,3.7777,3.7065,3.6469,3.5988,3.5661,3.5493,3.5493,3.5493,3.5545,3.5622,3.6033,3.6281,1.834,0.0,0.0,0.0,0.0,0.0,2.5848,2.7524,2.8636,2.83,2.8304,2.8253,2.7685,2.7075,2.6905,2.7515,2.7625,2.7625,2.7625,2.7625,2.7625,2.7625,2.7625,2.7625,2.7625,2.8203,2.8577,2.8502,2.9175,2.9535,2.94,2.8891,2.8562,2.8502,2.8502,2.8532,2.8607,2.9759,3.0073,2.9594,3.0851,3.1106,3.0522,3.121,3.1582,3.1796,3.313,3.4399,3.5622,3.5622,3.5622,3.5622,3.5622,3.5622,3.5622,3.5622,3.5622,3.5622,3.5622,3.5622,3.5622,3.5622,3.5622,3.5622,3.5622,3.5622,3.5694,3.6266,3.6416,3.6684,3.7649,3.7946,3.8099,3.8578,3.8332,3.8099,3.8578,3.8707,3.8707,3.8707,3.8707,3.8707,3.8707,3.8707,3.8707,3.8707,3.8707,3.8719,3.8762,3.9268,3.9622,3.969,4.0175,4.0489,4.0489,4.0489,4.0489,4.0489,4.0489,4.0162,3.9431,3.7815,3.6873,3.6699,3.5988,3.557,3.5493,3.5493,3.5532,3.5641,3.6561,3.7046,0.0,1.8692,0.0,0.0,0.0,2.385,2.5319,2.6294,2.7051,2.7541,2.8117,2.8283,2.7685,2.75,2.7419,2.756,2.7625,2.7625,2.7625,2.7625,2.7625,2.7625,2.7625,2.7625,2.7625,2.8203,2.8368,2.7829,2.8906,2.9116,2.8105,2.8382,2.8353,2.7814,2.785,2.8053,2.8592,2.8876,2.9205,2.9594,3.0357,3.0657,3.0522,3.121,3.2089,3.3166,3.4021,3.4847,3.5622,3.5622,3.5622,3.5622,3.5622,3.5622,3.5622,3.5622,3.5622,3.5622,3.5622,3.5622,3.5622,3.5622,3.5622,3.5622,3.5622,3.5622,3.5694,3.6266,3.6684,3.7173,3.7755,3.8216,3.8546,3.8658,3.8627,3.8546,3.8676,3.8707,3.8707,3.8707,3.8707,3.8707,3.8707,3.8707,3.8707,3.8707,3.8707,3.8892,3.9352,3.9529,3.9778,4.0266,4.0422,4.0489,4.0489,4.0489,4.0489,4.0489,4.0489,4.0412,4.0239,3.9277,3.8104,3.6738,3.6526,3.6142,3.5493,3.5493,3.5878,3.6589,3.6826,3.7344,0.0,0.0,0.0,0.0,0.0,2.3982,2.4799,2.5444,2.5913,2.6103,2.7134,2.7861,2.725,2.739,2.7625,2.7625,2.7625,2.7625,2.7625,2.7625,2.7625,2.7625,2.7625,2.7625,2.7625,2.7904,2.7964,2.7655,2.8269,2.8323,2.7655,2.7919,2.7934,2.7625,2.7625,2.779,2.8113,2.8442,2.8607,2.8637,2.9594,3.0223,3.0522,3.1535,3.2625,3.3633,3.4333,3.4988,3.5622,3.5622,3.5622,3.5622,3.5622,3.5622,3.5622,3.5622,3.5622,3.5622,3.5622,3.5622,3.5622,3.5622,3.5622,3.5622,3.5622,3.5783,3.6028,3.615,3.6834,3.747,3.7207,3.7637,3.812,3.812,3.8414,3.8707,3.8707,3.8707,3.8707,3.8707,3.8707,3.8707,3.8707,3.8707,3.8707,3.8707,3.8707,3.8822,3.9127,3.9408,3.9735,4.0043,4.0336,4.0489,4.0489,4.0489,4.0489,4.0489,4.0489,4.0489,4.0489,4.0085,3.9258,3.7969,3.7142,3.6488,3.6084,3.5699,3.5935,3.682,3.73,3.8013,0.0,0.0,0.0,2.2867,2.3691,0.0,2.4224,2.4684,2.4973,2.4541,2.5893,2.7021,2.6692,2.7045,2.75,2.756,2.7625,2.7625,2.7625,2.7625,2.7625,2.7625,2.7625,2.7625,2.7625,2.7625,2.7625,2.7625,2.7625,2.7625,2.7625,2.7625,2.7625,2.7625,2.7625,2.766,2.776,2.818,2.818,2.7775,2.8869,2.9744,3.0413,3.1751,3.2872,3.3633,3.4333,3.4988,3.5622,3.5622,3.5622,3.5622,3.5622,3.5622,3.5622,3.5622,3.5622,3.5622,3.5622,3.5622,3.5622,3.5622,3.5622,3.5622,3.5622,3.5882,3.6186,3.6136,3.6774,3.7326,3.6662,3.689,3.7342,3.7489,3.801,3.8524,3.867,3.8707,3.8707,3.8707,3.8707,3.8707,3.8707,3.8707,3.8707,3.8707,3.8707,3.8719,3.8762,3.9197,3.9552,3.9599,4.0043,4.0353,4.0441,4.0441,4.0457,4.0489,4.0489,4.0489,4.0489,4.0489,4.0181,3.9508,3.795,3.7065,3.693,3.6257,3.6353,3.718,3.8007,3.8834,0.0,0.0,2.0189,0.0,2.2692,2.3036,0.0,0.0,2.3816,2.3728,2.4861,2.5986,2.652,2.6672,2.692,2.7515,2.7625,2.7625,2.7625,2.7625,2.7625,2.7625,2.7625,2.7625,2.7625,2.7625,2.7625,2.7625,2.7625,2.7625,2.7625,2.7625,2.7625,2.7625,2.7625,2.786,2.8367,2.7951,2.7951,2.8383,2.8595,2.9071,2.9753,3.1049,3.238,3.3633,3.4333,3.4988,3.5622,3.5622,3.5622,3.5622,3.5622,3.5622,3.5622,3.5622,3.5622,3.5622,3.5622,3.5622,3.5622,3.5622,3.5622,3.5622,3.5622,3.548,3.5573,3.6703,3.6434,3.6045,3.7094,3.689,3.6633,3.7342,3.7599,3.7845,3.856,3.8707,3.8707,3.8707,3.8707,3.8707,3.8707,3.8707,3.8707,3.8707,3.8707,3.8773,3.9027,3.9125,3.9264,3.9576,3.9668,3.984,4.0139,4.0158,4.025,4.0489,4.0489,4.0489,4.0489,4.0489,4.045,4.0335,3.9431,3.8584,3.7834,3.7719,3.8104,3.895,3.9084,3.9642,1.665,1.829,1.9882,0.0,2.1934,2.2294,2.2964,2.3374,2.3595,2.3595,2.4053,2.4699,2.5386,2.6079,2.6723,2.6985,2.7375,2.7625,2.7625,2.7625,2.7625,2.7625,2.7625,2.7625,2.7625,2.7625,2.7625,2.7625,2.7625,2.7625,2.7625,2.7625,2.7625,2.7625,2.7625,2.771,2.7993,2.8042,2.8415,2.9012,2.9045,2.9415,3.0068,3.0624,3.1662,3.3074,3.3664,3.4309,3.4979,3.4979,3.4979,3.503,3.5453,3.5622,3.5622,3.5622,3.5622,3.5622,3.5622,3.5622,3.5622,3.5622,3.581,3.5985,3.5514,3.6011,3.6646,3.6345,3.6739,3.7215,3.6916,3.689,3.7055,3.7434,3.7507,3.7716,3.8524,3.8707,3.8707,3.8707,3.8707,3.8707,3.8707,3.8707,3.8707,3.8707,3.8707,3.8732,3.8855,3.9027,3.9178,3.9289,3.9505,3.9645,3.9797,3.9819,3.9963,4.025,4.0286,4.0339,4.0489,4.0489,4.0489,4.0489,3.97,3.9104,3.8719,3.8238,3.8469,3.935,3.935,3.985,0.0,0.0,1.9,2.0533,2.1156,2.1677,0.0,2.3066,2.3404,2.358,2.3595,2.3759,2.4268,2.5315,2.6165,2.6342,2.6922,2.732,2.732,2.7505,2.7625,2.7625,2.7625,2.7625,2.7625,2.7625,2.7625,2.7625,2.7625,2.7625,2.7625,2.7625,2.7625,2.7625,2.776,2.7894,2.8091,2.8638,2.9088,2.9406,2.9406,2.9678,3.0144,3.0328,3.1096,3.232,3.2901,3.3566,3.4218,3.4218,3.432,3.4539,3.5115,3.5453,3.5622,3.5622,3.5622,3.5622,3.5622,3.5504,3.5368,3.5554,3.5848,3.6052,3.5648,3.6478,3.7406,3.6381,3.7048,3.7863,3.6853,3.689,3.7239,3.747,3.7507,3.7716,3.8524,3.8707,3.8707,3.8707,3.8707,3.8707,3.8707,3.8707,3.8707,3.8707,3.8707,3.8707,3.8707,3.8884,3.8999,3.8999,3.9223,3.9402,3.9481,3.9462,3.9645,4.0081,4.0101,4.0213,4.0489,4.0489,4.0489,4.0489,3.9912,3.9604,3.9604,3.8988,3.9061,3.973,3.9739,4.0127,0.0,1.6149,0.0,1.9256,2.0282,2.1084,2.2416,2.2701,2.2891,2.3492,2.3595,2.361,2.3655,2.4238,2.4896,2.5538,2.6213,2.6632,2.6632,2.7186,2.7625,2.7625,2.7625,2.7625,2.7625,2.7625,2.7625,2.7625,2.7625,2.7625,2.7625,2.7625,2.7625,2.7625,2.814,2.8732,2.9316,2.9892,2.9935,2.9406,2.9406,2.9422,2.9454,3.0044,3.0711,3.1495,3.2171,3.2813,3.3457,3.3457,3.388,3.4489,3.4539,3.4979,3.5622,3.5622,3.5622,3.5622,3.5622,3.5148,3.4675,3.5385,3.5489,3.5503,3.6156,3.6549,3.6904,3.7587,3.7103,3.6578,3.7239,3.689,3.6541,3.7312,3.7507,3.7716,3.8524,3.8707,3.8707,3.8707,3.8707,3.8707,3.8707,3.8707,3.8707,3.8707,3.8707,3.8707,3.8707,3.8689,3.8719,3.8719,3.875,3.8844,3.9099,3.9125,3.9389,4.0061,4.0101,4.0213,4.0489,4.0489,4.0489,4.0489,4.045,4.0431,4.0431,4.0523,4.0581,4.062,4.0692,4.0746,0.0,0.0,0.0,1.8177,1.9241,2.0285,2.122,2.1754,2.2233,2.2903,2.3046,2.3131,2.3535,2.4163,2.4657,2.4896,2.554,2.6108,2.6527,2.6797,2.7096,2.7565,2.7625,2.7625,2.7625,2.7625,2.7625,2.7625,2.7625,2.7625,2.7625,2.7625,2.776,2.8189,2.8367,2.8966,2.9995,3.0208,3.0393,3.0576,3.0576,3.0576,3.0559,3.0797,3.1012,3.1281,3.1508,3.2017,3.2679,3.2679,3.3119,3.3846,3.432,3.4962,3.5622,3.5622,3.5318,3.4895,3.4895,3.4404,3.3956,3.5052,3.5543,3.5854,3.6414,3.7248,3.7958,3.7721,3.7723,3.7918,3.8193,3.8065,3.7918,3.8193,3.8267,3.834,3.8634,3.8707,3.8707,3.8707,3.8707,3.8707,3.8707,3.8707,3.8707,3.8707,3.8707,3.8707,3.8707,3.8707,3.8707,3.8707,3.8707,3.875,3.8844,3.8999,3.9289,3.9754,3.9982,4.0213,4.0489,4.0489,4.0489,4.0489,4.0489,4.0489,4.0489,4.0639,4.0717,4.077,4.0873,4.0975,1.4486,0.0,0.0,0.0,1.8179,1.9161,2.04,2.085,2.1341,2.2471,2.2688,2.2862,2.349,2.3969,2.4283,2.4283,2.4852,2.5435,2.5869,2.6318,2.6752,2.7186,2.749,2.7625,2.7625,2.776,2.791,2.791,2.8076,2.8207,2.8207,2.8207,2.8496,2.9088,2.9088,2.9585,3.0601,3.0601,3.0781,3.119,3.119,3.119,3.119,3.119,3.119,3.119,3.119,3.1461,3.1918,3.1918,3.2357,3.3068,3.3558,3.4201,3.4878,3.4878,3.4556,3.4134,3.4134,3.3643,3.327,3.48,3.5437,3.5812,3.6802,3.7849,3.8597,3.8046,3.8285,3.8707,3.8707,3.8707,3.8707,3.8707,3.8707,3.8707,3.8707,3.8707,3.8707,3.8707,3.8707,3.8707,3.8707,3.8707,3.8707,3.8707,3.8707,3.8707,3.8707,3.8707,3.8707,3.8707,3.8707,3.8707,3.8707,3.8933,3.9238,3.9576,3.9922,4.0213,4.0489,4.0543,4.0427,4.0085,4.0408,4.0408,4.0085,4.0504,4.0726,4.0793,4.0937,4.1059,0.0,0.0,0.0,0.0,1.7087,1.7712,2.011,2.0146,2.0205,2.2244,2.263,2.2787,2.3445,2.3565,2.358,2.3595,2.4163,2.4567,2.4582,2.5734,2.6542,2.6557,2.719,2.7595,2.7595,2.8174,2.8511,2.8511,2.9058,2.9406,2.9406,2.9406,2.9673,3.0293,3.0309,3.0617,3.119,3.119,3.119,3.119,3.119,3.119,3.119,3.119,3.119,3.119,3.119,3.119,3.119,3.119,3.1613,3.2313,3.2313,3.2747,3.3406,3.3406,3.3389,3.3372,3.3372,3.2882,3.2598,3.4599,3.5089,3.526,3.7268,3.8281,3.8707,3.8707,3.8707,3.8707,3.8707,3.8707,3.8707,3.8707,3.8707,3.8707,3.8707,3.8707,3.8707,3.8707,3.8707,3.8707,3.8707,3.8707,3.8707,3.8707,3.8707,3.8707,3.8707,3.8707,3.8707,3.8707,3.8707,3.8707,3.8689,3.8961,3.9264,3.9599,3.9922,4.0232,4.0489,4.0639,4.0254,3.9311,4.0215,4.0235,3.9296,4.0254,4.0726,4.0793,4.094,4.1074,1.4286,0.0,0.0,0.0,0.0,0.0,1.9241,1.8927,1.8802,2.0833,2.0872,2.1006,2.2637,2.2936,2.3071,2.3535,2.3759,2.4059,2.4507,2.4896,2.5345,2.5824,2.6853,2.7518,2.7518,2.8513,2.9134,2.9134,2.9316,2.9406,2.9406,2.9805,3.0123,3.0293,3.0699,3.1015,3.119,3.119,3.119,3.119,3.119,3.119,3.119,3.119,3.119,3.119,3.119,3.119,3.119,3.119,3.1613,3.2313,3.2313,3.2747,3.3406,3.3406,3.3068,3.2594,3.2594,3.2104,3.1788,3.3577,3.45,3.5241,3.7067,3.812,3.8707,3.8707,3.8707,3.8707,3.8707,3.8707,3.8707,3.8707,3.8707,3.8707,3.8707,3.8707,3.8707,3.8707,3.8707,3.8707,3.8707,3.8707,3.8707,3.8707,3.8707,3.8707,3.8707,3.8707,3.8707,3.8707,3.8707,3.8792,3.8971,3.9282,3.9599,3.9943,4.0232,4.0479,4.0639,4.0677,4.0284,3.9387,4.0254,4.0231,3.9296,4.0254,4.0737,4.081,4.1051,4.1152,1.5232,1.6069,1.7198,1.6975,0.0,0.0,1.8677,1.8313,1.8254,2.0303,2.0394,2.0557,2.2019,2.2263,2.2473,2.3116,2.3206,2.3445,2.4103,2.4403,2.4731,2.5151,2.6076,2.678,2.7039,2.7936,2.8613,2.8844,2.9098,2.937,2.9665,3.0029,3.0342,3.0658,3.1015,3.119,3.119,3.119,3.119,3.119,3.119,3.119,3.119,3.119,3.119,3.119,3.119,3.119,3.119,3.119,3.1444,3.1833,3.1833,3.2087,3.2476,3.2476,3.2205,3.1833,3.1833,3.1686,3.1703,3.3196,3.414,3.4975,3.651,3.7551,3.8193,3.8193,3.8432,3.8707,3.8707,3.8707,3.8707,3.8707,3.8707,3.8627,3.8415,3.8382,3.8433,3.8676,3.8707,3.8707,3.8707,3.8707,3.8707,3.8707,3.8707,3.8707,3.8707,3.8707,3.8707,3.8707,3.8707,3.8803,3.9072,3.9408,3.9735,4.0081,4.0394,4.045,4.0181,4.0215,3.9637,3.8384,3.9548,4.0038,3.9796,4.035,4.0675,4.0815,4.1074,4.1191,1.6615,1.6879,1.7423,1.7309,1.6809,0.0,1.8287,1.81,1.8129,2.007,2.0439,2.0643,2.1434,2.159,2.1799,2.2499,2.2664,2.2892,2.3505,2.4118,2.4507,2.4552,2.5213,2.588,2.6445,2.7079,2.7681,2.8135,2.8699,2.9279,2.9939,2.9989,3.0328,3.1055,3.0987,3.1021,3.119,3.1123,3.1123,3.119,3.119,3.119,3.119,3.119,3.119,3.119,3.119,3.119,3.119,3.119,3.119,3.119,3.119,3.119,3.119,3.119,3.119,3.119,3.119,3.147,3.2001,3.3194,3.3949,3.4612,3.5802,3.6707,3.7349,3.7349,3.7881,3.8432,3.8432,3.8432,3.8432,3.8432,3.8475,3.8368,3.7938,3.7873,3.8065,3.8596,3.8658,3.8627,3.8707,3.8707,3.8707,3.8707,3.8707,3.8707,3.8707,3.8707,3.8689,3.8732,3.8732,3.8855,3.9178,3.9486,3.9797,4.012,4.0488,4.0312,3.9441,3.9533,3.8749,3.6948,3.8446,3.9657,4.0489,4.0508,4.063,4.0801,4.1058,4.1191,1.802,1.8395,1.8876,1.8551,1.8136,0.0,1.8213,1.7558,1.7327,1.8779,1.8654,1.8822,2.0565,2.0917,2.1111,2.1784,2.2338,2.2892,2.3505,2.3714,2.3963,2.4399,2.5446,2.6365,2.6916,2.8014,2.872,2.8811,2.8938,2.9042,2.9194,2.9194,2.955,3.0294,2.9736,2.9989,3.119,3.0615,3.0615,3.119,3.119,3.119,3.119,3.119,3.119,3.119,3.119,3.119,3.119,3.119,3.119,3.119,3.119,3.119,3.119,3.119,3.119,3.119,3.119,3.147,3.1914,3.2508,3.347,3.4503,3.5089,3.5862,3.6523,3.6523,3.6652,3.6762,3.6762,3.6762,3.6762,3.6762,3.6929,3.7189,3.7528,3.7762,3.8065,3.8596,3.835,3.8183,3.8627,3.8707,3.8707,3.8707,3.8707,3.8707,3.8707,3.8707,3.8773,3.8999,3.9008,3.9257,3.984,3.9963,4.012,4.0406,4.0588,4.0304,3.9437,3.9534,3.8739,3.6948,3.7786,3.9008,4.0489,4.062,4.0707,4.0801,4.096,4.1094,1.8849,1.9029,1.9227,1.8829,1.8594,0.0,0.0,1.8072,1.7987,1.8993,1.8673,1.8654,2.0203,2.0059,2.0107,2.128,2.1611,2.1919,2.2562,2.3191,2.3794,2.4348,2.497,2.5671,2.6484,2.7125,2.7612,2.7841,2.7841,2.7994,2.8383,2.8399,2.8755,2.9533,2.9178,2.9347,3.0091,3.0108,3.0294,3.0666,3.1021,3.119,3.119,3.119,3.119,3.119,3.119,3.119,3.119,3.119,3.119,3.119,3.119,3.119,3.119,3.119,3.119,3.123,3.1449,3.177,3.223,3.2713,3.3406,3.4124,3.4339,3.5,3.5752,3.6174,3.6303,3.6303,3.6303,3.6303,3.6256,3.5994,3.6224,3.6562,3.6714,3.7027,3.751,3.8176,3.8099,3.8065,3.8627,3.8707,3.8707,3.8707,3.8707,3.8707,3.8707,3.8833,3.8961,3.9099,3.9238,3.9552,4.0061,4.0101,4.0252,4.0585,4.0315,3.976,3.889,3.8491,3.8017,3.7464,3.8253,3.9258,4.0489,4.0581,4.067,4.0792,4.0941,4.1074,1.9521,1.9406,1.9336,1.884,1.8731,1.8716,0.0,0.0,0.0,1.9381,1.9091,1.9007,2.0005,1.947,1.9366,2.0753,2.0849,2.094,2.1527,2.2611,2.3542,2.4082,2.4225,2.47,2.5818,2.5976,2.6234,2.6774,2.6737,2.7026,2.7776,2.776,2.8083,2.8864,2.8691,2.8687,2.9011,2.9583,2.9973,3.0125,3.0852,3.119,3.119,3.119,3.119,3.119,3.119,3.119,3.119,3.119,3.1269,3.1329,3.123,3.119,3.119,3.1291,3.1329,3.1406,3.1806,3.223,3.2681,3.3075,3.3465,3.3807,3.3807,3.4266,3.4926,3.5624,3.5826,3.5826,3.5826,3.5826,3.5732,3.5333,3.5599,3.5909,3.5823,3.6285,3.6919,3.767,3.7957,3.8183,3.8627,3.8707,3.8707,3.8707,3.8732,3.8792,3.8792,3.9027,3.9212,3.9308,3.9534,3.9819,4.0158,4.0177,4.0325,4.0642,3.9976,3.9244,3.8522,3.767,3.7522,3.8238,3.8777,3.9527,4.0489,4.0335,4.0446,4.0789,4.0908,4.1052,2.0317,2.0233,2.0047,1.9112,1.8873,1.8731,1.8144,0.0,1.8162,1.872,0.0,1.8939,1.9636,0.0,0.0,1.9837,2.034,2.0858,2.1265,2.1978,2.2661,2.3199,2.3557,2.4264,2.5512,2.5917,2.6409,2.7172,2.6889,2.7056,2.7842,2.7548,2.7693,2.842,2.7487,2.7604,2.9011,2.9059,2.9448,3.0125,3.0852,3.119,3.119,3.119,3.119,3.119,3.119,3.119,3.119,3.119,3.1411,3.1696,3.1351,3.119,3.1252,3.1603,3.175,3.1894,3.2282,3.2713,3.3154,3.3184,3.3465,3.3807,3.3807,3.3862,3.3954,3.4064,3.4082,3.4082,3.4082,3.4082,3.4082,3.4009,3.4284,3.463,3.5038,3.5937,3.6874,3.7449,3.8132,3.8627,3.8707,3.8707,3.8707,3.8707,3.8894,3.9044,3.9044,3.9358,3.9645,3.9943,4.0022,4.0139,4.0422,4.0457,4.0473,4.0508,3.983,3.9352,3.9196,3.8354,3.8277,3.9142,3.8488,3.8911,4.0489,3.9777,3.9908,4.0808,4.082,4.0964,1.9626,1.9744,1.9738,1.8719,1.8655,1.8754,1.8158,1.8252,1.8556,1.876,0.0,0.0,0.0,0.0,0.0,0.0,2.0279,2.036,2.0119,2.0761,2.1794,2.3271,2.3587,2.4098,2.5159,2.5548,2.5897,2.624,2.6089,2.6356,2.7161,2.7028,2.7321,2.8092,2.7644,2.7584,2.8029,2.8442,2.892,2.9465,3.0209,3.0784,3.119,3.119,3.119,3.123,3.1449,3.1545,3.1565,3.1842,3.2039,3.2213,3.2021,3.195,3.1986,3.2144,3.2213,3.2299,3.2745,3.3045,3.3243,3.3465,3.368,3.3807,3.3807,3.3807,3.3807,3.3807,3.3807,3.3807,3.3807,3.3807,3.3734,3.3522,3.3749,3.4131,3.4575,3.5193,3.6079,3.7264,3.7753,3.821,3.8802,3.8803,3.8707,3.8707,3.8952,3.9099,3.9099,3.9576,3.9943,4.0081,4.0232,4.0372,4.0489,4.0489,4.0562,4.0677,3.9978,3.909,3.802,3.8512,3.8965,3.9277,3.9392,3.9796,4.0489,4.0254,4.035,4.0808,4.081,4.093,1.925,1.943,1.9537,1.8567,1.8517,1.8632,1.8359,1.8736,1.9182,1.9118,1.9181,0.0,0.0,0.0,1.9245,2.0169,0.0,2.0211,1.9891,2.0229,2.1072,2.2651,2.337,2.4025,2.4733,2.5112,2.54,2.5638,2.5519,2.5947,2.7033,2.701,2.7316,2.813,2.8021,2.7816,2.747,2.8097,2.8543,2.8832,2.9505,3.0176,3.0903,3.0903,3.1004,3.123,3.164,3.1789,3.1861,3.2316,3.2583,3.2681,3.2681,3.2745,3.284,3.2745,3.2681,3.2745,3.3214,3.3361,3.3419,3.3707,3.3807,3.3807,3.3807,3.3807,3.3807,3.3807,3.3807,3.3807,3.3807,3.3807,3.3734,3.3419,3.3578,3.3872,3.4182,3.4637,3.5412,3.689,3.74,3.7923,3.8941,3.8933,3.8844,3.8931,3.9171,3.9364,3.9364,3.9861,4.0213,4.0213,4.0181,4.0258,4.0469,4.0296,4.0142,4.0046,4.003,3.9219,3.743,3.8917,3.9754,3.9681,4.0027,4.0315,4.0562,4.0408,4.0523,4.0866,4.0839,4.0955,1.9869,1.9785,1.9739,1.9038,1.8537,1.8321,1.8792,1.9415,1.9837,1.9716,2.0177,2.0436,1.9822,1.9696,1.9823,2.0212,2.0314,0.0,0.0,2.094,2.0513,2.0578,2.2547,2.4006,2.4284,2.4623,2.5152,2.5931,2.5634,2.6182,2.7958,2.7733,2.7948,2.8755,2.839,2.8094,2.7897,2.8223,2.8399,2.8434,2.885,2.9414,3.0142,3.0142,3.0531,3.123,3.164,3.1789,3.1861,3.2316,3.2777,3.3184,3.3184,3.3437,3.3707,3.3332,3.3184,3.3243,3.3634,3.3762,3.3762,3.3807,3.3807,3.3807,3.3807,3.3807,3.3807,3.3807,3.3807,3.3807,3.3807,3.3807,3.3807,3.3762,3.3788,3.3807,3.3825,3.4422,3.5275,3.6156,3.7183,3.8149,3.895,3.9099,3.9205,3.9529,3.984,4.0081,4.0081,4.0302,4.0489,4.0489,3.9796,3.9642,4.0431,3.9777,3.9008,3.8243,3.9799,4.0015,3.8318,3.9869,4.0716,4.0658,3.9838,3.9838,4.0696,3.985,3.998,4.0985,4.0981,4.1007,2.0646,2.0779,2.0769,1.9392,1.9157,1.9162,1.8523,1.9166,1.9768,1.9253,2.0013,2.0482,1.9822,1.9909,2.0158,2.028,2.0765,2.0935,0.0,1.9731,1.979,2.072,2.1943,2.2806,2.3079,2.3886,2.4288,2.4032,2.4388,2.5151,2.6451,2.6916,2.7586,2.8503,2.8841,2.8833,2.8481,2.8425,2.8546,2.8807,2.8691,2.8991,2.9729,2.9966,3.0243,3.0535,3.1416,3.2004,3.2316,3.2777,3.3196,3.3606,3.3606,3.368,3.3762,3.3652,3.3606,3.3625,3.3734,3.3807,3.3807,3.3807,3.3807,3.3807,3.3807,3.3807,3.3807,3.3807,3.3807,3.3807,3.3807,3.3807,3.3807,3.3807,3.3807,3.3807,3.3807,3.4009,3.4678,3.6266,3.6868,3.7667,3.9463,3.9775,3.9712,3.9622,3.988,4.0101,4.0101,4.0339,4.0489,4.0489,3.9777,3.9411,3.9681,3.9508,3.9036,3.8276,3.992,4.0413,3.9264,4.0325,4.0877,4.078,4.0486,4.0469,4.0773,4.0562,4.0639,4.0997,4.0991,4.0993,2.1362,2.1452,2.1499,2.033,2.0133,2.0059,1.9214,1.9822,2.0347,1.9701,2.018,2.0691,2.0679,2.0446,2.0494,2.1049,2.1421,2.116,0.0,1.9815,2.0177,2.1036,2.1726,2.2357,2.3037,2.3507,2.3676,2.3437,2.3639,2.4377,2.5735,2.6592,2.7499,2.8509,2.9156,2.9398,2.9122,2.864,2.8576,2.8918,2.8458,2.8621,2.9338,2.9712,3.0026,3.0336,3.1369,3.2074,3.255,3.3014,3.3437,3.3807,3.3807,3.3807,3.3807,3.3807,3.3807,3.3807,3.3807,3.3807,3.3807,3.3807,3.3807,3.3807,3.3807,3.3807,3.3807,3.3807,3.3807,3.3807,3.3807,3.3807,3.3807,3.3807,3.3807,3.3807,3.3807,3.3807,3.4281,3.5957,3.6595,3.7472,3.9317,3.9966,4.0157,3.9945,4.0101,4.0232,4.0232,4.0389,4.0392,4.0085,3.9604,3.9161,3.8854,3.8931,3.8651,3.7887,3.9548,4.0176,3.9336,4.0398,4.0964,4.0872,4.0827,4.0812,4.087,4.0947,4.0994,4.1012,4.0953,4.0924]},{"header":{"parameterUnit":"m.s-1","parameterCategory":1,"la1":30.6,"la2":29.2853,"lo1":-89.7004,"lo2":-87.6739,"dy":0.0162,"dx":0.0183,"nx":112,"ny":82,"refTime":"2024-06-06T06:00:00:Z","depth":0,"parameterNumber":3,"parameterNumberName":"V-component_of_WINDS"},"data":[0.0,0.0,0.0,0.0,0.0,0.0,0.0,0.0,0.0,0.0,0.0,0.0,0.0,0.0,0.0,0.0,0.0,0.0,0.0,0.0,0.0,0.0,0.0,0.0,0.0,0.0,0.0,0.0,0.0,0.0,0.0,0.0,0.0,0.0,0.0,0.0,0.0,0.0,0.0,0.0,0.0,0.0,0.0,0.0,0.0,0.0,0.0,0.0,0.0,0.0,0.0,0.0,0.0,0.0,0.0,0.0,0.0,0.0,0.0,0.0,0.0,0.0,0.0,0.0,0.0,0.0,0.0,0.0,0.0,0.0,0.0,0.0,0.0,0.0,0.0,0.0,0.0,0.0,0.0,0.0,0.0,0.0,0.0,0.0,0.0,0.0,0.0,0.0,0.0,0.0,-0.9316,-1.0778,-1.1472,-1.203,-1.251,-1.0981,-0.9921,-0.9872,0.0,0.0,0.0,0.0,0.0,0.0,0.0,0.0,0.0,0.0,0.0,0.0,0.0,0.0,0.0,0.0,0.0,0.0,0.0,0.0,0.0,0.0,0.0,0.0,0.0,0.0,0.0,0.0,0.0,0.0,0.0,0.0,0.0,0.0,0.0,0.0,0.0,0.0,0.0,0.0,0.0,0.0,0.0,0.0,0.0,0.0,0.0,0.0,0.0,0.0,0.0,0.0,0.0,0.0,0.0,0.0,0.0,0.0,0.0,0.0,0.0,0.0,0.0,0.0,0.0,0.0,0.0,0.0,0.0,0.0,0.0,0.0,0.0,0.0,0.0,0.0,0.0,0.0,0.0,0.0,0.0,0.0,0.0,0.0,0.0,0.0,0.0,0.0,0.0,0.0,0.0,0.0,0.0,0.0,0.0,0.0,0.0,0.0,0.0,0.0,0.0,0.0,0.0,0.0,-0.9149,-1.0958,-1.1556,-1.1616,-1.1174,-1.0813,-1.0116,-0.8805,0.0,0.0,0.0,0.0,0.0,0.0,0.0,0.0,0.0,0.0,0.0,0.0,0.0,0.0,0.0,0.0,0.0,0.0,0.0,0.0,0.0,0.0,0.0,0.0,0.0,0.0,0.0,0.0,0.0,0.0,0.0,0.0,0.0,0.0,0.0,0.0,0.0,0.0,0.0,0.0,0.0,0.0,0.0,0.0,0.0,0.0,0.0,0.0,0.0,0.0,0.0,0.0,0.0,0.0,0.0,0.0,0.0,0.0,0.0,0.0,0.0,0.0,0.0,0.0,0.0,0.0,0.0,0.0,0.0,0.0,0.0,0.0,0.0,0.0,0.0,0.0,0.0,0.0,0.0,0.0,0.0,0.0,0.0,0.0,0.0,0.0,0.0,0.0,0.0,0.0,0.0,0.0,0.0,0.0,0.0,0.0,0.0,0.0,0.0,0.0,0.0,0.0,0.0,-0.8231,-0.9425,-1.0853,-1.0814,-1.0762,-1.0813,-1.0115,-0.9346,-0.8541,-0.7587,0.0,0.0,0.0,0.0,0.0,0.0,0.0,0.0,0.0,0.0,0.0,0.0,0.0,0.0,0.0,0.0,0.0,0.0,0.0,0.0,0.0,0.0,0.0,0.0,0.0,0.0,0.0,0.0,0.0,0.0,0.0,0.0,0.0,0.0,0.0,0.0,0.0,0.0,0.0,0.0,0.0,0.0,0.0,0.0,0.0,0.0,0.0,0.0,0.0,0.0,0.0,0.0,0.0,0.0,0.0,0.0,0.0,0.0,0.0,0.0,0.0,0.0,0.0,0.0,0.0,0.0,0.0,0.0,0.0,0.0,0.0,0.0,0.0,0.0,0.0,0.0,0.0,0.0,0.0,0.0,0.0,0.0,0.0,0.0,0.0,0.0,0.0,0.0,0.0,0.0,0.0,0.0,0.0,0.0,0.0,0.0,0.0,0.0,0.0,0.0,0.0,0.0,-0.8889,-0.9533,-1.0463,-1.0115,-1.002,-1.0517,-0.9372,-0.8539,-0.8427,-0.7079,0.0,0.0,0.0,0.0,0.0,0.0,0.0,0.0,0.0,0.0,0.0,0.0,0.0,0.0,0.0,0.0,0.0,0.0,0.0,0.0,0.0,0.0,0.0,0.0,0.0,0.0,0.0,0.0,0.0,0.0,0.0,0.0,0.0,0.0,0.0,0.0,0.0,0.0,0.0,0.0,0.0,0.0,0.0,0.0,0.0,0.0,0.0,0.0,0.0,0.0,0.0,0.0,0.0,0.0,0.0,0.0,0.0,0.0,0.0,0.0,0.0,0.0,0.0,0.0,0.0,0.0,0.0,0.0,0.0,0.0,0.0,0.0,0.0,0.0,0.0,0.0,0.0,0.0,0.0,0.0,0.0,0.0,0.0,0.0,0.0,0.0,0.0,0.0,0.0,0.0,0.0,0.0,0.0,0.0,0.0,0.0,0.0,0.0,0.0,0.0,0.0,0.0,-0.8601,-0.9154,-0.979,-0.9814,-0.9814,-0.9865,-0.8686,-0.7999,-0.8112,-0.6392,0.0,0.0,0.0,0.0,0.0,0.0,0.0,0.0,0.0,0.0,0.0,0.0,0.0,0.0,0.0,0.0,0.0,0.0,0.0,0.0,0.0,0.0,0.0,0.0,0.0,0.0,0.0,0.0,0.0,0.0,0.0,0.0,0.0,0.0,0.0,0.0,0.0,0.0,0.0,0.0,0.0,0.0,0.0,0.0,0.0,0.0,0.0,0.0,0.0,0.0,0.0,0.0,0.0,0.0,0.0,0.0,0.0,0.0,0.0,0.0,0.0,0.0,0.0,0.0,0.0,0.0,0.0,0.0,0.0,0.0,0.0,0.0,0.0,0.0,0.0,0.0,0.0,0.0,0.0,0.0,0.0,0.0,0.0,0.0,0.0,0.0,0.0,0.0,0.0,0.0,0.0,0.0,0.0,0.0,0.0,0.0,0.0,0.0,0.0,0.0,0.0,0.0,-0.7522,-0.8012,-0.9037,-0.9159,-0.9159,-0.9159,-0.8752,-0.8159,-0.7469,0.0,0.0,0.0,0.0,0.0,0.0,0.0,0.0,0.0,0.0,0.0,0.0,0.0,0.0,0.0,0.0,0.0,0.0,0.0,0.0,0.0,0.0,0.0,0.0,0.0,0.0,0.0,0.0,0.0,0.0,0.0,0.0,0.0,0.0,0.0,0.0,0.0,0.0,0.0,0.0,0.0,0.0,0.0,0.0,0.0,0.0,0.0,0.0,0.0,0.0,0.0,0.0,0.0,0.0,0.0,0.0,0.0,0.0,0.0,0.0,0.0,0.0,0.0,0.0,0.0,0.0,0.0,0.0,0.0,0.0,0.0,0.0,0.0,0.0,0.0,0.0,0.0,0.0,0.0,0.0,0.0,0.0,0.0,0.0,0.0,0.0,0.0,0.0,0.0,0.0,0.0,0.0,0.0,0.0,0.0,0.0,0.0,0.0,0.0,0.0,0.0,0.0,-0.6252,-0.6736,-0.733,-0.8324,-0.8646,-0.8804,-0.8804,-0.8544,-0.7989,-0.7081,0.0,0.0,0.0,0.0,0.0,0.0,0.0,0.0,0.0,0.0,0.0,0.0,0.0,0.0,0.0,0.0,0.0,0.0,0.0,0.0,0.0,0.0,0.0,0.0,0.0,0.0,0.0,0.0,0.0,0.0,0.0,0.0,0.0,0.0,0.0,0.0,0.0,0.0,0.0,0.0,0.0,0.0,0.0,0.0,0.0,0.0,0.0,0.0,0.0,0.0,0.0,0.0,0.0,0.0,0.0,0.0,0.0,0.0,0.0,0.0,0.0,0.0,0.0,0.0,0.0,0.0,0.0,0.0,0.0,0.0,0.0,0.0,0.0,0.0,0.0,0.0,0.0,0.0,0.0,0.0,0.0,0.0,0.0,0.0,0.0,0.0,0.0,0.0,0.0,0.0,0.0,0.0,0.0,0.0,0.0,0.0,0.0,0.0,0.0,0.0,0.0,0.0,-0.5217,-0.6474,-0.739,-0.7641,-0.8374,-0.8804,-0.8804,-0.7989,-0.7348,0.0,0.0,0.0,0.0,0.0,0.0,0.0,0.0,0.0,0.0,0.0,0.0,0.0,0.0,0.0,0.0,0.0,0.0,0.0,0.0,0.0,0.0,0.0,0.0,0.0,0.0,0.0,0.0,0.0,0.0,0.0,0.0,0.0,0.0,0.0,0.0,0.0,0.0,0.0,0.0,0.0,0.0,0.0,0.0,0.0,0.0,0.0,0.0,0.0,0.0,0.0,0.0,0.0,0.0,0.0,0.0,0.0,0.0,0.0,0.0,0.0,0.0,0.0,0.0,0.0,0.0,0.0,0.0,0.0,0.0,0.0,0.0,0.0,0.0,0.0,0.0,0.0,0.0,0.0,0.0,0.0,0.0,0.0,0.0,0.0,0.0,0.0,0.0,0.0,0.0,0.0,0.0,0.0,0.0,0.0,0.0,0.0,0.0,0.0,0.0,0.0,0.0,0.0,-0.5152,-0.6178,-0.6839,-0.6907,-0.8049,-0.8593,-0.8049,-0.8119,-0.7702,-0.6642,0.0,0.0,0.0,0.0,0.0,0.0,0.0,0.0,0.0,0.0,0.0,0.0,0.0,0.0,0.0,0.0,0.0,0.0,0.0,0.0,0.0,0.0,0.0,0.0,0.0,0.0,0.0,0.0,0.0,0.0,0.0,0.0,0.0,0.0,0.0,0.0,0.0,0.0,0.0,0.0,0.0,0.0,0.0,0.0,0.0,0.0,0.0,0.0,0.0,0.0,0.0,0.0,0.0,0.0,0.0,0.0,0.0,0.0,0.0,0.0,0.0,0.0,0.0,0.0,0.0,0.0,0.0,0.0,0.0,0.0,0.0,0.0,0.0,0.0,0.0,0.0,0.0,0.0,0.0,0.0,0.0,0.0,0.0,0.0,0.0,0.0,0.0,0.0,0.0,0.0,0.0,0.0,0.0,0.0,0.0,0.0,0.0,0.0,0.0,0.0,0.0,0.0,-0.4526,-0.5539,-0.6258,-0.6588,-0.767,-0.8321,-0.8156,-0.8274,-0.7894,-0.6691,0.0,0.0,0.0,0.0,0.0,0.0,0.0,0.0,0.0,0.0,0.0,0.0,0.0,0.0,0.0,0.0,0.0,0.0,0.0,0.0,0.0,0.0,0.0,0.0,0.0,0.0,0.0,0.0,0.0,0.0,0.0,0.0,0.0,0.0,0.0,0.0,0.0,0.0,0.0,0.0,0.0,0.0,0.0,0.0,0.0,0.0,0.0,0.0,0.0,0.0,0.0,0.0,0.0,0.0,0.0,0.0,0.0,0.0,0.0,0.0,0.0,0.0,0.0,0.0,0.0,0.0,0.0,0.0,0.0,0.0,0.0,0.0,0.0,0.0,0.0,0.0,0.0,0.0,0.0,0.0,0.0,0.0,0.0,0.0,0.0,0.0,0.0,0.0,0.0,0.0,0.0,0.0,0.0,0.0,0.0,0.0,0.0,0.0,0.0,0.0,0.0,0.0,-0.3541,-0.4692,-0.5706,-0.6317,-0.7182,-0.7937,-0.8533,-0.8486,-0.7996,-0.7029,0.0,0.0,0.0,0.0,0.0,0.0,0.0,0.0,0.0,0.0,0.0,0.0,0.0,0.0,0.0,0.0,0.0,0.0,0.0,0.0,0.0,0.0,0.0,0.0,0.0,0.0,0.0,0.0,0.0,0.0,0.0,0.0,0.0,0.0,0.0,0.0,0.0,0.0,0.0,0.0,0.0,0.0,0.0,0.0,0.0,0.0,0.0,0.0,0.0,0.0,0.0,0.0,0.0,0.0,0.0,0.0,0.0,0.0,0.0,0.0,0.3192,0.2638,0.0,0.0,0.0,0.0,0.0,0.0,0.0,0.0,0.0,0.0,0.0,0.0,0.0,0.0,0.0,0.0,0.0,0.0,0.0,0.0,0.0,0.0,0.0,0.0,0.0,0.0,0.0,0.0,0.0,0.0,0.0,0.0,0.0,0.0,0.0,0.0,0.0,0.0,0.0,0.0,-0.3541,-0.4692,-0.5382,-0.5007,-0.6583,-0.7509,-0.7128,-0.7908,-0.7937,-0.6911,-0.6265,0.0,0.0,0.0,0.0,0.0,0.0,0.0,0.0,0.0,0.0,0.0,0.0,0.0,0.0,0.0,0.0,0.0,0.0,0.0,0.0,0.0,0.0,0.0,0.0,0.0,0.0,0.0,0.0,0.0,0.0,0.0,0.0,0.0,0.0,0.0,0.0,0.0,0.0,0.0,0.0,0.0,0.0,0.0,0.0,0.0,0.0,0.0,0.0,0.0,0.0,0.0,0.0,0.0,0.0,0.0,0.0,0.0,0.0,0.0,0.3589,0.3235,0.0,0.0,0.0,0.0,0.0,0.0,0.0,0.0,0.0,0.0,0.0,0.0,0.0,0.0,0.0,0.0,0.0,0.0,0.0,0.0,0.0,0.0,0.0,0.0,0.0,0.0,0.0,0.0,0.0,0.0,0.0,0.0,0.0,0.0,0.0,0.0,0.0,0.0,0.0,0.0,-0.3643,-0.4488,-0.5003,-0.5003,-0.5982,-0.6794,-0.7128,-0.7705,-0.7803,-0.7192,-0.6658,0.0,0.0,0.0,0.0,0.0,0.0,0.0,0.0,0.0,0.0,0.0,0.0,0.0,0.0,0.0,0.0,0.0,0.0,0.0,0.0,0.0,0.0,0.0,0.0,0.0,0.0,0.0,0.0,0.0,0.0,0.0,0.0,0.0,0.0,0.0,0.0,0.0,0.0,0.0,0.0,0.0,0.0,0.0,0.0,0.0,0.0,0.0,0.0,0.0,0.0,0.0,0.0,0.0,0.722,0.6837,0.59,0.563,0.5088,0.4275,0.401,0.3878,0.3812,0.3494,0.0,0.0,0.0,0.0,0.0,0.0,0.0,0.0,0.0,0.0,0.0,0.0,0.0,0.0,0.0,0.0,0.0,0.0,0.0,0.0,0.0,0.0,0.0,0.0,-0.2305,-0.4034,-0.2239,0.0,0.0,0.0,0.0,0.0,0.0,0.0,0.0,0.0,0.0,0.0,-0.3792,-0.4202,-0.4736,-0.5273,-0.5433,-0.5977,-0.723,-0.745,-0.7424,-0.7287,-0.6855,-0.6233,0.0,0.0,0.0,0.0,0.0,0.0,0.0,0.0,0.0,0.0,0.0,0.0,0.0,0.0,0.0,0.0,0.0,0.0,0.0,0.0,0.0,0.0,0.0,0.0,0.0,0.0,0.0,0.0,0.0,0.0,0.0,0.0,0.746,0.8099,0.0,0.0,0.0,0.0,0.0,0.0,0.0,0.0,0.0,0.0,0.0,0.0,0.0,0.6594,0.6594,0.7176,0.7425,0.7431,0.819,0.8468,0.8307,0.699,0.6375,0.6187,0.4915,0.0,0.3975,0.3802,0.0,0.0,0.0,0.0,0.0,0.0,0.0,0.0,0.0,0.0,0.0,0.0,0.0,0.0,0.0,0.0,0.0,0.0,0.0,0.0,0.0,0.0,0.0,0.0,-0.2318,-0.4446,-0.415,-0.2012,-0.0173,-0.0156,-0.0154,-0.0149,0.0,0.0,0.0,0.0,0.0,0.0,-0.3951,-0.4267,-0.4515,-0.4625,-0.5164,-0.5592,-0.576,-0.6367,-0.6622,-0.6375,-0.6627,-0.631,-0.536,-0.5356,0.0,0.0,0.0,0.0,0.0,0.0,0.0,0.0,0.0,0.0,0.0,0.0,0.0,0.0,0.0,0.0,0.0,0.0,0.0,0.0,0.0,0.0,0.0,0.0,0.0,0.0,0.0,0.0,0.0,0.7549,0.8182,0.8016,0.7515,0.6916,0.0,0.0,0.0,0.0,0.0,0.0,0.0,0.0,0.0,0.8591,0.87,0.8956,0.9368,0.9607,0.9843,1.0082,1.0028,0.9763,0.9307,0.8196,0.7524,0.7068,0.5917,0.5372,0.5152,0.4381,0.3995,0.3904,0.0,0.0,0.0,0.0,0.2217,0.2244,0.2451,0.1942,0.1246,0.1222,0.0,0.0,0.0,0.0,0.0,0.0,0.0,0.0,0.0,0.0,0.0,0.0,-0.0998,-0.2458,-0.4146,-0.3448,-0.2038,-0.0313,0.0,0.0,0.0,-0.0665,0.0,0.0,0.0,-0.3862,-0.407,-0.4331,-0.4519,-0.4519,-0.4787,-0.5109,-0.5487,-0.5814,-0.6056,-0.6201,-0.6349,-0.6201,-0.5594,-0.5503,-0.5153,0.0,0.0,0.0,0.0,0.0,0.0,0.0,0.0,0.0,0.0,0.0,0.0,0.0,0.0,0.0,0.0,0.0,0.0,0.0,0.0,0.0,0.0,0.0,0.0,0.0,0.0,0.0,0.0,0.8474,0.8674,0.825,0.8358,0.8108,0.0,0.0,0.0,0.0,0.0,0.0,0.8661,0.8868,0.938,1.0278,1.0563,1.0964,1.1659,1.1668,1.181,1.2095,1.1302,1.0607,1.0072,0.9059,0.831,0.7715,0.6883,0.652,0.6428,0.4998,0.4298,0.4239,0.4124,0.4118,0.415,0.413,0.3611,0.3049,0.4209,0.3845,0.2852,0.2814,0.2801,0.278,0.277,0.0,0.0,0.0,0.0,0.0,0.0,0.0,0.0,0.0,0.0,-0.0615,-0.286,-0.394,-0.3842,-0.1598,-0.0552,0.0,0.0,0.0,0.0,-0.2428,-0.3401,-0.3994,-0.4237,-0.4402,-0.4522,-0.4519,-0.4519,-0.468,-0.5218,-0.5218,-0.5375,-0.5763,-0.5906,-0.592,-0.5611,-0.5543,-0.5224,-0.4739,0.0,0.0,0.0,0.0,0.0,0.0,0.0,0.0,0.0,0.0,0.0,0.0,0.0,0.0,0.0,0.0,0.0,0.0,0.0,0.0,0.0,0.0,0.0,0.0,0.0,0.0,0.0,0.0,0.0,1.0108,1.0506,0.0,0.0,0.0,0.0,0.9376,0.9376,0.9653,1.0264,1.0314,1.0656,1.1417,1.1458,1.1659,1.2061,1.2069,1.2078,1.2095,1.1302,1.0906,1.0785,0.9298,0.8551,0.8493,0.7779,0.7423,0.7299,0.5547,0.488,0.4874,0.4867,0.4857,0.4857,0.476,0.4756,0.4746,0.4854,0.4793,0.4632,0.4435,0.4379,0.4362,0.44,0.4351,0.0,0.0,0.0,0.0,0.0,0.0,0.0,0.0,0.0,-0.0056,-0.0168,-0.2465,-0.4463,-0.4297,-0.1962,0.0,0.0,0.0,-0.0051,-0.0157,-0.238,-0.41,-0.445,-0.4473,-0.4473,-0.4519,-0.4519,-0.4519,-0.4574,-0.457,-0.4567,-0.456,-0.5206,-0.5391,-0.5159,-0.5665,-0.5691,-0.5077,-0.4205,0.0,0.0,0.0,0.0,0.0,0.0,0.0,0.0,0.0,0.0,0.0,0.0,0.0,0.0,0.0,0.0,0.0,0.0,0.0,0.0,0.0,0.0,0.0,0.0,0.0,0.0,0.0,0.0,1.0583,1.0985,0.0,0.9917,1.0021,1.0129,1.0073,1.0519,1.1064,1.1701,1.1999,1.2465,1.3127,1.319,1.3394,1.3812,1.3812,1.3942,1.4201,1.3433,1.2722,1.2206,1.1172,1.0397,0.9871,0.8992,0.868,0.855,0.6781,0.595,0.5691,0.5097,0.4918,0.4918,0.4864,0.486,0.4921,0.4928,0.4867,0.4854,0.4803,0.4775,0.4749,0.4749,0.4755,0.4229,0.2046,0.0708,0.0,0.0,0.0,0.0,0.0,0.0,0.0,0.0,-0.0867,-0.218,-0.4132,-0.3652,-0.2289,-0.0315,0.0,0.0,0.0,-0.0811,-0.1819,-0.2899,-0.3863,-0.449,-0.4484,-0.4484,-0.4484,-0.4484,-0.4477,-0.4473,-0.4473,-0.4739,-0.4816,-0.4707,-0.5111,-0.5075,-0.4679,-0.4191,-0.3651,0.0,0.0,0.0,0.0,0.0,0.0,0.0,0.0,0.0,0.0,0.0,0.0,0.0,0.0,0.0,0.0,0.0,0.0,0.0,0.0,0.0,0.0,0.0,0.0,0.0,1.0078,1.0975,1.1076,1.1556,1.1639,1.0991,1.1217,1.15,1.1633,1.2353,1.2915,1.3413,1.3671,1.4107,1.4703,1.4454,1.4561,1.499,1.5,1.5137,1.541,1.4332,1.3545,1.2948,1.1903,1.1108,1.0568,1.0078,0.9808,0.967,0.8388,0.7637,0.725,0.5642,0.5251,0.5498,0.5498,0.5685,0.593,0.593,0.5709,0.5417,0.5417,0.52,0.4918,0.4918,0.4928,0.4687,0.3505,0.2089,0.0923,0.0924,0.0432,0.0,0.0,0.0,0.0,0.0,0.0,-0.0595,-0.257,-0.2969,-0.2339,-0.0326,0.0,0.0,0.0,0.0,-0.0335,-0.1338,-0.2347,-0.319,-0.3697,-0.3697,-0.3697,-0.3697,-0.3747,-0.3971,-0.4484,-0.4477,-0.4508,-0.4511,-0.4679,-0.4597,-0.4279,-0.3983,-0.3577,-0.2958,0.0,0.0,0.0,0.0,0.0,0.0,0.0,0.0,0.0,0.0,0.0,0.0,0.0,0.0,0.0,0.0,0.0,0.0,0.0,0.0,0.0,0.0,0.0,0.9614,1.0444,1.1176,1.1636,1.242,1.2949,1.2998,1.3331,1.3743,1.4155,1.4851,1.5257,1.5257,1.5268,1.549,1.5965,1.523,1.5076,1.5508,1.5439,1.5439,1.5391,1.3881,1.3103,1.3042,1.145,1.0715,1.0665,1.0882,1.0848,1.0628,1.0239,0.9953,0.9432,0.6614,0.602,0.6728,0.6719,0.7307,0.8027,0.8027,0.731,0.6459,0.6459,0.5786,0.4931,0.4931,0.5006,0.5078,0.5078,0.4014,0.2776,0.2776,0.1479,0.0185,0.0123,0.0062,0.0062,0.0062,0.0062,0.0,0.0,0.0,0.0,0.0,0.0,0.0,0.0,0.0,0.0,0.0,0.0,-0.0558,-0.1952,-0.212,-0.212,-0.212,-0.2119,-0.2792,-0.4324,-0.4438,-0.4429,-0.4446,-0.4404,-0.4295,-0.3927,-0.3723,-0.3304,-0.273,0.0,0.0,0.0,0.0,0.0,0.0,0.0,0.0,0.0,0.0,0.0,0.0,0.0,0.0,0.0,0.0,0.0,0.0,0.0,0.0,0.0,1.1079,1.0984,1.1035,1.1523,1.2184,1.3083,1.3734,1.4282,1.4768,1.5252,1.564,1.5771,1.6254,1.6494,1.6494,1.6762,1.7181,1.7801,1.6641,1.6461,1.7305,1.6397,1.6045,1.6367,1.5923,1.5403,1.4744,1.3655,1.2825,1.2248,1.1539,1.1263,1.1135,1.0392,1.0059,0.9834,0.8218,0.7731,0.7907,0.769,0.7767,0.8027,0.8027,0.7792,0.755,0.755,0.6934,0.6185,0.6185,0.5815,0.5312,0.5322,0.4993,0.4662,0.4668,0.4273,0.361,0.229,0.1963,0.1953,0.1975,0.0953,0.0,0.0,0.0,0.0,0.0,0.0,0.0,0.0,0.0,0.0,0.0,0.0,-0.0168,-0.056,-0.0616,-0.0616,-0.0616,-0.0614,-0.1228,-0.2745,-0.2852,-0.2837,-0.2811,-0.283,-0.2699,-0.2427,-0.3172,-0.3519,0.0,0.0,0.0,0.0,0.0,0.0,0.0,0.0,0.0,0.0,0.0,0.0,0.0,0.0,0.0,0.0,0.0,0.0,0.0,0.0,0.0,0.0,1.275,1.278,1.3167,1.3017,1.3289,1.4391,1.4779,1.5301,1.607,1.6424,1.6735,1.6886,1.7432,1.7698,1.7698,1.7909,1.8189,1.843,1.7374,1.7023,1.744,1.6713,1.6475,1.6665,1.6329,1.5918,1.545,1.4607,1.3958,1.3443,1.2575,1.215,1.199,1.1333,1.0935,1.0734,0.0,0.0,0.0,0.0,0.9441,0.9441,0.9441,0.9175,0.8909,0.8909,0.8033,0.7005,0.7323,0.6513,0.5578,0.5844,0.5697,0.5372,0.5379,0.5386,0.5116,0.4092,0.3823,0.3808,0.3811,0.3012,0.2019,0.128,0.0511,0.0,0.1022,0.0501,0.0,0.0,0.0,0.0468,0.1722,0.1867,0.1401,0.0112,0.0559,0.0671,0.0056,0.1175,0.0,0.0,0.0,-0.1276,-0.1258,-0.1272,0.0,0.0,0.0,0.0,0.0,-0.3416,0.0,0.0,-0.32,-0.3586,0.0,0.0,0.0,0.0,0.0,0.0,0.0,0.0,0.0,0.0,0.0,0.0,0.0,0.0,0.0,0.0,1.4751,1.4811,1.5667,1.5018,1.4719,1.5604,1.5765,1.6151,1.7151,1.7276,1.7516,1.7897,1.853,1.894,1.9,1.9012,0.0,0.0,0.0,1.7276,1.6992,1.6826,1.6826,1.6811,1.6122,1.578,1.5725,1.4932,1.4471,1.4355,1.3799,1.3286,1.293,1.259,1.2297,1.1741,0.9879,0.9695,1.0516,1.1149,1.1491,1.156,1.1423,0.0,0.0,1.0239,0.9044,0.7742,0.8386,0.7313,0.5924,0.6568,0.6133,0.5473,0.5459,0.5396,0.5399,0.5379,0.5382,0.5393,0.5393,0.5393,0.4913,0.3282,0.174,0.1071,0.2476,0.1545,0.056,0.031,0.0303,0.1248,0.3983,0.4397,0.3503,0.0787,0.151,0.0,0.0616,0.2807,0.4225,0.4225,0.1569,0.0,0.0,0.0,0.0,0.0,-0.1266,-0.2629,-0.3986,-0.4026,-0.4029,-0.4033,-0.348,-0.4063,0.0,0.0,0.0,0.0,0.0,0.0,0.0,0.0,0.0,0.0,0.0,0.0,0.0,0.0,0.0,1.703,1.7222,1.714,1.7607,1.7949,1.7877,1.7051,1.7345,1.784,1.8534,1.9029,1.9497,2.0064,2.0221,2.0515,2.0964,2.0989,2.0819,2.0511,1.9346,1.8732,1.8775,1.7805,1.7432,1.7764,1.762,0.0,1.7475,1.6556,1.5713,1.5027,1.489,1.4316,1.3566,1.3476,1.2917,1.2191,1.1527,1.1756,1.2301,1.1628,1.1894,1.2504,1.1696,1.1286,1.1149,1.1149,1.0447,0.9597,0.976,0.8488,0.0,0.7115,0.6479,0.5691,0.5576,0.5549,0.5518,0.5396,0.5432,0.5369,0.5369,0.5376,0.5312,0.497,0.457,0.403,0.288,0.3597,0.3881,0.2428,0.2152,0.2377,0.2999,0.387,0.4268,0.3674,0.2782,0.2569,0.3532,0.3021,0.2627,0.2627,0.1005,0.0,0.0,0.0,0.0,0.0,-0.0263,-0.1713,-0.4364,-0.4246,-0.4144,-0.4147,-0.3909,-0.4271,0.0,0.0,0.0,0.0,0.0,0.0,0.0,0.0,0.0,0.0,0.0,1.0661,1.2984,0.0,1.5691,1.8679,1.8972,1.9012,1.9508,1.9836,1.9699,1.877,1.8879,1.912,1.9384,1.9911,2.0351,2.0693,2.097,2.1204,2.1481,2.1493,2.1137,2.0369,1.9715,1.9143,1.8643,1.7994,1.7803,1.8008,1.8008,1.8008,1.8008,1.7501,1.7079,1.6585,1.6079,1.5649,1.5084,1.4665,1.4163,1.3715,1.363,1.3189,1.2565,1.2006,1.2141,1.2494,1.2006,1.1864,1.1864,1.1864,1.1209,1.0527,1.0904,0.9718,0.8193,0.8018,0.7283,0.6418,0.5853,0.5644,0.5569,0.5494,0.5416,0.5428,0.5428,0.5432,0.5369,0.5369,0.5379,0.5109,0.422,0.4773,0.5096,0.4219,0.4027,0.403,0.3909,0.4421,0.474,0.4546,0.3877,0.3755,0.4452,0.3819,0.3365,0.337,0.2635,0.1568,0.0056,0.0,0.0,0.0,0.0,-0.108,-0.3353,-0.4046,-0.4347,-0.4355,-0.4277,-0.4602,0.0,0.0,0.0,0.0,0.0,0.0,0.0,0.0,1.3014,1.3485,1.3586,1.4187,1.6156,1.7278,1.8537,2.0457,2.0721,2.0837,2.1178,2.1248,2.102,2.0415,2.0239,2.009,1.9963,2.0388,2.0806,2.102,2.1393,2.1694,2.1807,2.1693,2.1031,1.9901,1.9725,1.9094,1.8008,1.8008,1.8008,1.8008,1.8008,1.8008,1.8008,1.8008,1.7862,1.7716,1.6922,1.6636,1.6567,1.579,1.5376,1.5234,1.5234,1.4235,1.2879,1.2879,1.2879,1.2806,1.2659,1.2445,1.2305,1.2305,1.1768,1.1199,1.1801,1.0779,0.9348,0.9087,0.8394,0.7529,0.6637,0.6182,0.5937,0.5876,0.563,0.5466,0.5435,0.5428,0.5428,0.5428,0.5369,0.5372,0.5428,0.5369,0.5379,0.5386,0.5418,0.5331,0.5189,0.513,0.4989,0.468,0.4696,0.451,0.41,0.4067,0.4172,0.4472,0.4518,0.3147,0.0112,0.0,0.0,0.0,-0.0559,-0.1284,-0.223,-0.3744,-0.4473,-0.4519,-0.4519,-0.4787,1.0026,1.1127,1.2385,1.2553,1.1373,1.0457,0.0,0.0,1.3517,1.5671,1.61,1.6175,1.6434,1.9954,2.2878,2.3154,2.3187,2.3039,2.2579,2.2503,2.2246,2.1614,2.1019,2.069,2.062,2.068,2.1121,2.2058,2.2184,2.2435,2.2924,2.2262,2.1413,2.0501,1.9738,1.8926,1.8008,1.8008,1.8008,1.8008,1.8008,1.8008,1.8008,1.8008,1.7569,1.6775,1.6636,1.6636,1.6558,1.6498,1.593,1.5234,1.5234,1.5092,1.4879,1.4879,1.4879,1.4736,1.3882,1.3025,1.2305,1.2305,1.2224,1.2144,1.2265,1.1495,1.0587,1.0558,0.9814,0.9025,0.8753,0.8029,0.7207,0.6957,0.6257,0.5528,0.5459,0.5428,0.5428,0.5428,0.5428,0.5428,0.5428,0.5428,0.5428,0.5432,0.5418,0.5404,0.5338,0.5203,0.5101,0.5021,0.4914,0.4174,0.2574,0.2442,0.3023,0.4402,0.4514,0.3147,0.0112,0.0,0.0,0.0,-0.2637,-0.3423,-0.223,-0.3744,-0.4473,-0.4519,-0.4519,-0.4519,1.1542,1.16,1.1646,1.2637,1.3393,1.3468,1.1757,1.3258,1.5664,1.7883,1.9576,2.0641,2.0623,2.228,2.3596,2.3614,2.3598,2.3377,2.2785,2.2694,2.2314,2.1307,2.093,2.0781,2.0721,2.0953,2.1468,2.2246,2.2611,2.2887,2.3065,2.2322,2.1491,2.0655,1.9759,1.8844,1.8008,1.8008,1.8008,1.8008,1.8008,1.8008,1.8008,1.8008,1.7929,1.7783,1.7783,1.7783,1.7764,1.7527,1.7148,1.6793,1.6793,1.6793,1.6724,1.5587,1.5234,1.5092,1.4027,1.3455,1.3025,1.2445,1.2305,1.2305,1.2305,1.1996,1.1545,1.0938,1.049,1.0018,0.9404,0.8837,0.8257,0.7516,0.697,0.6363,0.5662,0.5494,0.5467,0.5446,0.5428,0.5428,0.5428,0.5428,0.5428,0.5428,0.5428,0.5428,0.5428,0.5304,0.5233,0.5085,0.4007,0.3369,0.3517,0.1936,0.1209,0.1846,0.1871,0.1289,0.0056,0.0,0.0,0.0,-0.2977,-0.4166,-0.3527,-0.42,-0.4473,-0.4519,-0.4519,-0.4519,1.2561,1.2446,1.2324,1.3569,1.5205,1.5893,1.3425,1.5215,1.8038,2.0331,2.2261,2.3591,2.358,2.3595,2.3595,2.3595,2.357,2.3348,2.2768,2.2516,2.1979,2.0908,2.066,2.0656,2.0869,2.1255,2.1782,2.2485,2.2852,2.3005,2.2763,2.2002,2.1164,2.0268,1.9431,1.8714,1.8184,1.8066,1.8125,1.8359,1.8242,1.8242,1.8359,1.8359,1.8525,1.8818,1.8818,1.8818,1.8789,1.8486,1.8359,1.8359,1.8359,1.8359,1.8211,1.6839,1.5979,1.5517,1.4736,1.4163,1.36,1.2879,1.2519,1.2305,1.2305,1.2305,1.215,1.1391,1.1236,1.1019,1.0346,0.9622,0.8965,0.8167,0.7462,0.6674,0.5818,0.5647,0.5613,0.5504,0.5484,0.5471,0.5433,0.5423,0.541,0.5435,0.5428,0.5428,0.5432,0.5432,0.5328,0.5165,0.3484,0.2616,0.3192,0.1276,0.0,0.0,0.0,0.0,0.0,0.0,0.0,0.0,-0.213,-0.3652,-0.4497,-0.4484,-0.4473,-0.4519,-0.4519,-0.4519,1.2899,1.4553,1.6324,1.6376,1.6441,1.7006,1.8965,1.9512,2.0338,2.2953,2.3527,2.3591,2.3593,2.3595,2.3595,2.3595,2.3535,2.3306,2.2795,2.2054,2.1429,2.0861,2.0258,2.0238,2.1355,2.1481,2.1945,2.3025,2.3065,2.2763,2.2002,2.1101,2.0268,1.9365,1.8462,1.8203,1.8613,1.8213,1.8428,1.9238,1.8818,1.8838,1.9248,1.9248,1.9258,1.9268,1.9268,1.9268,1.9268,1.9258,1.9248,1.9248,1.9248,1.9248,1.9248,1.9175,1.8043,1.6558,1.6498,1.5296,1.3673,1.3673,1.3025,1.2305,1.2305,1.2305,1.2298,1.2224,1.2224,1.2224,1.2224,1.0795,0.9231,0.9087,0.7491,0.5979,0.5827,0.5793,0.5793,0.5789,0.5786,0.5745,0.5606,0.5583,0.5532,0.5452,0.5428,0.5432,0.5376,0.5379,0.5386,0.5403,0.3793,0.1988,0.0258,0.0063,0.0,0.0,0.0,0.0,0.0,0.0,0.0,0.0,-0.0112,-0.1564,-0.4497,-0.4484,-0.4473,-0.4519,-0.4519,-0.4519,1.5301,1.6944,1.8604,1.8616,1.8604,1.881,1.9555,1.9707,2.046,2.3061,2.1077,1.8888,1.8891,2.0796,2.2116,2.1346,2.2016,2.247,2.2015,2.2072,2.1759,2.0848,2.0851,2.1066,2.1455,2.1493,2.1945,2.299,2.3078,2.2763,2.1939,2.1037,2.0204,1.9299,1.9044,1.9137,1.9579,2.0027,2.027,2.0267,1.9491,1.915,1.9297,1.958,1.9707,1.9707,1.9707,1.9707,1.9678,1.9404,1.9287,1.9287,1.9287,1.9287,1.9287,1.9287,1.8875,1.8137,1.6615,1.5655,1.4822,1.3302,1.2592,1.2305,1.2305,1.2305,1.2305,1.2305,1.2305,1.2305,1.2305,1.1316,1.0093,0.9425,0.8209,0.6965,0.6131,0.5952,0.5922,0.582,0.58,0.5786,0.5739,0.5732,0.5681,0.5535,0.5426,0.5432,0.5376,0.5379,0.5386,0.541,0.4885,0.3251,0.0266,0.0,0.0,0.0,0.0,0.0,0.0,0.0,0.0,0.0,0.0,-0.0472,-0.15,-0.3525,-0.4515,-0.4477,-0.4568,-0.4613,1.7618,1.9322,2.111,2.1095,2.1075,2.1067,2.1067,2.1067,2.1094,2.1046,1.8934,1.694,1.657,1.9057,2.0882,2.0125,2.1124,2.1918,2.1653,2.2031,2.2043,2.1083,2.128,2.1568,2.1757,2.1782,2.2159,2.3002,2.3326,2.3059,2.2226,2.1806,2.1051,1.986,2.0197,2.0411,2.0544,2.1327,2.1493,2.0997,2.0522,2.0098,1.9756,2.0019,2.0146,2.0146,2.0146,2.0146,2.0127,1.9853,1.9746,1.9746,1.9746,1.9746,1.9746,1.9746,1.9746,1.95,1.7715,1.6469,1.5577,1.4043,1.2963,1.2305,1.2305,1.2305,1.2305,1.2305,1.2305,1.2305,1.2305,1.1545,1.0559,0.9523,0.8542,0.7524,0.6359,0.6112,0.6084,0.5986,0.5966,0.5949,0.5891,0.5837,0.5752,0.561,0.5504,0.5426,0.5382,0.5379,0.5179,0.4512,0.4648,0.3496,0.0269,0.0,0.0,0.0,0.0,0.0,0.0,0.0,0.0,0.0,0.0,0.0,-0.0,-0.1967,-0.3429,-0.4531,-0.4676,-0.4779,1.9841,2.1702,2.3605,2.3579,2.3597,2.3597,2.3582,2.3394,2.1949,1.7434,1.7323,1.7726,0.0,0.0,1.9995,1.9926,2.0877,2.1602,2.1602,2.2022,2.2146,0.0,0.0,0.0,0.0,2.2385,2.2623,2.3175,2.3703,2.3615,2.2762,2.3227,2.2684,2.0896,2.1782,2.2015,2.1564,2.207,2.2081,2.1617,2.1902,2.1593,2.0634,2.0634,2.0644,2.0566,2.0566,2.0566,2.0566,2.0566,2.0566,2.0566,2.0566,2.0566,2.0566,2.0566,2.0566,2.0449,1.9555,1.7789,1.5814,1.5798,1.4169,1.2325,1.2325,1.2311,1.2305,1.2305,1.2305,1.2305,1.2305,1.1545,1.0565,0.9593,0.8537,0.7557,0.6567,0.6338,0.6338,0.6338,0.6338,0.6213,0.6067,0.5915,0.5769,0.5633,0.5599,0.5538,0.5396,0.5379,0.4767,0.3013,0.3345,0.2741,0.0469,0.0201,0.0134,0.0135,0.0067,0.0,0.0,0.0194,0.0192,0.0,0.0,0.0,0.0,0.0,-0.1478,-0.4262,-0.4571,-0.4822,2.2066,2.3111,2.3614,2.3583,2.3613,2.361,2.362,2.0851,1.7971,1.6756,1.6731,1.682,0.0,1.7701,1.866,1.8644,2.0271,2.1542,2.1542,2.2337,0.0,2.2171,0.0,2.2774,2.2852,2.3314,2.3803,2.4356,2.4155,2.3776,2.3287,2.3442,2.3021,2.1851,2.2684,2.3255,2.3537,2.4026,2.4237,2.408,2.3458,2.2627,2.1659,2.1659,2.1221,2.0566,2.0566,2.0566,2.0566,2.0566,2.0566,2.0566,2.0566,2.0566,2.0566,2.0566,2.0566,2.045,1.9444,1.7985,1.6451,1.5433,1.3994,1.2708,1.2708,1.2478,1.2305,1.2305,1.2305,1.2305,1.2305,1.1545,1.0708,1.049,0.9059,0.7706,0.748,0.6795,0.6338,0.6338,0.6338,0.6247,0.621,0.6074,0.5959,0.5922,0.5732,0.5538,0.5396,0.5379,0.5246,0.4776,0.4843,0.4709,0.41,0.2815,0.2008,0.2011,0.0737,0.0,0.0,0.2594,0.2723,0.0066,0.0,0.0,0.0,0.0,-0.0377,-0.117,-0.2328,-0.3687,2.3186,2.3591,2.3586,2.3608,2.3591,2.3586,2.3598,1.9908,1.6357,1.5909,1.6173,1.6363,1.5871,1.6696,1.7551,1.7802,0.0,0.0,2.1418,2.2435,2.2965,0.0,2.3175,0.0,2.3514,2.4029,2.4582,2.5121,2.487,2.4626,2.4438,2.4695,2.4398,2.3491,2.433,2.4964,2.5245,2.5505,2.5441,2.5004,2.4409,2.3661,2.2627,2.2627,2.2113,2.1221,2.1221,2.1011,2.0566,2.0566,2.0566,2.0566,2.0566,2.0566,2.0566,2.0566,2.0566,2.0489,1.9362,1.8162,1.6883,1.5433,1.4109,1.2953,1.2953,1.2832,1.2672,1.2532,1.2498,1.2472,1.2338,1.1848,1.1316,1.0932,0.9959,0.8988,0.8537,0.7633,0.6795,0.6416,0.6338,0.6338,0.6338,0.6186,0.6108,0.604,0.5888,0.5732,0.5583,0.545,0.5372,0.5379,0.5379,0.5382,0.5386,0.4498,0.3889,0.3892,0.295,0.2009,0.1205,0.3155,0.3634,0.2424,0.0805,0.0,0.0,0.0,0.0,-0.0,-0.0845,-0.183,2.3588,2.3601,2.361,2.3611,2.3588,2.3519,2.3167,1.9544,1.6031,1.5094,1.564,1.6041,1.5181,1.5819,1.6679,1.7318,0.0,2.02,2.1411,2.2468,2.3113,2.3238,2.369,2.4054,2.4205,2.4644,2.5146,2.5674,2.5711,2.5711,2.5711,2.6189,2.6094,2.5229,2.6025,2.6533,2.6533,2.6533,2.6094,2.5229,2.5075,2.448,2.3514,2.3368,2.2776,2.1811,2.1811,2.1375,2.0566,2.0566,2.0566,2.0566,2.0566,2.0566,2.0566,2.0566,2.0566,2.0401,1.9204,1.8149,1.7041,1.5771,1.4365,1.3267,1.3267,1.324,1.3146,1.2916,1.2822,1.2755,1.2378,1.2305,1.2077,1.1236,1.0932,1.0565,0.9669,0.8689,0.7706,0.6872,0.6718,0.6718,0.6718,0.6718,0.667,0.645,0.641,0.6345,0.6277,0.5797,0.548,0.5459,0.5459,0.5389,0.5376,0.5376,0.5379,0.5389,0.5393,0.4709,0.3147,0.308,0.3828,0.5343,0.2079,0.0268,0.0,0.0,0.0,0.0,0.0,0.0,2.3603,2.3608,2.3626,2.3585,2.3599,2.305,2.0854,1.7668,0.0,0.0,1.5039,1.5257,1.5492,1.6082,1.6723,1.7436,1.8796,2.029,2.1703,2.263,2.331,0.0,2.3941,2.4343,2.5234,2.541,2.5699,2.6264,2.6314,2.6314,2.6314,2.6471,2.6383,2.6245,2.6383,2.6533,2.6533,2.6533,2.6383,2.6245,2.537,2.448,2.3441,2.2627,2.1735,2.0867,2.0867,2.0789,2.0566,2.0566,2.0566,2.0566,2.0566,2.0566,2.0566,2.0566,2.0566,2.0323,1.8301,1.7504,1.7082,1.5957,1.4678,1.3567,1.3567,1.34,1.3146,1.2916,1.2822,1.2755,1.2378,1.2305,1.2224,1.2077,1.1391,1.0783,1.0559,0.9744,0.8993,0.8846,0.877,0.877,0.877,0.877,0.8756,0.8718,0.8635,0.8578,0.8544,0.6901,0.5681,0.5562,0.5549,0.5501,0.5442,0.5432,0.5432,0.5432,0.5376,0.5246,0.497,0.4903,0.5113,0.5399,0.3286,0.1473,0.0,0.0,0.0,0.0,0.0,0.0,2.3606,2.3599,2.3585,2.3612,2.2585,2.0997,1.8558,0.0,0.0,0.0,1.4487,1.4738,1.4147,1.5169,0.0,1.5985,1.7828,1.9623,2.0682,2.2133,2.3328,2.4028,2.4469,2.4962,2.5523,2.5875,2.6163,2.6508,2.6533,2.6533,2.6533,2.6533,2.6533,2.6533,2.6533,2.6533,2.6533,2.6533,2.6533,2.6465,2.5441,2.4719,2.4264,2.322,2.2264,2.1298,2.1298,2.1078,2.0566,2.0566,2.0566,2.0566,2.0566,2.0566,2.0566,2.0566,2.0566,2.0401,1.8709,1.8149,1.7989,1.6927,1.5277,1.3874,1.3874,1.3774,1.3574,1.3113,1.2986,1.2886,1.2425,1.2305,1.2305,1.2305,1.1922,1.1465,1.0938,1.0415,0.9895,0.9372,0.9296,0.9296,0.9296,0.9296,0.9296,0.9296,0.928,0.9209,0.9209,0.8305,0.7543,0.7324,0.6806,0.6464,0.6296,0.5816,0.5447,0.5432,0.5432,0.5369,0.5369,0.5369,0.5376,0.5386,0.4564,0.2744,0.0,0.0,0.0,0.0,0.0,0.0,2.3588,2.3614,2.3462,2.2896,2.1271,1.9219,1.7024,1.5484,0.0,1.3372,1.3902,1.4162,1.2864,1.4053,1.5163,0.0,1.6811,1.841,1.8999,2.1407,2.336,0.0,2.4898,0.0,2.5737,2.6189,2.6533,2.6533,2.6533,2.6533,2.6533,2.6533,2.6533,2.6533,2.6533,2.6533,2.6533,2.6533,2.6533,2.6465,2.5288,2.4707,2.4636,2.3452,2.2489,2.1735,2.1735,2.1298,2.0566,2.0566,2.0566,2.0566,2.0566,2.0566,2.0566,2.0566,2.0566,2.0489,1.9362,1.9036,1.8798,1.7666,1.6041,1.4412,1.4412,1.425,1.3961,1.3373,1.3213,1.3066,1.2465,1.2305,1.2305,1.2305,1.2305,1.2077,1.1316,1.1087,1.0864,1.0126,0.9976,0.9976,0.9976,0.9976,0.9976,0.9976,0.9976,0.9976,0.9976,0.9976,0.9824,0.9581,0.8431,0.7548,0.7155,0.6387,0.5844,0.5487,0.541,0.5463,0.5428,0.5428,0.5432,0.5376,0.5379,0.4025,0.1138,0.0402,0.0,0.0,0.0,0.0,2.3614,2.3611,2.3045,2.0731,1.9959,1.9211,1.701,0.0,1.3329,1.322,1.3275,1.3301,1.3138,1.3413,1.4211,1.6025,0.0,1.6717,1.681,2.0471,2.3393,2.4089,0.0,0.0,2.6314,2.6496,2.6533,2.6533,2.6533,2.6533,2.6533,2.6533,2.6533,2.6533,2.6533,2.6533,2.6533,2.6533,2.6533,2.6465,2.4541,2.3672,2.3588,2.1669,2.0789,2.0712,2.0712,2.0712,2.0566,2.0566,2.0566,2.0566,2.0566,2.0566,2.0566,2.0566,2.0566,2.0489,1.9362,1.9036,1.8798,1.7666,1.6519,1.5538,1.5538,1.4894,1.3961,1.3373,1.3213,1.3066,1.2465,1.2305,1.2305,1.2305,1.2305,1.2305,1.215,1.215,1.215,1.2077,1.2003,1.2003,1.2003,1.2003,1.2003,1.2003,1.2003,1.2003,1.2003,1.2003,1.1983,1.1998,1.0149,0.8476,0.7341,0.7186,0.6694,0.5648,0.5569,0.5508,0.5432,0.5428,0.5428,0.5428,0.5382,0.5256,0.4916,0.1614,0.0,0.0,0.0,0.0,2.2448,2.2437,2.2049,2.0219,1.9803,1.9232,1.7027,0.0,1.4814,1.3474,1.3216,1.3022,1.2468,1.2796,1.3076,1.2788,1.4867,1.6496,1.6512,1.9749,2.2492,2.3416,2.4205,2.5134,2.6408,2.6533,2.6533,2.6533,2.6533,2.6533,2.6533,2.6533,2.6533,2.6533,2.6533,2.6533,2.6533,2.6533,2.6533,2.6465,2.4469,2.3514,2.3441,2.1451,2.0566,2.0566,2.0566,2.0566,2.0566,2.0566,2.0566,2.0566,2.0566,2.0566,2.0566,2.0566,2.0566,2.0566,2.0079,1.9923,1.9923,1.9432,1.8541,1.7407,1.6108,1.5379,1.4802,1.3743,1.4187,1.4612,1.3044,1.2438,1.2305,1.2305,1.2305,1.2305,1.2305,1.2305,1.2305,1.2305,1.2305,1.2305,1.2305,1.2305,1.2305,1.2305,1.2305,1.2305,1.2305,1.2305,1.2305,1.2305,1.0997,0.9647,0.8481,0.7816,0.6949,0.5796,0.5718,0.565,0.5504,0.5498,0.5457,0.5372,0.5379,0.5393,0.5406,0.3979,0.2155,0.0,0.0,0.0,2.0912,2.0796,2.0523,1.9987,1.959,1.883,1.6934,1.6271,1.5492,1.3607,1.3202,1.2802,1.158,1.2224,1.2563,1.1284,1.4116,1.672,1.7352,1.9506,2.1459,2.2623,2.3217,2.4217,2.5824,2.6264,2.6533,2.6533,2.6533,2.6533,2.6533,2.6533,2.6533,2.6533,2.6533,2.6533,2.6533,2.6533,2.6533,2.6465,2.4469,2.3514,2.3441,2.1451,2.0566,2.0566,2.0566,2.0566,2.0566,2.0566,2.0566,2.0566,2.0566,2.0566,2.0566,2.0566,2.0566,2.0566,2.0566,2.0566,2.0566,2.0566,1.9844,1.8709,1.7163,1.6437,1.5875,1.4519,1.4589,1.4805,1.3251,1.2525,1.2305,1.2305,1.2305,1.2305,1.2305,1.2305,1.2305,1.2305,1.2305,1.2305,1.2305,1.2305,1.2305,1.2305,1.2305,1.2305,1.2305,1.2305,1.2305,1.2305,1.1694,1.0718,0.9295,0.8467,0.7425,0.595,0.5867,0.5803,0.5657,0.565,0.561,0.5515,0.4888,0.4894,0.5408,0.4354,0.2482,0.0,0.0,0.0,1.9058,1.8698,1.8494,1.9683,1.9086,1.792,1.6765,1.5699,1.4596,1.3458,1.3203,1.2605,1.0675,1.1731,1.2903,1.2882,1.4892,1.7248,1.9472,1.9787,2.0348,2.1836,2.2026,2.2776,2.4643,2.5824,2.6533,2.6533,2.6533,2.6533,2.6533,2.6533,2.6533,2.6533,2.6533,2.6533,2.6533,2.6533,2.6533,2.6465,2.4469,2.3514,2.3441,2.1451,2.0566,2.0566,2.0566,2.0566,2.0566,2.0566,2.0566,2.0566,2.0566,2.0566,2.0566,2.0566,2.0566,2.0566,2.0566,2.0566,2.0566,2.0566,1.9844,1.9036,1.8957,1.8149,1.7017,1.5629,1.413,1.2829,1.2822,1.2525,1.2305,1.2305,1.2305,1.2305,1.2305,1.2305,1.2305,1.2305,1.2305,1.2305,1.2305,1.2305,1.2305,1.2305,1.2305,1.2305,1.2305,1.2305,1.2305,1.2305,1.2298,1.1471,0.9448,0.9296,0.8374,0.6112,0.6027,0.5959,0.5803,0.58,0.5738,0.5682,0.3776,0.3636,0.5419,0.1821,0.0073,0.0,0.0,0.0,1.7435,1.8352,1.9243,1.8552,1.8818,1.9194,1.8839,1.7327,1.5479,1.3607,1.2132,1.1044,1.0404,1.173,1.2905,1.288,1.3525,1.5155,1.8277,1.9321,0.0,2.2013,2.3916,2.5303,2.59,2.6319,2.6533,2.6533,2.6533,2.6533,2.6533,2.6533,2.6533,2.6533,2.6533,2.6533,2.6533,2.6533,2.6533,2.6452,2.5146,2.4192,2.3441,2.2188,2.1231,2.0566,2.0566,2.0566,2.0566,2.0566,2.0566,2.0566,2.0566,2.0566,2.0566,2.0566,2.0566,2.0566,2.0566,2.0566,2.0566,2.0566,2.0401,2.0079,2.0079,1.9353,1.8311,1.7526,1.5999,1.4572,1.4712,1.4149,1.3733,1.4145,1.3738,1.3237,1.3237,1.2732,1.2305,1.2305,1.2305,1.2305,1.2305,1.2305,1.2305,1.2305,1.2305,1.2305,1.2305,1.2305,1.207,1.1316,1.1236,1.0714,0.9448,0.9296,0.8438,0.6343,0.6186,0.6118,0.5962,0.5959,0.5848,0.5775,0.3781,0.2398,0.1676,0.0583,0.0,0.0,0.0,0.0,0.0,1.7284,1.7939,1.7314,1.7891,1.8572,1.8528,1.7478,1.5853,1.365,1.1642,1.0303,1.0297,1.1699,1.2884,1.2891,1.3433,1.5012,1.8326,1.9737,2.0925,2.2178,2.4406,2.5837,2.5837,2.6214,2.6533,2.6533,2.6533,2.6533,2.6533,2.6533,2.6533,2.6533,2.6533,2.6533,2.6533,2.6533,2.6533,2.6465,2.5441,2.4636,2.4036,2.2999,2.2038,2.1155,2.1155,2.0934,0.0,2.0566,2.0566,2.0566,2.0566,2.0566,2.0566,2.0566,2.0566,2.0566,2.0566,2.0566,2.0566,2.0566,2.0566,2.0566,2.0566,1.9835,1.8903,1.8659,1.7282,1.5897,1.6068,1.5458,1.4914,1.5347,1.4544,1.3673,1.3673,1.2952,1.2305,1.2305,1.2305,1.2305,1.2305,1.2305,1.2305,1.2305,1.2305,1.2305,1.2305,1.2305,1.1922,1.0938,1.0783,1.0265,0.8841,0.877,0.8012,0.6412,0.6338,0.6217,0.6122,0.6115,0.6084,0.6013,0.3889,0.1942,0.0,0.0,0.0,0.0,0.0,0.0,0.0,1.563,1.5217,1.6086,1.6379,1.646,1.6316,1.6284,0.0,1.3465,1.1562,1.035,1.0465,1.183,1.2913,1.29,1.4211,1.628,1.9283,2.078,2.1812,2.2425,2.3941,2.4946,2.4946,2.5862,2.6533,2.6533,2.6533,2.6533,2.6533,2.6533,2.6533,2.6533,2.6533,2.6533,2.6533,2.6533,2.6533,2.6465,2.5581,2.5087,2.4933,2.4036,2.3073,2.2103,2.2027,2.1517,2.0712,2.0644,2.0566,2.0566,2.0566,2.0566,2.0566,2.0566,2.0566,2.0566,2.0566,2.0566,2.0566,2.0566,2.0566,2.0566,2.0566,1.9923,1.9116,1.9036,1.804,1.7041,1.7016,1.6497,1.5987,1.6035,1.4976,1.3885,1.3885,1.3068,1.2338,1.2338,1.2318,1.2305,1.2305,1.2305,1.2305,1.2305,1.2305,1.2305,1.2305,1.2305,1.1922,1.0783,1.0714,0.9884,0.7859,0.7783,0.7403,0.6338,0.6338,0.6338,0.6338,0.6338,0.6268,0.6278,0.4066,0.1954,0.0,0.0,0.0,0.0,0.0,0.0,1.384,0.0,1.5786,1.4347,1.5255,1.6066,0.0,1.398,1.3406,0.0,0.0,0.0,1.2019,1.2596,1.2884,1.2916,1.3233,1.4687,1.8116,2.0976,2.3098,2.4079,2.5322,2.6076,2.6076,2.637,2.6533,2.6533,2.6533,2.6533,2.6533,2.6533,2.6533,2.6533,2.6533,2.6533,2.6533,2.6533,2.6533,2.6533,2.6245,2.5734,2.5016,2.4779,2.4108,2.3073,2.2328,2.1886,2.1593,2.0934,2.0566,2.0566,2.0566,2.0566,2.0566,2.0566,2.0566,2.0566,2.0566,2.0566,2.0566,2.0566,2.0566,2.0566,2.0566,2.0401,2.0079,1.9195,1.8726,1.8417,1.8038,1.7826,1.7841,1.8377,1.7016,1.5597,1.5597,1.4057,1.2721,1.2721,1.2458,1.2305,1.2305,1.2305,1.2305,1.2305,1.2305,1.2305,1.2305,1.2305,1.1626,0.982,0.9669,0.8841,0.6795,0.7326,0.7403,0.6338,0.6338,0.6338,0.6338,0.6338,0.6268,0.6278,0.2657,0.047,0.0,0.0,0.0,0.0,0.0,0.0,1.2943,1.4076,1.4493,1.2379,1.3438,1.4428,1.2355,0.0,0.0,0.0,0.0,0.0,0.0,0.0,0.0,0.0,1.2905,1.4487,1.9056,2.1923,2.3853,2.472,2.5787,2.6533,2.6533,2.6533,2.6533,2.6533,2.6533,2.6533,2.6533,2.6533,2.6533,2.6533,2.6533,2.6533,2.6533,2.6533,2.6533,2.6533,2.6533,2.6233,2.5664,2.5664,2.5146,2.4192,2.3588,2.3147,2.2627,2.1669,2.1221,2.1231,2.0789,2.0566,2.0566,2.0566,2.0566,2.0566,2.0566,2.0566,2.0566,2.0566,2.0566,2.0566,2.0566,2.0566,2.0479,1.9923,1.9756,1.9709,1.9406,1.92,1.9004,1.8864,1.7499,1.6076,1.5541,1.4127,1.2959,1.2959,1.2826,1.2719,1.2719,1.2599,1.2505,1.2505,1.2392,1.2305,1.2305,1.1922,1.1019,0.9448,0.8917,0.8012,0.6412,0.6795,0.6872,0.6338,0.6338,0.6338,0.6338,0.6268,0.6281,0.6302,0.4084,0.1961,0.0,0.0,0.0,0.0,0.0,0.0,1.2289,1.2778,1.2424,1.1047,1.1944,1.2665,0.0,0.0,0.0,0.0,0.0,0.0,0.0,0.0,0.0,0.0,1.3482,1.5775,2.099,2.2989,2.4104,2.4757,2.5787,2.6533,2.6533,2.6533,2.6533,2.6533,2.6533,2.6533,2.6533,2.6533,2.6533,2.6533,2.6533,2.6533,2.6533,2.6533,2.6533,2.6533,2.6533,2.6533,2.6533,2.6533,2.6025,2.5229,2.5087,2.4492,2.3672,2.2627,2.2103,2.1886,2.1155,2.0712,2.0566,2.0566,2.0566,2.0566,2.0566,2.0566,2.0566,2.0566,2.0566,2.0566,2.0566,2.0566,2.0566,2.0566,2.0566,2.0566,2.0566,2.0293,1.9773,1.8683,1.7329,1.6086,1.5023,1.3994,1.3273,1.3273,1.324,1.3213,1.3213,1.2993,1.2876,1.2829,1.2532,1.2351,1.2311,1.1391,1.0415,0.9372,0.8389,0.7403,0.6416,0.6338,0.6338,0.6338,0.6338,0.6338,0.6264,0.6274,0.6295,0.6329,0.6329,0.4252,0.0,0.0,0.0,0.0,0.0,0.0,1.0606,1.0764,1.1023,1.2196,1.2748,1.2475,0.0,0.0,0.0,0.0,0.0,0.0,0.0,1.273,1.292,0.0,1.6169,1.9682,2.2464,2.3078,2.3653,2.4668,2.5787,2.6533,2.6533,2.6533,2.6533,2.6533,2.6533,2.6533,2.6533,2.6533,2.6533,2.6533,2.6533,2.6533,2.6533,2.6533,2.6533,2.6533,2.6533,2.6533,2.6533,2.6533,2.6383,2.6233,2.537,2.4933,2.4707,2.3672,2.2776,2.1952,2.1811,2.1298,2.0566,2.0566,2.0566,2.0566,2.0566,2.0566,2.0566,2.0566,2.0566,2.0566,2.0566,2.0566,2.0566,2.0566,2.0566,2.0566,2.0566,2.0518,2.0227,1.9182,1.8011,1.6847,1.5792,1.4465,1.3581,1.3581,1.338,1.3213,1.3213,1.3173,1.3053,1.2862,1.2782,1.2585,1.2338,1.1391,1.0415,0.9372,0.8389,0.7403,0.6416,0.6338,0.6338,0.6338,0.6338,0.6268,0.6274,0.6278,0.6295,0.6329,0.6329,0.4252,0.0,0.0,0.0,0.0,0.0,0.0,1.0223,1.0315,1.102,1.4088,1.3863,1.2702,1.189,0.0,0.0,0.0,0.0,0.0,0.0,0.0,1.37,1.6225,1.9419,2.1933,2.2968,2.3092,2.3553,2.4655,2.5511,2.6113,2.6496,2.6533,2.6533,2.6533,2.6533,2.6533,2.6533,2.6533,2.6533,2.6533,2.6533,2.6533,2.6533,2.6533,2.6533,2.6533,2.6533,2.6533,2.6533,2.6533,2.6533,2.6452,2.6025,2.5804,2.5734,2.4707,2.3745,2.2776,2.2178,2.1451,2.0566,2.0566,2.0566,2.0566,2.0566,2.0566,2.0566,2.0566,2.0566,2.0566,2.0566,2.0566,2.0566,2.0566,2.0566,2.0566,2.0566,2.0167,1.9441,1.839,1.7253,1.6116,1.5054,1.4302,1.3881,1.3881,1.3774,1.3687,1.3687,1.3554,1.3394,1.3253,1.2953,1.2775,1.2559,1.1033,0.982,0.9372,0.7936,0.6795,0.6338,0.6338,0.6338,0.6338,0.6338,0.6268,0.6278,0.5559,0.501,0.4553,0.4553,0.3057,0.0,0.0,0.0,0.0,0.0,0.0,0.9636,1.0307,1.1726,1.4886,0.0,1.3616,1.3017,0.0,0.0,0.0,0.0,0.0,0.0,1.3202,1.5027,1.9799,2.1981,2.3077,2.3068,2.3081,2.3504,2.448,2.5096,2.5636,2.6201,2.6264,2.6382,2.6521,2.6533,2.6533,2.6533,2.6533,2.6533,2.6533,2.6533,2.6533,2.6533,2.6533,2.6533,2.6533,2.6533,2.6533,2.6533,2.6533,2.6533,2.6533,2.6533,2.6533,2.6383,2.5441,2.442,2.3368,2.2403,2.1451,2.0566,2.0566,2.0566,2.0566,2.0566,2.0566,2.0566,2.0566,2.0566,2.0566,2.0566,2.0566,2.0566,2.0566,2.0566,2.0566,2.0323,1.9599,1.863,1.7253,1.6273,1.5379,1.4328,1.4088,1.4088,1.4088,1.4088,1.4088,1.4088,1.3901,1.3728,1.3572,1.3253,1.2933,1.2866,1.087,0.9448,0.9448,0.7602,0.6366,0.6366,0.6332,0.6312,0.6312,0.6278,0.6268,0.6278,0.5243,0.4453,0.383,0.383,0.3049,0.1487,0.047,0.0,0.0,0.0,0.0,0.7891,1.0399,1.3004,1.3117,0.0,0.0,1.3431,1.2909,0.0,0.0,0.0,0.0,0.0,1.4165,1.6884,2.204,2.3026,2.3127,2.3122,2.3096,2.3368,2.3967,2.4544,2.5084,2.5598,2.5649,2.5887,2.6483,2.6533,2.6533,2.6533,2.6533,2.6533,2.6533,2.6533,2.6533,2.6533,2.6533,2.6533,2.6533,2.6533,2.6533,2.6533,2.6533,2.6533,2.6533,2.6533,2.6533,2.6383,2.5441,2.442,2.3368,2.2403,2.1451,2.0566,2.0566,2.0566,2.0566,2.0566,2.0566,2.0566,2.0566,2.0566,2.0566,2.0566,2.0566,2.0566,2.0566,2.0566,2.0401,1.9362,1.9036,1.847,1.6355,1.5786,1.5379,1.4328,1.4088,1.4088,1.4088,1.4088,1.4088,1.4088,1.4068,1.3961,1.3687,1.3607,1.348,1.3213,1.1204,0.9893,0.9893,0.7963,0.6668,0.6668,0.6539,0.6458,0.6458,0.6332,0.6268,0.6278,0.6197,0.6122,0.6054,0.6054,0.5973,0.5817,0.1879,0.0,0.0,0.0,0.0,0.7991,0.9515,1.1358,1.1308,0.0,0.0,0.0,0.0,0.0,0.0,1.4457,0.0,0.0,0.0,1.9206,2.2547,2.3127,2.3106,2.3113,2.3117,2.3306,2.3941,2.4481,2.5021,2.5548,2.5925,2.6226,2.6508,2.6533,2.6533,2.6533,2.6533,2.6533,2.6533,2.6533,2.6533,2.6533,2.6533,2.6533,2.6533,2.6533,2.6533,2.6533,2.6533,2.6533,2.6465,2.5873,2.5581,2.5511,2.448,2.3441,2.2478,2.1527,2.0934,2.0566,2.0566,2.0566,2.0566,2.0566,2.0566,2.0566,2.0566,2.0566,2.0566,2.0566,2.0566,2.0566,2.0566,2.0566,2.0323,1.9283,1.847,1.7577,1.6026,1.5213,1.4573,1.4173,1.4088,1.4088,1.4088,1.4088,1.4088,1.4088,1.4088,1.4048,1.3935,1.3761,1.3519,1.3494,1.1341,0.9938,0.9938,0.8,0.6702,0.6702,0.6559,0.6512,0.6607,0.639,0.6264,0.6268,0.6268,0.6271,0.6274,0.6274,0.6278,0.6285,0.4698,0.2581,0.0,0.0,0.0,0.8184,0.897,1.0426,0.0,0.0,0.0,0.0,0.0,0.0,1.5399,1.582,0.0,1.6722,0.0,2.0536,2.2732,2.3124,2.3078,2.3078,2.3078,2.3215,2.3678,2.4054,2.4494,2.5034,2.5611,2.6013,2.6176,2.642,2.6533,2.6533,2.6289,2.6189,2.6189,2.6189,2.6189,2.6189,2.6433,2.6533,2.6533,2.6533,2.6533,2.6533,2.6533,2.6533,2.6452,2.5441,2.5004,2.4933,2.3588,2.2478,2.1517,2.0857,2.0566,2.0566,2.0566,2.0566,2.0566,2.0566,2.0566,2.0566,2.0566,2.0566,2.0566,2.0566,2.0566,2.0566,2.0566,2.0566,2.0245,1.8877,1.8149,1.7415,1.5628,1.4894,1.4489,1.4166,1.4088,1.4088,1.4088,1.4088,1.4088,1.4088,1.4088,1.4088,1.4088,1.3915,1.3781,1.3781,1.1917,1.0393,0.9654,0.7919,0.6841,0.6841,0.6702,0.6661,0.6766,0.6539,0.638,0.6329,0.6285,0.6338,0.6338,0.6338,0.6264,0.6274,0.6278,0.4776,0.1955,0.0626,0.0,0.8205,0.8996,0.0,0.0,0.0,0.0,0.0,0.0,0.0,1.5405,1.6818,1.8438,1.9599,1.9819,2.0565,2.2718,2.3103,2.3078,2.3078,2.3078,2.3078,2.3078,2.3078,2.3364,2.3941,2.4506,2.5046,2.5548,2.6138,2.6521,2.6508,2.59,2.5598,2.5586,2.5586,2.5586,2.5598,2.6163,2.6521,2.6533,2.6533,2.6533,2.6533,2.6533,2.6533,2.6452,2.5441,2.5016,2.4862,2.285,2.1441,2.0566,2.0566,2.0566,2.0566,2.0566,2.0566,2.0566,2.0566,2.0566,2.0566,2.0566,2.0566,2.0566,2.0566,2.0566,2.0566,2.0566,2.0566,2.0079,1.79,1.8149,1.8149,1.4901,1.4894,1.5372,1.4334,1.4088,1.4088,1.4088,1.4088,1.4088,1.4088,1.4088,1.4088,1.4088,1.4088,1.4088,1.4088,1.3027,1.1381,0.9148,0.7841,0.7139,0.7139,0.701,0.6929,0.6929,0.6787,0.663,0.6478,0.6335,0.6264,0.6338,0.6338,0.6338,0.6338,0.6274,0.6278,0.62,0.2033,0.0,1.083,0.0,0.0,0.0,0.0,0.0,0.0,0.0,0.0,0.0,1.9576,2.1246,2.0003,2.1066,2.2367,2.3007,2.3103,2.3078,2.3078,2.3078,2.3078,2.3078,2.3489,2.3803,2.3979,2.4833,2.5272,2.5071,2.5925,2.6126,2.5347,2.5485,2.5435,2.5059,2.5059,2.5222,2.5598,2.5774,2.605,2.6533,2.6533,2.6533,2.6533,2.6533,2.6533,2.6383,2.4696,2.3963,2.3818,2.1821,2.0857,2.0566,2.0566,2.0566,2.0566,2.0566,2.0566,2.0566,2.0566,2.0566,2.0566,2.0566,2.0566,2.0566,2.0566,2.0566,2.0566,2.0566,2.0079,1.9116,1.7658,1.7577,1.718,1.4657,1.4328,1.4496,1.4173,1.4088,1.4088,1.4088,1.4088,1.4088,1.4088,1.4088,1.4088,1.4088,1.4088,1.3476,1.1826,1.13,1.0173,0.7925,0.7316,0.7139,0.7139,0.701,0.697,0.7071,0.6841,0.663,0.6478,0.643,0.6363,0.6342,0.6338,0.6338,0.6338,0.6264,0.6274,0.6288,0.5021,0.2821,1.1115,0.0,0.0,0.0,0.0,0.0,1.7764,0.0,0.0,0.0,2.0705,2.2665,2.1331,2.2179,2.3096,2.3107,2.3132,2.3078,2.3078,2.3078,2.3078,2.3078,2.3439,2.3653,2.3653,2.4443,2.4833,2.4519,2.531,2.5523,2.4858,2.4908,2.482,2.4506,2.4494,2.4644,2.4958,2.5385,2.5674,2.5812,2.6251,2.6339,2.6126,2.642,2.6533,2.6383,2.4397,2.3073,2.2264,2.1088,2.0566,2.0566,2.0566,2.0566,2.0566,2.0566,2.0566,2.0566,2.0566,2.0566,2.0566,2.0566,2.0566,2.0566,2.0566,2.0566,2.0479,2.0079,1.952,1.8638,1.709,1.6683,1.6198,1.4496,1.4412,1.4657,1.4166,1.4088,1.4088,1.4088,1.4088,1.4088,1.4088,1.4088,1.4088,1.4088,1.4088,1.3561,1.2174,1.1214,1.0091,0.8615,0.7661,0.7139,0.7139,0.7061,0.7048,0.7136,0.6973,0.6807,0.6661,0.6536,0.643,0.6346,0.6288,0.6338,0.6338,0.6338,0.6268,0.6281,0.5466,0.3653,0.9855,0.0,0.0,0.0,0.0,0.0,1.5608,1.6949,1.8155,1.8029,2.0754,2.3084,2.3128,2.3124,2.3081,2.3088,2.3078,2.3078,2.3078,2.3078,2.3078,2.3078,2.3078,2.3078,2.3078,2.3665,2.3979,2.3916,2.4481,2.4782,2.4669,2.4243,2.3966,2.3916,2.3916,2.3941,2.4004,2.4971,2.5234,2.4833,2.5887,2.6101,2.5611,2.6189,2.6383,2.6094,2.4181,2.2339,2.0566,2.0566,2.0566,2.0566,2.0566,2.0566,2.0566,2.0566,2.0566,2.0566,2.0566,2.0566,2.0566,2.0566,2.0566,2.0566,2.0566,2.0566,2.0401,1.9283,1.8957,1.839,1.6273,1.5621,1.5296,1.4328,1.481,1.5296,1.4328,1.4088,1.4088,1.4088,1.4088,1.4088,1.4088,1.4088,1.4088,1.4088,1.4088,1.3997,1.3822,1.1912,1.0524,1.0265,0.8356,0.7139,0.7139,0.7139,0.7139,0.7139,0.7139,0.7082,0.6953,0.6668,0.6502,0.6471,0.6346,0.6352,0.6338,0.6338,0.6345,0.6285,0.4327,0.3241,0.0,1.1287,0.0,0.0,0.0,1.855,1.7401,1.8326,1.9118,1.8229,2.0711,2.3109,2.3128,2.3075,2.311,2.3125,2.3078,2.3078,2.3078,2.3078,2.3078,2.3078,2.3078,2.3078,2.3078,2.3665,2.3803,2.3351,2.4255,2.4431,2.3478,2.3816,2.3791,2.3339,2.3265,2.354,2.3991,2.423,2.4506,2.4833,2.5473,2.5724,2.5611,2.6189,2.5639,2.4097,2.284,2.1669,2.0566,2.0566,2.0566,2.0566,2.0566,2.0566,2.0566,2.0566,2.0566,2.0566,2.0566,2.0566,2.0566,2.0566,2.0566,2.0566,2.0566,2.0566,2.0401,1.9283,1.839,1.7334,1.6026,1.5054,1.4412,1.4166,1.425,1.4412,1.4173,1.4088,1.4088,1.4088,1.4088,1.4088,1.4088,1.4088,1.4088,1.4088,1.4088,1.3392,1.1563,1.0869,0.9918,0.8009,0.7401,0.7139,0.7139,0.7139,0.7139,0.7139,0.7139,0.7126,0.7095,0.6926,0.6719,0.6478,0.6441,0.6373,0.6338,0.6338,0.6407,0.6534,0.608,0.4007,0.0,0.0,0.0,0.0,0.0,1.942,1.7935,1.8742,1.9616,1.8965,2.1104,2.3069,2.3069,2.3085,2.3078,2.3078,2.3078,2.3078,2.3078,2.3078,2.3078,2.3078,2.3078,2.3078,2.3078,2.3414,2.3464,2.3103,2.3616,2.3766,2.3103,2.3427,2.3439,2.3078,2.3078,2.3215,2.359,2.3866,2.4004,2.4029,2.4833,2.536,2.5611,2.5765,2.4921,2.3441,2.2403,2.1441,2.0566,2.0566,2.0566,2.0566,2.0566,2.0566,2.0566,2.0566,2.0566,2.0566,2.0566,2.0566,2.0566,2.0566,2.0566,2.0566,2.0566,2.0245,1.9562,1.832,1.7274,1.6195,1.4844,1.4166,1.3874,1.3874,1.3981,1.4088,1.4088,1.4088,1.4088,1.4088,1.4088,1.4088,1.4088,1.4088,1.4088,1.4088,1.4088,1.3652,1.2431,1.13,1.0091,0.8877,0.7749,0.7139,0.7139,0.7139,0.7139,0.7139,0.7139,0.7139,0.7139,0.7068,0.6922,0.6695,0.6549,0.6434,0.6363,0.6295,0.6417,0.6575,0.6661,0.5427,0.0,0.0,0.0,1.8189,1.953,0.0,1.8254,1.8941,1.9776,1.9785,2.125,2.2673,2.3,2.3098,2.3075,2.3125,2.3078,2.3078,2.3078,2.3078,2.3078,2.3078,2.3078,2.3078,2.3078,2.3078,2.3078,2.3078,2.3078,2.3078,2.3078,2.3078,2.3078,2.3078,2.3078,2.3005,2.2884,2.3541,2.3541,2.2896,2.4117,2.4958,2.5407,2.4807,2.4103,2.3441,2.2403,2.1441,2.0566,2.0566,2.0566,2.0566,2.0566,2.0566,2.0566,2.0566,2.0566,2.0566,2.0566,2.0566,2.0566,2.0566,2.0566,2.0566,2.0566,1.9788,1.8637,1.7333,1.6277,1.5175,1.3707,1.3427,1.3499,1.3552,1.3834,1.4021,1.4075,1.4088,1.4088,1.4088,1.4088,1.4088,1.4088,1.4088,1.4088,1.4088,1.4088,1.3997,1.3822,1.2077,1.0783,1.0611,0.8877,0.7661,0.7404,0.7404,0.7316,0.7139,0.7139,0.7139,0.7139,0.7139,0.7085,0.6966,0.6692,0.6536,0.6512,0.6393,0.641,0.6556,0.6702,0.6848,0.0,0.0,1.3554,0.0,1.8376,1.9762,0.0,0.0,1.9808,1.9822,2.0042,2.0856,2.275,2.3083,2.3094,2.3088,2.3078,2.3078,2.3078,2.3078,2.3078,2.3078,2.3078,2.3078,2.3078,2.3078,2.3078,2.3078,2.3078,2.3078,2.3078,2.3078,2.3078,2.3078,2.3078,2.2763,2.2063,2.2837,2.2837,2.2075,2.3468,2.4393,2.4856,2.3185,2.2778,2.3441,2.2403,2.1441,2.0566,2.0566,2.0566,2.0566,2.0566,2.0566,2.0566,2.0566,2.0566,2.0566,2.0566,2.0566,2.0566,2.0566,2.0566,2.0566,2.0566,1.9667,1.8419,1.7506,1.6126,1.4747,1.3777,1.3427,1.3333,1.3499,1.3592,1.3774,1.4035,1.4088,1.4088,1.4088,1.4088,1.4088,1.4088,1.4088,1.4088,1.4088,1.4088,1.373,1.2681,1.2242,1.1724,1.0697,1.0351,0.9749,0.8715,0.8627,0.8189,0.7139,0.7139,0.7139,0.7139,0.7139,0.7132,0.7112,0.6953,0.6803,0.6671,0.6651,0.6719,0.6868,0.6892,0.699,0.8621,1.1821,1.5188,0.0,1.8161,1.9811,1.9787,1.9788,1.9798,1.9798,1.9828,2.018,2.1491,2.2274,2.2723,2.3048,2.3072,2.3078,2.3078,2.3078,2.3078,2.3078,2.3078,2.3078,2.3078,2.3078,2.3078,2.3078,2.3078,2.3078,2.3078,2.3078,2.3078,2.3078,2.3078,2.2944,2.2567,2.2506,2.2002,2.1175,2.1788,2.2367,2.2864,2.2046,2.217,2.2945,2.124,2.0412,2.0195,2.0195,2.0195,2.0225,2.0469,2.0566,2.0566,2.0566,2.0566,2.0566,2.0566,2.0566,2.0566,2.0566,2.0157,1.964,1.9484,1.825,1.6797,1.6087,1.5218,1.4286,1.3528,1.3427,1.3487,1.3532,1.3559,1.3728,1.4021,1.4088,1.4088,1.4088,1.4088,1.4088,1.4088,1.4088,1.4088,1.4088,1.4088,1.3906,1.3379,1.2681,1.2072,1.1638,1.0956,1.0438,0.9923,0.9836,0.9318,0.8189,0.8105,0.7841,0.7139,0.7139,0.7139,0.7139,0.7,0.6895,0.6827,0.6742,0.6783,0.685,0.685,0.6937,0.0,0.0,1.6517,1.6479,1.7752,1.9094,0.0,1.9787,1.9813,1.9786,1.9798,1.9936,2.0363,2.1242,2.2052,2.2598,2.2791,2.2924,2.2924,2.2977,2.3078,2.3078,2.3078,2.3078,2.3078,2.3078,2.3078,2.3078,2.3078,2.3078,2.3078,2.3078,2.3078,2.3078,2.2884,2.2689,2.2445,2.1678,2.1037,2.059,2.059,2.0781,2.1205,2.0941,2.1272,2.1903,2.036,1.9673,1.9756,1.9756,1.9814,1.9941,2.0273,2.0469,2.0566,2.0566,2.0566,2.0566,2.0566,2.0498,2.042,2.0527,1.9769,1.8768,1.8656,1.7204,1.5494,1.5162,1.45,1.3781,1.3414,1.3427,1.3554,1.3546,1.3559,1.3728,1.4021,1.4088,1.4088,1.4088,1.4088,1.4088,1.4088,1.4088,1.4088,1.4088,1.4088,1.4088,1.4088,1.3294,1.2766,1.2766,1.1992,1.1391,1.1042,1.1037,1.0438,0.8978,0.889,0.8364,0.7139,0.7139,0.7139,0.7139,0.7037,0.6983,0.6983,0.6875,0.68,0.6827,0.6294,0.6087,0.0,1.4669,0.0,1.6519,1.6571,1.7226,1.9315,1.9821,1.9811,1.9799,1.9798,1.9811,1.9849,2.0338,2.0983,2.1524,2.1995,2.2347,2.2347,2.2811,2.3078,2.3078,2.3078,2.3078,2.3078,2.3078,2.3078,2.3078,2.3078,2.3078,2.3078,2.3078,2.3078,2.3078,2.2384,2.1553,2.0719,1.9879,1.9814,2.059,2.059,2.0602,2.0624,1.9791,1.966,2.0065,2.0495,2.0206,1.9316,1.9316,1.9561,1.9912,1.9941,2.0195,2.0566,2.0566,2.0566,2.0566,2.0566,2.0293,2.0019,2.043,1.9571,1.8383,1.8822,1.7238,1.538,1.5569,1.4522,1.3313,1.3554,1.3427,1.33,1.3581,1.3559,1.3728,1.4021,1.4088,1.4088,1.4088,1.4088,1.4088,1.4088,1.4088,1.4088,1.4088,1.4088,1.4088,1.4088,1.4082,1.3997,1.3997,1.3913,1.347,1.2328,1.2242,1.1295,0.9065,0.889,0.8364,0.7139,0.7139,0.7139,0.7139,0.7132,0.7129,0.7129,0.7054,0.7064,0.7071,0.4816,0.3744,0.0,0.0,0.0,1.6152,1.6507,1.6722,1.7492,1.8254,1.8989,1.9648,1.951,1.9409,1.9748,2.0275,2.0781,2.0983,2.143,2.1907,2.2259,2.2485,2.2736,2.3027,2.3078,2.3078,2.3078,2.3078,2.3078,2.3078,2.3078,2.3078,2.3078,2.3078,2.2884,2.2322,2.2063,2.1239,1.9759,1.9431,1.9177,1.8921,1.8921,1.8921,1.8911,1.8596,1.8542,1.8702,1.8932,1.8954,1.8867,1.8867,1.9121,1.9541,1.9814,2.0185,2.0566,2.0566,2.0391,2.0146,2.0146,1.9863,1.9506,1.923,1.8306,1.7198,1.6787,1.5619,1.4476,1.4385,1.4104,1.3801,1.3901,1.3854,1.3801,1.3901,1.3928,1.3955,1.4062,1.4088,1.4088,1.4088,1.4088,1.4088,1.4088,1.4088,1.4088,1.4088,1.4088,1.4088,1.4088,1.4088,1.4088,1.4088,1.4088,1.3913,1.347,1.2766,1.1638,1.0096,0.9323,0.8364,0.7139,0.7139,0.7139,0.7139,0.7139,0.7139,0.7139,0.7074,0.6358,0.4825,0.5563,0.4216,0.7702,0.0,0.0,0.0,1.5943,1.651,1.652,1.7111,1.7987,1.9192,1.9207,1.9183,1.971,2.0112,2.0376,2.0376,2.0853,2.1343,2.1707,2.2083,2.2447,2.2811,2.2965,2.3078,2.3078,2.2884,2.2702,2.2702,2.2433,2.2237,2.2237,2.2237,2.1865,2.1037,2.1037,2.0333,1.8844,1.8844,1.8586,1.8008,1.8008,1.8008,1.8008,1.8008,1.8008,1.8008,1.8008,1.8164,1.8428,1.8428,1.8682,1.9092,1.9375,1.9746,2.0137,2.0137,1.9951,1.9707,1.9707,1.9424,1.9015,1.8504,1.7476,1.632,1.5622,1.4814,1.4048,1.3848,1.3935,1.4088,1.4088,1.4088,1.4088,1.4088,1.4088,1.4088,1.4088,1.4088,1.4088,1.4088,1.4088,1.4088,1.4088,1.4088,1.4088,1.4088,1.4088,1.4088,1.4088,1.4088,1.4088,1.4088,1.4088,1.4088,1.4088,1.3027,1.1809,1.0697,0.9492,0.8364,0.7139,0.7058,0.7037,0.7068,0.7034,0.7034,0.7068,0.7051,0.5905,0.3659,0.4393,0.3051,0.0,0.0,0.0,0.0,1.4788,1.6517,1.6504,1.646,1.6879,1.8337,1.8821,1.912,1.9673,1.9773,1.9786,1.9798,2.0275,2.0706,2.0718,2.1594,2.2272,2.2284,2.2714,2.3053,2.3053,2.231,2.1877,2.1877,2.1112,2.059,2.059,2.059,2.0204,1.9299,1.9309,1.8854,1.8008,1.8008,1.8008,1.8008,1.8008,1.8008,1.8008,1.8008,1.8008,1.8008,1.8008,1.8008,1.8008,1.8008,1.8252,1.8562,1.8562,1.8906,1.9287,1.9287,1.9277,1.9268,1.9268,1.8984,1.8537,1.83,1.7209,1.5976,1.5723,1.4887,1.4088,1.4088,1.4088,1.4088,1.4088,1.4088,1.4088,1.4088,1.4088,1.4088,1.4088,1.4088,1.4088,1.4088,1.4088,1.4088,1.4088,1.4088,1.4088,1.4088,1.4088,1.4088,1.4088,1.4088,1.4088,1.4088,1.4088,1.4088,1.4082,1.2942,1.1724,1.0611,0.9492,0.8277,0.7139,0.7074,0.7007,0.6843,0.7001,0.7004,0.6929,0.7007,0.5905,0.3659,0.1161,0.0,0.9591,0.0,0.0,0.0,0.0,0.0,1.6507,1.5881,1.5847,1.7559,1.7513,1.7626,1.8995,1.9246,1.9359,1.9748,1.9936,2.0188,2.0655,2.0983,2.1267,2.1669,2.1648,2.1596,2.1596,2.1195,2.0974,2.0974,2.0719,2.059,2.059,2.0009,1.9562,1.9299,1.8721,1.8269,1.8008,1.8008,1.8008,1.8008,1.8008,1.8008,1.8008,1.8008,1.8008,1.8008,1.8008,1.8008,1.8008,1.8008,1.8252,1.8562,1.8562,1.8906,1.9287,1.9287,1.9092,1.8818,1.8818,1.8535,1.7985,1.6741,1.6179,1.5782,1.4508,1.4158,1.4088,1.4088,1.4088,1.4088,1.4088,1.4088,1.4088,1.4088,1.4088,1.4088,1.4088,1.4088,1.4088,1.4088,1.4088,1.4088,1.4088,1.4088,1.4088,1.4088,1.4088,1.4088,1.4088,1.4088,1.4088,1.4088,1.4088,1.3737,1.2851,1.1729,1.0611,0.9405,0.8277,0.7411,0.7074,0.7081,0.6471,0.5185,0.6286,0.6913,0.6929,0.7007,0.6726,0.6008,0.1882,0.0,0.9751,0.9277,0.8622,0.7871,0.0,0.0,1.4923,1.5367,1.5798,1.6515,1.6589,1.6945,1.8394,1.8681,1.8857,1.9397,1.9472,1.9673,2.0225,2.0567,2.0844,2.1104,2.121,2.1112,2.0748,2.0297,1.985,1.9547,1.9168,1.9073,1.9264,1.8764,1.8594,1.8787,1.8269,1.8008,1.8008,1.8008,1.8008,1.8008,1.8008,1.8008,1.8008,1.8008,1.8008,1.8008,1.8008,1.8008,1.8008,1.8008,1.8154,1.8379,1.8379,1.8525,1.875,1.875,1.8594,1.8379,1.8379,1.7927,1.7213,1.6012,1.5468,1.5026,1.3833,1.3667,1.3901,1.3901,1.3988,1.4088,1.4088,1.4088,1.4088,1.4088,1.4088,1.425,1.465,1.4734,1.4657,1.4173,1.4088,1.4088,1.4088,1.4088,1.4088,1.4088,1.4088,1.4088,1.4088,1.4088,1.4088,1.4088,1.4088,1.3646,1.2413,1.13,1.0091,0.8978,0.776,0.7132,0.7085,0.7001,0.6189,0.4543,0.5999,0.688,0.7017,0.7024,0.6624,0.5555,0.1793,0.0,0.9305,0.9943,1.0212,0.8442,0.9317,0.0,1.2805,1.492,1.6323,1.568,1.5969,1.6716,1.7906,1.8116,1.8292,1.8795,1.8933,1.9208,1.9723,2.0238,2.0564,2.0511,2.0877,2.0864,2.0109,1.9315,1.8583,1.7924,1.7159,1.6904,1.7285,1.7314,1.751,1.793,1.7891,1.791,1.8008,1.7969,1.7969,1.8008,1.8008,1.8008,1.8008,1.8008,1.8008,1.8008,1.8008,1.8008,1.8008,1.8008,1.8008,1.8008,1.8008,1.8008,1.8008,1.8008,1.8008,1.8008,1.8008,1.7354,1.6482,1.5744,1.4938,1.4072,1.3386,1.336,1.3594,1.3594,1.3788,1.3988,1.3988,1.3988,1.3988,1.3988,1.4099,1.4441,1.5328,1.5591,1.5379,1.4334,1.4166,1.425,1.4088,1.4088,1.4088,1.4088,1.4088,1.4088,1.4088,1.4088,1.4082,1.3906,1.3906,1.3379,1.2072,1.095,0.9923,0.8803,0.7687,0.7017,0.6777,0.6704,0.6051,0.47,0.6089,0.6903,0.7139,0.7143,0.5891,0.357,0.1165,0.0,1.1151,1.1946,1.2317,1.0283,1.1223,0.0,1.3111,1.4929,1.6442,1.6325,1.5932,1.6005,1.7332,1.7551,1.7714,1.8279,1.8744,1.9208,1.9723,1.9899,1.9753,1.9148,1.9001,1.8633,1.79,1.742,1.7086,1.6971,1.6792,1.6768,1.6855,1.6855,1.7061,1.749,1.7168,1.7314,1.8008,1.7676,1.7676,1.8008,1.8008,1.8008,1.8008,1.8008,1.8008,1.8008,1.8008,1.8008,1.8008,1.8008,1.8008,1.8008,1.8008,1.8008,1.8008,1.8008,1.8008,1.8008,1.8008,1.7354,1.6437,1.5593,1.4814,1.4028,1.3119,1.3053,1.3293,1.3293,1.334,1.338,1.338,1.338,1.338,1.338,1.4268,1.4837,1.4124,1.4875,1.5379,1.4334,1.4817,1.5137,1.425,1.4088,1.4088,1.4088,1.4088,1.4088,1.4088,1.4088,1.373,1.2766,1.2674,1.1815,0.9749,0.9318,0.8711,0.7489,0.7248,0.6474,0.5104,0.6085,0.6483,0.5935,0.6493,0.6878,0.7139,0.7071,0.5902,0.357,0.1162,0.0,1.2535,1.314,1.3842,1.3493,1.4139,0.0,0.0,1.4831,1.5026,1.5587,1.5393,1.5446,1.636,1.6536,1.6723,1.7233,1.7815,1.8392,1.8932,1.9459,1.9527,1.8768,1.8561,1.8059,1.6953,1.6704,1.6427,1.6074,1.6074,1.6162,1.6387,1.6396,1.6602,1.7051,1.6846,1.6943,1.7373,1.7383,1.749,1.7705,1.791,1.8008,1.8008,1.8008,1.8008,1.8008,1.8008,1.8008,1.8008,1.8008,1.8008,1.8008,1.8008,1.8008,1.8008,1.8008,1.8008,1.794,1.7432,1.6715,1.572,1.4736,1.3923,1.3184,1.2668,1.2739,1.3013,1.3166,1.3213,1.3213,1.3213,1.3213,1.3286,1.3817,1.4087,1.4402,1.502,1.5337,1.5346,1.4942,1.5296,1.5379,1.425,1.4088,1.4088,1.4088,1.4088,1.4088,1.4088,1.3561,1.2942,1.2328,1.1809,1.0783,0.9065,0.889,0.8372,0.7156,0.7109,0.6653,0.5639,0.6182,0.6533,0.6522,0.6659,0.6922,0.7139,0.7064,0.6532,0.528,0.1698,0.0,1.3732,1.4359,1.538,1.6522,1.6645,1.6486,0.0,0.0,0.0,1.5006,1.5186,1.5323,1.57,1.5837,1.5964,1.636,1.6958,1.7493,1.7825,1.8722,1.9064,1.8312,1.809,1.7537,1.629,1.6074,1.5763,1.5225,1.4974,1.5058,1.5476,1.5626,1.5888,1.6331,1.6398,1.6562,1.6665,1.708,1.7305,1.7393,1.7812,1.8008,1.8008,1.8008,1.8008,1.8008,1.8008,1.8008,1.8008,1.8008,1.7872,1.7725,1.794,1.8008,1.8008,1.7794,1.7725,1.7588,1.6645,1.572,1.4807,1.3954,1.3098,1.2305,1.2305,1.2472,1.2712,1.2966,1.3039,1.3039,1.3039,1.3039,1.3182,1.4007,1.3754,1.3874,1.5576,1.5589,1.5292,1.5315,1.5335,1.5137,1.425,1.4088,1.4088,1.4088,1.3906,1.3737,1.3737,1.2681,1.1895,1.1643,1.0778,0.9836,0.8627,0.854,0.8113,0.7166,0.6779,0.6655,0.6706,0.6473,0.6532,0.6742,0.6837,0.697,0.7139,0.7112,0.7041,0.7009,0.2681,0.0448,1.4966,1.6166,1.7427,1.7822,1.7218,1.6499,1.6481,0.0,1.6139,1.6273,0.0,1.6319,1.6403,0.0,0.0,1.6498,1.6992,1.7194,1.6688,1.7171,1.731,1.6548,1.5964,1.5458,1.5028,1.444,1.419,1.4296,1.3479,1.305,1.3354,1.4036,1.4647,1.5111,1.5393,1.5937,1.6665,1.6777,1.7002,1.7393,1.7812,1.8008,1.8008,1.8008,1.8008,1.8008,1.8008,1.8008,1.8008,1.8008,1.7501,1.6853,1.7647,1.8008,1.7862,1.707,1.6793,1.6603,1.5658,1.4736,1.3818,1.3745,1.3098,1.2305,1.2305,1.2325,1.2358,1.2398,1.2405,1.2405,1.2405,1.2405,1.2405,1.2547,1.3418,1.4079,1.3362,1.4337,1.4992,1.4001,1.4068,1.425,1.4088,1.4088,1.4088,1.4088,1.3203,1.2498,1.2498,1.1472,1.0438,0.9405,0.9148,0.8623,0.7401,0.7316,0.7228,0.7143,0.5686,0.5443,0.6823,0.6763,0.6749,0.6902,0.6787,0.6861,0.7139,0.7014,0.6947,0.7012,0.438,0.2057,1.6323,1.7239,1.8008,1.7841,1.7625,1.7261,1.6639,1.6507,1.649,1.6525,0.0,0.0,0.0,0.0,0.0,0.0,1.6203,1.6195,1.5648,1.5153,1.5048,1.5549,1.5391,1.484,1.3874,1.3229,1.2841,1.294,1.2584,1.243,1.2738,1.3109,1.3399,1.3778,1.3934,1.4436,1.5219,1.5523,1.6113,1.7012,1.7441,1.7773,1.8008,1.8008,1.8008,1.794,1.7432,1.7217,1.7139,1.6576,1.6149,1.5799,1.6228,1.6367,1.6298,1.5939,1.5799,1.5666,1.4665,1.4027,1.36,1.3098,1.2592,1.2305,1.2305,1.2305,1.2305,1.2305,1.2305,1.2305,1.2305,1.2305,1.2445,1.2952,1.3124,1.3273,1.3532,1.3774,1.3759,1.3655,1.3741,1.3625,1.3171,1.3646,1.4088,1.4088,1.3033,1.2328,1.2328,1.0697,0.9405,0.8978,0.8277,0.7665,0.7139,0.7139,0.7061,0.7081,0.6153,0.6017,0.6961,0.6877,0.6783,0.6926,0.6946,0.7017,0.7139,0.7007,0.7024,0.7012,0.465,0.2324,1.7031,1.7882,1.854,1.7774,1.8357,1.8795,1.7652,1.7395,1.7196,1.6619,1.6095,0.0,0.0,0.0,1.5865,1.5616,0.0,1.5369,1.4786,1.3773,1.3489,1.45,1.4532,1.4011,1.2806,1.2045,1.1709,1.1752,1.1495,1.1349,1.1544,1.1744,1.2019,1.2304,1.2549,1.3045,1.3846,1.4549,1.5337,1.6229,1.6864,1.7422,1.7842,1.7842,1.79,1.794,1.7001,1.6636,1.6498,1.5587,1.5021,1.4807,1.4807,1.4665,1.445,1.4665,1.4807,1.4665,1.3673,1.331,1.3164,1.2519,1.2305,1.2305,1.2305,1.2305,1.2305,1.2305,1.2305,1.2305,1.2305,1.2305,1.2445,1.3164,1.2806,1.258,1.3465,1.3209,1.2976,1.3427,1.3336,1.2965,1.2372,1.3027,1.347,1.3215,1.2163,1.1381,1.1381,0.9662,0.8364,0.8364,0.7629,0.7099,0.7136,0.7105,0.7078,0.7061,0.6072,0.5686,0.6012,0.66,0.692,0.6997,0.7058,0.7109,0.7061,0.7034,0.7054,0.7022,0.5377,0.2236,1.6672,1.813,1.9482,1.7987,1.962,2.1262,1.989,1.9586,1.899,1.6913,1.6485,1.6475,1.6485,1.6454,1.6269,1.572,1.5588,0.0,0.0,1.3405,1.3131,1.3173,1.2821,1.2298,1.1648,1.0963,1.0676,1.094,0.9904,0.9207,0.8949,0.9685,1.0241,1.0537,1.1327,1.2143,1.3009,1.4303,1.4941,1.496,1.6157,1.6982,1.7402,1.7402,1.7627,1.794,1.7001,1.6636,1.6498,1.5587,1.4593,1.3745,1.3745,1.3171,1.2519,1.3382,1.3745,1.36,1.2659,1.2372,1.2372,1.2305,1.2305,1.2305,1.2305,1.2305,1.2305,1.2305,1.2305,1.2305,1.2305,1.2305,1.2305,1.2372,1.2298,1.2305,1.2311,1.2614,1.2839,1.316,1.2532,1.2028,1.2281,1.2328,1.1986,1.0869,0.9749,0.8978,0.8978,0.7925,0.7139,0.7139,0.7017,0.699,0.7129,0.7014,0.6878,0.6829,0.4887,0.3589,0.3268,0.5692,0.7088,0.7078,0.7114,0.7114,0.7084,0.6937,0.687,0.7135,0.7042,0.197,1.8106,1.9041,1.9795,1.9139,1.9838,2.0104,1.8044,1.7563,1.7566,1.7642,1.7017,1.6512,1.6485,1.6194,1.582,1.5632,1.4949,1.4054,0.0,1.221,1.1426,1.0786,1.088,1.0756,1.0155,0.965,0.9323,0.9225,0.9058,0.8783,0.8403,0.8745,0.883,0.8646,0.958,1.0494,1.1363,1.236,1.3235,1.405,1.5015,1.5741,1.6141,1.7041,1.7461,1.7541,1.688,1.6219,1.5587,1.4593,1.3665,1.2732,1.2732,1.2592,1.2372,1.2666,1.2732,1.2739,1.2445,1.2305,1.2305,1.2305,1.2305,1.2305,1.2305,1.2305,1.2305,1.2305,1.2305,1.2305,1.2305,1.2305,1.2305,1.2305,1.2305,1.2305,1.2305,1.2378,1.2365,1.2134,1.1802,1.1336,1.0206,1.0009,1.0178,1.0524,0.9666,0.889,0.889,0.7841,0.7139,0.7139,0.7014,0.6949,0.6997,0.6966,0.6357,0.4785,0.2529,0.1146,0.1028,0.1937,0.3127,0.4736,0.6322,0.7136,0.7098,0.7061,0.7074,0.6952,0.0626,-0.4037,1.8652,1.9316,1.9787,1.9293,1.9273,1.8869,1.6925,1.6485,1.6923,1.8452,1.7542,1.6532,1.6671,1.6118,1.5513,1.5223,1.4381,1.3351,0.0,1.1383,1.056,0.9366,0.9787,0.9954,0.9249,0.8848,0.8617,0.853,0.8604,0.8394,0.7745,0.7877,0.7691,0.724,0.8292,0.9058,0.9603,1.1066,1.2056,1.2499,1.365,1.4426,1.4868,1.6132,1.6815,1.6902,1.6679,1.6079,1.5092,1.4099,1.3171,1.2305,1.2305,1.2305,1.2305,1.2305,1.2305,1.2305,1.2305,1.2305,1.2305,1.2305,1.2305,1.2305,1.2305,1.2305,1.2305,1.2305,1.2305,1.2305,1.2305,1.2305,1.2305,1.2305,1.2305,1.2305,1.2305,1.2305,1.214,1.151,1.1101,1.0392,0.9077,0.8495,0.8536,0.9222,0.8707,0.8277,0.8277,0.7577,0.7122,0.7068,0.6983,0.6905,0.6851,0.6865,0.6295,0.4904,0.1813,0.0,0.0,0.1587,0.2416,0.2321,0.5466,0.7104,0.7115,0.7128,0.5397,0.188,-0.3403,-0.6299]}]]